     2.11           OBSERVATION DATA    G (GPS)             RINEX VERSION / TYPE
teqc 2010Oct21 OPUS Account 20111028 16:42:54UTC            PGM / RUN BY / DATE
N 1527                                                      MARKER NAME
3073                                                        MARKER NUMBER
CSMIDDLETON NGS                                             OBSERVER / AGENCY
0440103897 TRIMBLE 5700 1.04                                REC # / TYPE / VERS
12299603 TRM41249.00 NONE                                   ANT # / TYPE
  -719463.2169 -5592526.7818  2971019.8894                  APPROX POSITION XYZ
        1.9990        0.0000        0.0000                  ANTENNA: DELTA H/E/N
     1     1                                                WAVELENGTH FACT L1/2
     5    L1    L2    C1    P1    P2                        # / TYPES OF OBSERV
    15                                                      LEAP SECONDS
  2011     8    24    15    16    0.0000000     GPS         TIME OF FIRST OBS
                                                            END OF HEADER
 11  8 24 15 16  0.0000000  0  9G03G06G07G10G13G16G19G20G23
   -403875.61757   -308830.82556  20641954.1484                   20641952.7504
   -243354.46557   -180237.41655  21997596.5234                   21997594.6914
   -669929.46457   -491665.62255  22872833.9304                   22872832.8524
   -478118.04556   -370583.39953  23847848.3364                   23847847.1294
   -618695.00458   -452264.09456  20270496.9454                   20270494.1844
     28440.07058     17228.47955  21870475.3524                   21870471.8754
   -731523.51758   -533298.26956  21626866.8364                   21626863.1414
     51567.21356     34227.49753  23603061.7894                   23603060.5164
   -353230.10958   -271742.97857  19826863.4614                   19826858.4844
 11  8 24 15 16 30.0000000  0 10G03G06G07G10G13G16G19G20G23G32
   1095003.37947    859126.84546  20927181.1414                   20927179.6994
   1287077.06147   1012306.61745  22288828.0314                   22288826.9024
    773818.17947    633332.55845  23147570.3524                   23147568.7504
   1001304.94946    782213.66743  24129373.3594                   24129372.3754
    836908.49648    681972.39346  20547489.4614                   20547486.5824
   1611627.46648   1250880.96445  22171745.8834                   22171742.9924
    701746.47448    583535.51246  21899609.2504                   21899604.8484
   1639073.27546   1271245.10943  23905153.7194                   23905153.8324
   1155678.51848    904029.95847  20113999.1094                   20113994.2704
   1606332.79656   1244498.57253  24883645.7584                   24883647.2504
 11  8 24 15 17  0.0000000  0 10G03G06G07G10G13G16G19G20G23G32
   1019638.70548    800401.12646  20912840.2504                   20912838.3794
   1243178.60447    978100.01645  22280474.6484                   22280472.9384
    642695.66147    531159.19345  23122618.7894                   23122617.0124
    906358.70946    708229.64143  24111304.8444                   24111305.1804
    718089.46848    589386.13146  20524879.0164                   20524875.5514
   1620119.67247   1257498.24245  22173362.0554                   22173358.9534
    560544.08348    473507.70146  21872739.2034                   21872735.5824
   1651701.99646   1281085.57444  23907558.1564                   23907556.7424
   1090277.32648    853067.96947  20101553.5944                   20101549.2814
   1622521.98546   1257113.35643  24886726.7734                   24886728.9654
 11  8 24 15 17 30.0000000  0 10G03G06G07G10G13G16G19G20G23G32
    945419.71548    742568.13846  20898716.4064                   20898714.6604
   1200337.09847    944716.99245  22272322.3054                   22272321.0204
    512093.79947    429391.51945  23097765.7504                   23097764.3874
    812433.01546    635040.76843  24093431.7894                   24093431.5514
    600240.60548    497555.84046  20502452.9304                   20502450.0164
   1629300.04147   1264651.73645  22175108.7034                   22175105.2934
    420263.52948    364198.20046  21846044.3834                   21846040.7974
   1664836.64046   1291320.26744  23910057.0004                   23910056.6484
   1025955.70748    802947.20447  20089313.6644                   20089309.1914
   1639119.72446   1270046.46443  24889884.9774                   24889886.6334
 11  8 24 15 18  0.0000000  0  9G03G06G07G10G13G16G19G20G23
    872277.14047    685573.93146  20884798.0314                   20884796.2894
   1158482.47647    912102.99245  22264357.5704                   22264356.3754
    381943.17647    327975.48245  23072999.1804                   23072997.3914
    719458.12146    562592.81543  24075738.9064                   24075738.4844
    483294.96148    406429.36146  20480199.1564                   20480196.1994
   1639096.92047   1272285.62745  22176973.1174                   22176970.2154
    280838.25647    255555.15246  21819512.4454                   21819509.1174
   1678405.27646   1301893.14243  23912639.6174                   23912638.0704
    962644.75848    753613.98047  20077265.7734                   20077261.5824
 11  8 24 15 18 30.0000000  0  9G03G06G07G10G13G16G19G20G23
    800188.22747    629400.74346  20871079.8754                   20871077.9184
   1117590.90447    880239.43145  22256576.2114                   22256574.5474
    252220.72347    226893.08445  23048313.5084                   23048311.4454
    627411.23346    490867.90343  24058223.3134                   24058221.3164
    367231.53848    315990.32646  20458113.0554                   20458109.8284
   1649484.83647   1280380.07345  22178949.9144                   22178947.6484
    142248.13147    147562.85546  21793139.3834                   21793136.0514
   1692381.83346   1312783.89043  23915299.3914                   23915297.0944
    900322.06648    705050.82347  20065406.4614                   20065401.7854
 11  8 24 15 19  0.0000000  0  9G03G06G07G10G13G16G19G20G23
    729130.51648    574031.09246  20857558.0084                   20857556.0594
   1077638.40047    849107.58745  22248973.3674                   22248971.7934
    122903.66447    126126.55345  23023705.8284                   23023703.4734
    536268.80746    419847.87443  24040878.9224                   24040878.4024
    252029.89748    226222.80946  20436190.8674                   20436187.9574
   1660438.20247   1288915.11145  22181034.1024                   22181031.4224
      4473.32047     40205.87246  21766922.3284                   21766918.0904
   1706740.81947   1323972.63543  23918031.3524                   23918030.0634
    838965.13648    657240.19347  20053730.6954                   20053726.1914
 11  8 24 15 19 30.0000000  0 10G03G06G07G10G13G16G19G20G23G08
    659070.76148    519439.06846  20844225.8984                   20844224.1954
   1038590.70947    818680.81745  22241542.7344                   22241541.7194
     -6041.81447     25649.60645  22999167.4774                   22999165.9264
    445997.34746    349506.49143  24023701.5084                   24023701.2464
    137658.75148    137102.42046  20414427.0784                   20414423.5744
   1671921.09347   1297862.80645  22183219.7974                   22183216.8324
   -132517.14947    -66539.92846  21740853.6564                   21740849.7624
   1721445.80346   1335430.99143  23920830.0394                   23920827.7424
    778541.07948    610156.48647  20042232.1414                   20042227.9144
   1307173.93456   1044598.00053  25024726.5084                   25024727.8874
 11  8 24 15 20  0.0000000  0 10G03G06G07G10G13G16G19G20G23G08
    589971.05448    465595.13046  20831076.9454                   20831075.0514
   1000408.97147    788928.81245  22234276.8834                   22234275.7034
   -134653.70747    -74567.44045  22974694.2344                   22974691.2704
    356558.68046    279814.02243  24006681.6884                   24006681.6214
     24082.13048     48601.15246  20392813.3444                   20392810.7344
   1683892.92447   1307191.46345  22185497.8204                   22185494.6884
   -268758.08147   -172701.68246  21714927.7734                   21714924.1414
   1736456.18946   1347127.33443  23923686.6954                   23923684.8364
    719012.12448    563770.25547  20030904.0554                   20030899.9654
   1172984.37146    940034.74843  24999191.4844                   24999191.9844
 11  8 24 15 20 30.0000000  0 10G03G06G07G10G13G16G19G20G23G08
    521801.60548    412476.06946  20818104.6094                   20818102.8954
    963061.98547    759827.24045  22227170.1334                   22227168.7734
   -262961.95747   -174547.86345  22950277.4614                   22950274.9884
    267922.75846    210747.07243  23989814.9844                   23989814.5704
    -88727.95648    -39302.82246  20371346.4694                   20371343.4304
   1696321.36147   1316875.92045  22187863.1334                   22187859.5824
   -404276.89048   -278300.74046  21689139.3284                   21689135.9104
   1751739.12146   1359036.01043  23926594.4924                   23926593.3094
    660348.87348    518058.61747  20019741.2734                   20019736.3444
   1039043.68246    835665.38443  24973703.6884                   24973704.6024
 11  8 24 15 21  0.0000000  0 10G03G06G07G10G13G16G19G20G23G08
    454541.32148    360065.45246  20805305.7114                   20805303.6024
    926527.62047    731358.91245  22220217.7114                   22220216.8244
   -390987.82947   -274308.27645  22925914.8204                   22925912.8634
    180068.12446    142288.88543  23973096.2664                   23973095.4694
   -200790.37648   -126624.19346  20350022.1644                   20350019.0164
   1709182.36747   1326897.44245  22190310.0634                   22190307.3634
   -539092.07947   -383351.52346  21663484.4534                   21663481.2934
   1767270.56346   1371138.33943  23929550.1644                   23929548.5394
    602530.28948    473005.14547  20008738.5704                   20008733.8364
    905330.19546    731473.14443  24948258.2034                   24948258.3444
 11  8 24 15 21 30.0000000  0 10G03G06G07G10G13G16G19G20G23G08
    388170.62648    308348.01246  20792675.3134                   20792673.5664
    890784.95447    703507.45945  22213415.9454                   22213415.3134
   -518750.88947   -373863.87745  22901602.6884                   22901600.7774
     92974.52746     74423.76343  23956522.6804                   23956522.5744
   -312123.00948   -213376.90646  20328835.8594                   20328832.9534
   1722453.88947   1337238.82745  22192835.5944                   22192833.0634
   -673220.51748   -487867.17746  21637961.0474                   21637957.3094
   1783027.83146   1383416.61944  23932548.4454                   23932547.0474
    545537.07348    428594.81847  19997893.0314                   19997888.4184
    771823.41146    627441.93442  24922852.9924                   24922852.4384
 11  8 24 15 22  0.0000000  0 10G03G06G07G10G13G16G19G20G23G08
    322670.83048    257309.20046  20780211.5004                   20780209.8714
    855814.26247    676257.56745  22206761.7894                   22206760.0314
   -646270.05147   -473229.45745  22877336.0704                   22877335.2544
      6623.13546      7136.90843  23940091.5554                   23940090.5474
   -422742.16348   -299573.65246  20307785.8754                   20307783.0234
   1736114.45848   1347883.38045  22195435.3364                   22195432.6564
   -806677.67648   -591859.75146  21612564.8754                   21612561.5864
   1798989.38546   1395854.11843  23935585.9924                   23935584.4844
    489350.75748    384813.24247  19987201.0234                   19987196.6994
    638503.73046    523556.43842  24897483.1024                   24897482.7974
 11  8 24 15 22 30.0000000  0 10G03G06G07G10G13G16G19G20G23G08
    258027.62948    206937.86446  20767909.9384                   20767908.3484
    821600.44347    649597.43145  22200251.0004                   22200249.4614
   -773559.35347   -572415.91345  22853113.8984                   22853112.4774
    -79000.59846    -59582.82443  23923797.2974                   23923796.8204
   -532660.17348   -385224.05146  20286869.2974                   20286866.3554
   1750147.92347   1358818.51145  22198105.6954                   22198102.8404
   -939475.35548   -695338.45646  21587294.5634                   21587290.6374
   1815138.41946   1408437.63943  23938659.4224                   23938658.1024
    433957.45948    341649.61447  19976660.2894                   19976655.8364
    505357.05246    419805.86342  24872145.5554                   24872144.9574
 11  8 24 15 23  0.0000000  0 10G03G06G07G10G13G16G19G20G23G08
    194223.82748    157220.59346  20755768.5704                   20755766.9694
    788125.13947    623512.77145  22193880.4534                   22193879.0904
   -900635.96747   -671436.62245  22828931.9304                   22828930.3484
   -163913.97446   -125749.16243  23907638.9844                   23907638.2774
   -641892.08048   -470339.82246  20266082.8984                   20266080.0394
   1764534.78247   1370029.02745  22200843.6724                   22200840.5474
  -1071628.14247   -798314.63546  21562146.8524                   21562142.9654
   1831455.03146   1421151.76443  23941763.8054                   23941763.4064
    379340.55548    299090.95847  19966266.8754                   19966262.2234
    372365.471 5                  24846838.195
 11  8 24 15 23 30.0000000  0 10G03G06G07G10G13G16G19G20G23G08
    131246.37048    108147.23246  20743784.3134                   20743782.5314
    755374.37947    597992.68045  22187648.5314                   22187646.8054
  -1027513.22047   -770301.97745  22804788.2734                   22804786.4304
   -248130.67746   -191372.57143  23891612.7734                   23891612.5704
   -750448.67248   -554929.38946  20245425.2814                   20245422.1334
   1779258.65947   1381502.11345  22203645.5314                   22203642.7974
  -1203145.94547   -900796.02146  21537119.7504                   21537115.8364
   1847923.62446   1433984.34343  23944898.1334                   23944897.5944
    325487.31348    257127.36647  19956019.3524                   19956014.3754
    239515.696 6                  24821557.148
 11  8 24 15 24  0.0000000  0 10G03G06G07G10G13G16G19G20G23G08
     69085.63648     59710.28146  20731955.4694                   20731953.8204
    723336.86447    573028.38445  22181552.3284                   22181550.6644
  -1154201.07847   -869019.75345  22780680.5554                   22780678.5664
   -331660.95346   -256461.03743  23875716.9064                   23875716.3984
   -858337.90948   -638998.93346  20224894.9384                   20224891.7504
   1794307.53147   1393228.45445  22206509.2894                   22206506.3094
  -1334036.87047  -1002788.93346  21512211.4774                   21512208.0634
   1864530.98246   1446925.04043  23948058.3834                   23948057.7624
    272387.54448    215750.88947  19945914.7664                   19945909.8284
    106796.828 5                  24796300.672
 11  8 24 15 24 30.0000000  0 10G03G06G07G10G13G16G19G20G23G08
      7728.05948     11899.14946  20720279.4224                   20720278.0864
    691998.48147    548608.84145  22175589.3134                   22175586.7074
  -1280712.45047   -967600.02745  22756605.6724                   22756604.4224
   -414518.16646   -321025.13043  23859950.6644                   23859950.8404
   -965571.04048   -722557.21846  20204488.7274                   20204485.8594
   1809665.83547   1405195.92645  22209432.0234                   22209428.7344
  -1464310.58148  -1104300.89846  21487421.6024                   21487418.3834
   1881261.54146   1459961.71043  23951242.2034                   23951241.7974
    220028.34648    174951.49047  19935950.9064                   19935946.3404
    -25804.937 5                  24771067.445
 11  8 24 15 25  0.0000000  0 10G03G06G07G10G13G16G19G20G23G08
    -52835.25248    -35293.05646  20708754.7274                   20708752.6024
    661348.98247    524726.09345  22169756.1724                   22169754.4414
  -1407056.10547  -1066049.60745  22732563.1254                   22732561.7774
   -496711.56546   -385071.93243  23844309.9454                   23844308.9844
  -1072154.78948   -805609.49846  20184206.8524                   20184203.6374
   1825322.44347   1417395.83145  22212410.9064                   22212408.5864
  -1593973.32247  -1205336.78446  21462747.9064                   21462744.1954
   1898103.60346   1473085.32643  23954447.9224                   23954446.9064
    168401.32748    134722.61847  19926126.9384                   19926122.4304
   -158298.460 5                  24745854.648
 11  8 24 15 25 30.0000000  0 10G03G06G07G10G13G16G19G20G23G08
   -112618.77048    -81877.62846  20697378.7814                   20697376.8444
    631372.82247    501368.01645  22164051.8984                   22164050.2734
  -1533246.62047  -1164379.84045  22708550.5704                   22708548.2384
   -578256.45846   -448613.43343  23828792.5944                   23828791.8794
  -1178101.52948   -888165.39746  20164045.4924                   20164042.5434
   1841260.26747   1429814.85845  22215444.1094                   22215441.2074
  -1723036.98248  -1305905.85746  21438187.4694                   21438184.2814
   1915040.08146   1486282.46343  23957670.5004                   23957670.7504
    117491.99648     95052.98347  19916439.2114                   19916434.4454
   -290699.14945   -200497.48852  24720660.5784                   24720661.4344
 11  8 24 15 26  0.0000000  0 10G03G06G07G10G13G16G19G20G23G08
   -171632.45648   -127862.34846  20686149.0704                   20686146.7974
    602058.85347    478525.94645  22158473.7584                   22158472.5234
  -1659293.80547  -1262598.39345  22684563.7344                   22684561.5984
   -659162.87646   -511657.39543  23813395.8444                   23813395.2194
  -1283419.18248   -970231.10846  20144004.4614                   20144001.9534
   1857467.08647   1442443.51945  22218527.9534                   22218525.5044
  -1851508.86147  -1406013.80246  21413740.1024                   21413736.7894
   1932058.51646   1499543.42843  23960908.5004                   23960908.4064
     67290.63548     55935.01547  19906886.1954                   19906881.4104
   -423016.86346   -303602.22043  24695481.9454                   24695481.8634
 11  8 24 15 26 30.0000000  0 10G03G06G07G10G13G16G19G20G23G08
   -229883.74948   -173252.98346  20675063.5554                   20675062.0084
    573398.84347    456193.44045  22153020.3054                   22153018.6254
  -1785204.41847  -1360710.51945  22660603.4694                   22660602.1484
   -739438.33946   -574209.71443  23798119.8754                   23798120.0354
  -1388112.88648  -1051810.61646  20124081.8754                   20124079.0904
   1873933.53347   1455274.47745  22221661.3834                   22221658.0234
  -1979393.23247  -1505663.95546  21389404.2584                   21389400.6914
   1949148.93446   1512860.59143  23964161.2034                   23964160.6214
     17790.58848     17363.52147  19897466.6724                   19897461.9104
   -555259.48346   -406648.24843  24670316.7034                   24670318.3984
 11  8 24 15 27  0.0000000  0 10G03G06G07G10G13G16G19G20G23G08
   -287384.33148   -218058.65446  20664121.7274                   20664119.9534
    545379.96947    434360.52845  22147687.9924                   22147686.6254
  -1910990.17147  -1458725.37045  22636667.8674                   22636665.9304
   -819095.25546   -636280.02843  23782961.9924                   23782962.1214
  -1492192.34648  -1132911.51046  20104276.4614                   20104273.3244
   1890645.46547   1468296.71245  22224841.6094                   22224838.5514
  -2106699.03647  -1604863.26746  21365179.8054                   21365175.2034
   1966297.17546   1526222.75543  23967424.1884                   23967424.8794
    -31019.65848    -20670.45847  19888178.2664                   19888173.8164
   -687439.12546   -509645.37743  24645164.8054                   24645164.1334
 11  8 24 15 27 30.0000000  0 10G03G06G07G10G13G16G19G20G23G08
   1231280.88348    965316.80646  20953114.3444                   20953112.5554
   2093415.34147   1640621.82245  22442269.5944                   22442267.7074
   -461233.13447   -329044.52145  22912547.3674                   22912545.3984
    677282.44946    529728.58643  24067713.0234                   24067712.4654
    -20238.45248     14065.54246  20384379.5474                   20384376.9614
   3483013.61447   2709103.03845  22527859.4224                   22527856.7194
   -658006.05048   -476011.57246  21640856.3364                   21640853.1254
   3558913.24946   2767222.27143  24270489.2504                   24270489.4224
   1496274.85348   1169429.14447  20178812.6414                   20178808.0634
    755861.64746    615004.60743  24919815.0474                   24919815.4574
 11  8 24 15 28  0.0000000  0 10G03G06G07G10G13G16G19G20G23G08
   1175261.56148    921665.37146  20942453.8444                   20942452.5704
   2066655.73847   1619770.17245  22437177.4534                   22437175.9774
   -586787.82647   -426879.33345  22888655.0784                   22888653.3164
    598842.29646    468606.38543  24052787.0474                   24052786.0234
   -123102.21248    -66088.05146  20364805.3834                   20364802.7774
   3500190.50447   2722487.58145  22531127.7194                   22531125.6024
   -784166.32348   -574318.26446  21616848.3054                   21616845.2854
   3576149.71046   2780653.03343  24273769.8444                   24273768.2854
   1448824.54548   1132454.85447  20169783.3134                   20169778.8794
    623787.59946    512089.85643  24894682.2194                   24894682.8204
 11  8 24 15 28 30.0000000  0 10G03G06G07G10G13G16G19G20G23G08
   1119970.86348    878581.68446  20931932.6804                   20931931.2934
   2040512.21747   1599398.56745  22432202.4384                   22432201.2114
   -712238.19547   -524632.81945  22864782.9384                   22864781.2704
    520998.20146    407948.61643  24037973.3914                   24037973.1334
   -225366.86348   -145774.80046  20345344.9454                   20345342.5474
   3517584.66147   2736041.43044  22534438.0554                   22534435.5044
   -909761.24848   -672184.43746  21592948.6644                   21592945.4654
   3593414.75946   2794106.26143  24277055.3674                   24277054.1884
   1402042.94348   1096001.62847  20160881.0634                   20160876.7304
    491754.30246    409206.78444  24869557.0704                   24869557.8794
 11  8 24 15 29  0.0000000  0 10G03G06G07G10G13G16G19G20G23G08
   1065397.71348    836057.13846  20921547.7114                   20921545.8444
   2014972.58847   1579497.55445  22427342.1174                   22427340.7234
   -837595.22547   -622313.59645  22840927.6484                   22840925.8914
    443738.45046    347746.21643  24023271.3524                   24023271.4494
   -327041.31947   -225001.65946  20325997.1644                   20325994.2234
   3535182.90947   2749754.30645  22537786.7584                   22537784.4414
  -1034799.25648   -769616.64446  21569154.9224                   21569150.8794
   3610695.02546   2807571.30243  24280343.6484                   24280342.2154
   1355919.11548   1060060.97047  20152103.9224                   20152099.6914
    359750.31646    306346.58544  24844437.6094                   24844438.3874
 11  8 24 15 29 30.0000000  0 10G03G06G07G10G13G16G19G20G23G08
   1011534.89548    794086.09046  20911297.8984                   20911296.5824
   1990028.76747   1560060.78645  22422595.3674                   22422594.3674
   -962865.61747   -719926.87045  22817089.7344                   22817088.8324
    367055.93446    287993.57143  24008679.2274                   24008678.8164
   -428130.46348   -303772.41846  20306760.6954                   20306757.9844
   3552975.94747   2763618.98045  22541173.1414                   22541169.8524
  -1159284.52847   -866618.14846  21545466.3754                   21545462.3714
   3627980.72046   2821040.57743  24283633.0944                   24283631.3484
   1310446.06448   1024627.39147  20143451.0474                   20143446.0984
    227768.54446    203503.71944  24819322.5234                   24819322.0204
 11  8 24 15 30  0.0000000  0 10G03G06G07G10G13G16G19G20G23G08
    958374.13948    752662.11546  20901181.9384                   20901180.0164
   1965671.72647   1541081.25745  22417960.9064                   22417959.0744
  -1088056.72847   -817478.36645  22793266.3754                   22793265.2624
    290942.53947    228684.41644  23994195.2734                   23994195.1684
   -528640.04748   -382091.58546  20287634.4924                   20287631.5514
   3570954.04047   2777627.83744  22544593.5164                   22544590.8794
  -1283222.28947   -963193.00446  21521881.2194                   21521877.5044
   3645261.89746   2834506.29843  24286921.2344                   24286920.1564
   1265616.56248    989695.28347  20134919.9924                   20134915.3364
     95800.76746    100671.74944  24794209.0474                   24794209.7234
 11  8 24 15 30 30.0000000  0 10G03G06G07G10G13G16G19G20G23G08
    905904.94148    711777.02046  20891196.9774                   20891195.7304
   1941889.52947   1522549.65445  22413435.4454                   22413434.3054
  -1213179.08947   -914976.28145  22769456.8594                   22769455.2584
    215386.78646    169809.81244  23979817.9924                   23979817.3874
   -628578.73648   -459965.88846  20268616.4224                   20268613.4414
   3589104.17947   2791770.77245  22548047.8984                   22548045.4414
  -1406620.28648  -1059347.27546  21498399.3054                   21498396.0044
   3662525.35846   2847958.22443  24290206.7114                   24290206.5084
   1221419.52148    955256.00247  20126509.9454                   20126504.8984
    -36164.05346     -2157.90243  24769097.5784                   24769097.3984
 11  8 24 15 31  0.0000000  0 10G03G06G07G10G13G16G19G20G23G08
    854121.65448    671426.39246  20881343.0474                   20881341.8524
   1918675.39447   1504460.72645  22409018.0004                   22409015.9024
  -1338237.69947  -1012424.52245  22745658.9454                   22745657.2154
    140382.60346    111364.99843  23965545.0084                   23965544.4224
   -727950.02748   -537398.07346  20249706.9694                   20249703.9064
   3607418.79647   2806041.91544  22551533.0704                   22551530.4104
  -1529481.62148  -1155083.36746  21475019.7734                   21475016.4924
   3679762.92046   2861389.99743  24293486.6414                   24293485.4144
   1177849.52248    921305.32947  20118218.8284                   20118214.0904
   -168131.57946   -104989.71044  24743983.9844                   24743984.8134
 11  8 24 15 31 30.0000000  0 10G03G06G07G10G13G16G19G20G23G08
    803017.14448    631604.68146  20871618.4064                   20871617.2194
   1896021.61747   1486808.39945  22404706.4304                   22404705.2734
  -1463239.05747  -1109828.14045  22721872.1174                   22721870.2774
     65922.86646     53344.38544  23951375.0164                   23951375.5394
   -826758.22848   -614391.49046  20230904.1644                   20230902.0784
   3625889.38647   2820434.51944  22555047.8134                   22555045.4344
  -1651809.83648  -1250404.04246  21451741.7274                   21451738.5164
   3696965.94246   2874794.79243  24296760.7034                   24296759.5864
   1134900.59848    887838.61646  20110045.4064                   20110041.3634
   -300108.35246   -207828.69743  24718870.1564                   24718871.0784
 11  8 24 15 32  0.0000000  0 10G03G06G07G10G13G16G19G20G23G08
    752586.69748    592308.22046  20862021.9304                   20862019.6914
   1873922.54247   1469588.32545  22400501.9304                   22400499.9414
  -1588186.83347  -1207190.01145  22698095.2894                   22698093.1684
     -7996.79646     -4255.32744  23937308.7194                   23937309.2624
   -925005.94648   -690948.16946  20212208.1724                   20212205.8794
   3644509.27247   2834943.47844  22558590.9694                   22558589.1024
  -1773606.83048  -1345310.78546  21428564.5084                   21428560.5164
   3714127.47146   2888167.27143  24300026.2504                   24300025.0744
   1092567.99048    854852.14347  20101990.2504                   20101985.6844
   -432099.39046   -310678.77043  24693753.0234                   24693753.7384
 11  8 24 15 32 30.0000000  0 10G03G06G07G10G13G16G19G20G23G08
    702823.20648    553531.46346  20852552.3524                   20852550.2344
   1852370.15247   1452794.22545  22396399.9694                   22396398.7624
  -1713087.31347  -1304515.03945  22674327.3204                   22674325.3054
    -81384.13246    -61440.26043  23923344.0474                   23923343.8014
  -1022697.87248   -767071.75546  20193618.1024                   20193615.3204
   3663269.52347   2849561.81544  22562161.0164                   22562158.1454
  -1894876.81648  -1439806.88046  21405487.5084                   21405483.4344
   3731238.10146   2901500.11443  24303282.5944                   24303281.1994
   1050844.76448    822340.51247  20094050.3914                   20094045.8794
   -564112.03646   -413545.68843  24668632.0314                   24668632.2584
 11  8 24 15 33  0.0000000  0 10G03G06G07G10G13G16G19G20G23G08
    653721.13848    515270.09846  20843208.2974                   20843206.3094
   1831358.08247   1436421.17545  22392401.2814                   22392400.1094
  -1837945.31147  -1401806.95045  22650567.6564                   22650565.1374
   -154244.65746   -118214.68844  23909479.0864                   23909478.5474
  -1119836.97748   -842764.59546  20175133.7114                   20175130.3014
   3682163.08146   2864284.03944  22565756.4384                   22565753.6134
  -2015622.03848  -1533894.04946  21382509.9224                   21382506.6174
   3748290.85946   2914787.84543  24306527.7274                   24306527.0904
   1009726.17448    790300.01747  20086225.8364                   20086221.3794
   -696150.60145   -516432.77343  24643506.1254                   24643506.4534
 11  8 24 15 33 30.0000000  0 10G03G06G07G10G13G16G19G20G23G08
    605278.43748    477522.53246  20833990.3054                   20833988.1094
   1810882.64447   1420466.26845  22388505.9064                   22388504.2704
  -1962762.70847  -1499067.22145  22626815.6884                   22626813.0554
   -226580.97546   -174580.68144  23895713.6254                   23895713.2774
  -1216423.67248   -918026.95646  20156753.2814                   20156750.5394
   3701185.60846   2879106.73944  22569376.0554                   22569374.3634
  -2135842.25648  -1627572.12846  21359632.8134                   21359629.7114
   3765280.83046   2928026.59543  24309761.6024                   24309760.1094
    969209.99348    758728.94747  20078515.7664                   20078511.2034
   -828217.91046   -619342.29043  24618373.9614                   24618373.9494
 11  8 24 15 34  0.0000000  0 10G03G06G07G10G13G16G19G20G23G08
    557489.06048    440284.04746  20824895.7894                   20824894.3754
   1790937.50547   1404924.56645  22384710.1644                   22384708.7304
  -2087544.48347  -1596299.75345  22603070.3914                   22603068.0204
   -298399.09546   -230542.88844  23882047.7974                   23882047.1054
  -1312461.05048   -992861.29446  20138478.0164                   20138475.5824
   3720330.13047   2894024.52144  22573019.8284                   22573016.5044
  -2255539.73648  -1720842.87046  21336855.4924                   21336851.8794
   3782200.69946   2941210.80443  24312980.8914                   24312979.7464
    929290.83548    727623.07847  20070919.3834                   20070915.6094
   -960319.50546   -722278.58743  24593235.8834                   24593235.9024
 11  8 24 15 34 30.0000000  0 10G03G06G07G10G13G16G19G20G23G08
    510348.61648    403551.22346  20815925.4144                   20815923.7344
   1771517.60347   1389792.15645  22381014.3754                   22381013.7154
  -2212293.92347  -1693507.08245  22579331.5554                   22579329.0824
   -369703.51446   -286104.78344  23868479.1884                   23868477.9534
  -1407950.85748  -1067268.93946  20120306.6644                   20120304.1294
   3739590.67147   2909032.65944  22576684.4534                   22576682.2814
  -2374715.99048  -1813707.47046  21314176.7734                   21314173.1454
   3799044.29546   2954335.55443  24316185.5784                   24316185.0434
    889965.03948    696979.57847  20063436.2584                   20063432.0634
  -1092459.18346   -825244.55643  24568090.8914                   24568089.7074
 11  8 24 15 35  0.0000000  0 10G03G06G07G10G13G16G19G20G23G08
    463850.89048    367319.21746  20807077.4144                   20807075.3634
   1752615.43147   1375063.17145  22377417.5634                   22377416.6644
  -2337016.23447  -1790693.25545  22555597.1564                   22555595.4804
   -440500.81846   -341271.54444  23855006.3284                   23855006.1804
  -1502897.14748  -1141253.05746  20102239.5864                   20102236.6214
   3758959.05747   2924124.88244  22580370.6484                   22580367.9614
  -2493374.49248  -1906168.64146  21291596.8444                   21291593.4534
   3815803.09946   2967394.21243  24319375.7424                   24319374.6024
    851226.24748    666793.47546  20056064.5554                   20056059.6994
  -1224643.06946   -928244.88743  24542937.4614                   24542936.5864
 11  8 24 15 35 30.0000000  0 10G03G06G07G10G13G16G19G20G23G08
    417993.87748    331586.46646  20798350.7274                   20798349.1914
   1734228.14247   1360735.36345  22373918.3364                   22373917.2664
  -2461712.74047  -1887859.33345  22531868.2734                   22531865.9454
   -510793.22846   -396044.84843  23841630.3674                   23841630.6134
  -1597299.70948  -1214813.49846  20084275.0634                   20084272.2274
   3778431.65447   2939298.29044  22584076.2194                   22584073.1414
  -2611513.92848  -1998225.33046  21269115.7274                   21269111.7074
   3832473.30946   2980383.85843  24322547.7974                   24322546.7424
    813073.13048    637063.75046  20048803.7664                   20048799.7304
  -1356872.72346  -1031280.95443  24517774.1884                   24517773.1054
 11  8 24 15 36  0.0000000  0 10G03G06G07G10G13G16G19G20G23G08
    372775.02248    296350.99646  20789745.9304                   20789744.5434
   1716352.12847   1346805.98545  22370517.1884                   22370515.2814
  -2586385.18347  -1985006.67045  22508144.0314                   22508141.7584
   -580583.47046   -450426.88044  23828350.0234                   23828349.5784
  -1691158.44048  -1287950.17146  20066414.4454                   20066411.6294
   3798004.53347   2954549.84644  22587800.8674                   22587798.3874
  -2729133.76948  -2089877.13946  21246733.5634                   21246729.3954
   3849050.49646   2993300.98843  24325703.0864                   24325700.8754
    775502.71748    607788.07146  20041654.5394                   20041650.3984
  -1489150.58546  -1134354.55843  24492602.5784                   24492601.8364
 11  8 24 15 36 30.0000000  0 10G03G06G07G10G13G16G19G20G23G08
    328189.43948    261608.97646  20781262.2274                   20781260.2384
   1698981.70647   1333270.58045  22367211.8444                   22367210.0044
  -2711037.40947  -2082138.24745  22484423.6724                   22484421.4414
   -649876.46646   -504421.43344  23815163.7114                   23815163.1564
  -1784476.65348  -1360665.66346  20048656.7194                   20048653.9964
   3817671.23347   2969874.50144  22591543.1484                   22591540.9844
  -2846236.30348  -2181125.85646  21224449.6884                   21224445.4964
   3865527.77946   3006140.28443  24328838.3054                   24328837.2344
    738511.33448    578963.58747  20034615.3524                   20034611.1564
  -1621481.33946  -1237469.34843  24467420.3054                   24467420.4774
 11  8 24 15 37  0.0000000  0 10G03G06G07G10G13G16G19G20G23G08
    284233.80848    227357.83946  20772897.3134                   20772895.4844
   1682113.03047   1320126.13545  22364001.6174                   22363999.9494
  -2835671.27247  -2179255.52145  22460706.1024                   22460703.8484
   -718675.44346   -558031.04944  23802071.9694                   23802071.1764
  -1877253.94648  -1432959.66446  20031001.8054                   20030998.8714
   3837427.54547   2985268.97444  22595302.5864                   22595300.1094
  -2962821.27148  -2271971.28946  21202264.1024                   21202260.1564
   3881900.74846   3018898.33543  24331953.9304                   24331952.9224
    702095.92948    550587.91546  20027685.9534                   20027681.6994
  -1753867.46646  -1340627.32143  24442228.7504                   24442227.9414
 11  8 24 15 37 30.0000000  0 10G03G06G07G10G13G16G19G20G23G08
    240906.14048    193596.01246  20764652.2894                   20764650.7234
   1665743.34847   1307370.50845  22360886.1724                   22360885.1844
  -2960287.72147  -2276359.20245  22436992.4844                   22436990.0204
   -786982.62146   -611257.44244  23789072.7584                   23789073.2424
  -1969490.05948  -1504831.95146  20013449.7664                   20013446.4964
   3857270.16447   3000730.72044  22599078.2894                   22599075.7704
  -3078887.59948  -2362412.56846  21180177.3754                   21180173.6054
   3898165.55446   3031572.00243  24335048.7344                   24335048.2774
    666255.21148    522660.05146  20020865.4064                   20020861.4964
  -1886310.19346  -1443829.31943  24417025.2114                   24417025.1684
 11  8 24 15 38  0.0000000  0 10G03G06G07G10G13G16G19G20G23G08
    198202.00948    160320.06446  20756526.1254                   20756524.4384
   1649867.09747   1294999.37545  22357865.5314                   22357864.0314
  -3084890.20247  -2373452.01845  22413281.6024                   22413279.4534
   -854802.95547   -664104.50444  23776167.4774                   23776167.0124
  -2061187.40348  -1576284.43146  19996000.0554                   19995997.1994
   3877192.81347   3016254.83944  22602869.8674                   22602866.8634
  -3194436.61348  -2452450.75946  21158189.2734                   21158185.2114
   3914315.93246   3044156.60843  24338121.9924                   24338121.9844
    630984.67148    495176.49346  20014153.7504                   20014149.4844
  -2018813.70346  -1547078.81843  24391810.0004                   24391810.5164
 11  8 24 15 38 30.0000000  0 10G03G06G07G10G13G16G19G20G23G08
    156116.88448    127526.46346  20748517.5164                   20748516.0704
   1634478.97747   1283008.60745  22354936.6954                   22354935.7734
  -3209482.04047  -2470536.53745  22389572.6254                   22389570.1214
   -922140.73646   -716575.49844  23763354.0084                   23763353.4454
  -2152347.89748  -1647318.58546  19978653.0004                   19978650.1724
   3897189.87947   3031836.90944  22606674.8444                   22606672.9964
  -3309469.73448  -2542086.95046  21136299.4694                   21136295.4344
   3930345.82746   3056647.28343  24341172.7894                   24341173.1174
    596280.32248    468134.11746  20007549.7894                   20007545.4224
  -2151382.21746  -1650378.92743  24366583.8364                   24366583.2424
 11  8 24 15 39  0.0000000  0 10G03G06G07G10G13G16G19G20G23G08
   1690071.42748   1322815.71046  21040419.1884                   21040417.4344
   3194998.04847   2498997.46345  22651894.5784                   22651892.5004
  -1758638.69847  -1340009.22645  22665658.4534                   22665656.3634
    586425.42546    458930.62444  24050424.3754                   24050424.2074
   -667546.93848   -490330.83146  20261201.5164                   20261198.5634
   5492678.79647   4275074.98644  22910286.4534                   22910284.0354
  -1848560.75948  -1403716.31346  21414300.8674                   21414297.3834
   5521672.52646   4296641.94543  24643992.9454                   24643992.2504
   2137562.88048   1669133.47746  20300846.4384                   20300841.8794
   -708591.19846   -526126.08843  24641137.8134                   24641137.5744
 11  8 24 15 39 30.0000000  0 10G03G06G07G10G13G16G19G20G23G08
   1649219.02547   1290982.66445  21032645.0234                   21032643.7544
   3180578.65447   2487761.56345  22649150.4694                   22649148.7854
  -1883211.43747  -1437078.85645  22641953.7504                   22641951.6524
    520046.95547    407207.09344  24037793.1564                   24037793.1914
   -757631.63548   -560526.70646  20244058.2034                   20244055.4144
   5512815.73346   4290766.05344  22914118.6954                   22914116.3364
  -1962557.93148  -1492545.27346  21392608.2274                   21392604.4614
   5537451.51546   4308937.10943  24646994.7974                   24646995.1334
   2103986.72348   1642970.20646  20294456.7894                   20294452.1254
   -841292.53046   -629529.67243  24615884.9534                   24615884.8754
 11  8 24 15 40  0.0000000  0 10G03G06G07G10G13G16G19G20G23G08
   1608980.69347   1259628.10345  21024988.0704                   21024986.5664
   3166640.02047   2476900.26945  22646497.9144                   22646496.4304
  -2007774.34947  -1534140.84045  22618250.0474                   22618248.0944
    454145.47346    355855.29044  24025252.6564                   24025252.0164
   -847176.87848   -630302.22246  20227018.5634                   20227016.1604
   5533018.21747   4306508.18844  22917962.9224                   22917960.4964
  -2076034.99848  -1580968.94646  21371014.1094                   21371010.1094
   5553100.29446   4321130.77743  24649973.6254                   24649972.8594
   2070972.93548   1617245.14546  20288174.6094                   20288170.5554
   -974061.55846   -732986.01643  24590620.6094                   24590620.0234
 11  8 24 15 40 30.0000000  0 10G03G06G07G10G13G16G19G20G23G08
   1569350.82347   1228747.68145  21017446.8364                   21017445.0664
   3153175.53547   2466408.43845  22643935.3754                   22643934.0634
  -2132332.32447  -1631198.97445  22594547.0634                   22594544.8134
    388715.21447    304870.68044  24012801.6484                   24012800.5474
   -936186.27648   -699660.20846  20210080.9224                   20210078.3014
   5553279.65946   4322296.31044  22921818.3284                   22921816.1414
  -2188994.82848  -1668989.58446  21349518.3524                   21349514.6484
   5568611.58546   4333217.36943  24652925.2344                   24652926.0124
   2038516.02448   1591954.02346  20281998.3524                   20281994.4104
  -1106904.02546   -836499.55143  24565341.1094                   24565341.2704
 11  8 24 15 41  0.0000000  0 10G03G06G07G10G13G16G19G20G23G08
   1530328.11247   1198340.35646  21010021.2734                   21010019.3874
   3140183.41547   2456284.68445  22641463.2814                   22641461.9774
  -2256885.29047  -1728253.21245  22570845.7194                   22570843.7544
    323755.02847    254252.28044  24000439.9694                   24000439.3094
  -1024658.16948   -768599.34346  20193245.6804                   20193242.5784
   5573597.55846   4338128.38344  22925685.0474                   22925682.8054
  -2301435.06748  -1756605.33946  21328122.2584                   21328118.0984
   5583983.02946   4345194.88743  24655848.7274                   24655851.7194
   2006615.26848   1567096.26446  20275927.9304                   20275923.4694
  -1239820.40046   -940070.74743  24540048.3364                   24540047.8444
 11  8 24 15 41 30.0000000  0 10G03G06G07G10G13G16G19G20G23G08
   1491908.14647   1168402.72145  21002710.1024                   21002708.5394
   3127658.68247   2446525.11945  22639080.3284                   22639078.5664
  -2381435.99647  -1825305.68945  22547144.0234                   22547142.5044
    259260.82546    203997.04643  23988166.4534                   23988166.7114
  -1112594.29848   -837121.01046  20176511.4224                   20176508.9184
   5593966.94547   4354000.60344  22929562.0394                   22929558.9024
  -2413356.77048  -1843817.04346  21306823.7504                   21306820.0354
   5599208.86646   4357059.13743  24658747.2664                   24658748.4734
   1975267.27148   1542669.22146  20269962.6254                   20269958.4264
  -1372813.43746  -1043701.65143  24514740.4064                   24514740.1804
 11  8 24 15 42  0.0000000  0 10G03G06G07G10G13G16G19G20G23G08
   1454088.54647   1138932.88446  20995512.9924                   20995511.6914
   3115597.99547   2437127.14445  22636784.7894                   22636784.2704
  -2505985.41347  -1922357.15945  22523443.5944                   22523441.5004
    195229.75947    154102.68344  23975982.6724                   23975981.8984
  -1199994.70948   -905225.24346  20159879.7974                   20159876.7624
   5614384.07447   4369910.02844  22933446.4614                   22933444.6954
  -2524759.32548  -1930624.21146  21285624.2504                   21285620.8714
   5614285.21446   4368806.70443  24661616.2974                   24661617.0944
   1944469.63948   1518671.03946  20264101.6884                   20264097.3524
  -1505885.20447  -1147393.86344  24489418.0004                   24489416.7544
 11  8 24 15 42 30.0000000  0 10G03G06G07G10G13G16G19G20G23G08
   1416869.93347   1109931.36346  20988430.7734                   20988428.7114
   3104001.16747   2428090.64144  22634578.2974                   22634576.7344
  -2630531.77847  -2019406.24745  22499742.9064                   22499740.9264
    131662.25646    104569.54844  23963885.4064                   23963885.5204
  -1286856.62748   -972909.83946  20143350.5164                   20143347.5664
   5634848.52847   4385856.31244  22937340.5314                   22937338.6094
  -2635639.01548  -2017023.96746  21264524.8754                   21264521.1174
   5629211.40546   4380437.31342  24664457.0554                   24664457.4804
   1914223.21048   1495102.36046  20258346.1024                   20258341.5984
  -1639034.28146  -1251146.29743  24464080.5004                   24464079.9064
 11  8 24 15 43  0.0000000  0 10G03G06G07G10G13G16G19G20G23G08
   1380250.04847   1081396.40545  20981462.2974                   20981460.6214
   3092865.36047   2419413.36644  22632459.4064                   22632457.2274
  -2755075.71747  -2116453.45645  22476042.8594                   22476040.8754
     68556.00146     55395.86344  23951876.9924                   23951876.7464
  -1373179.33948  -1040174.30046  20126923.9384                   20126920.6374
   5655356.93746   4401836.86144  22941243.8284                   22941240.9574
  -2745994.95748  -2103015.61046  21243524.8204                   21243521.3594
   5643983.92846   4391948.19243  24667268.2584                   24667267.7774
   1884526.19248   1471961.79846  20252695.4614                   20252690.6994
  -1772262.06947  -1354960.15043  24438728.3594                   24438727.9344
 11  8 24 15 43 30.0000000  0 10G03G06G07G10G13G16G19G20G23G08
   1344225.53547   1053325.34045  20974606.8204                   20974605.1724
   3082186.50347   2411092.15645  22630426.9144                   22630425.4264
  -2879618.76747  -2213499.96345  22452342.8364                   22452341.3324
      5907.86347      6579.05444  23939955.5004                   23939955.2034
  -1458963.49248  -1107019.10346  20110599.5864                   20110596.7504
   5675905.37946   4417848.55544  22945153.8444                   22945151.6134
  -2855827.18348  -2188599.15946  21222624.2664                   21222620.0904
   5658598.35446   4403335.86243  24670049.8284                   24670050.9654
   1855375.93948   1449247.28846  20247148.1414                   20247143.6844
  -1905570.93746  -1458837.12643  24413359.6484                   24413359.0864
 11  8 24 15 44  0.0000000  0 10G03G06G07G10G13G16G19G20G23G08
   1308793.57447   1025716.02045  20967864.4304                   20967863.2624
   3071961.33047   2403124.46745  22628480.8524                   22628479.7624
  -3004162.16647  -2310546.74745  22428643.2424                   22428640.9264
    -56285.08047    -41882.98644  23928119.9694                   23928120.0514
  -1544209.20648  -1173444.33946  20094378.0394                   20094375.1294
   5696490.32946   4433888.73444  22949070.9694                   22949068.8524
  -2965135.15548  -2273774.18046  21201824.1334                   21201820.1764
   5673050.47946   4414597.05243  24672799.3754                   24672800.5354
   1826770.25148   1426957.13046  20241704.6334                   20241700.0274
  -2038962.61246  -1562778.62843  24387976.2584                   24387975.8714
 11  8 24 15 44 30.0000000  0 10G03G06G07G10G13G16G19G20G23G08
   1273953.28947    998567.72546  20961234.7894                   20961233.5084
   3062187.92347   2395508.79545  22626621.5944                   22626620.0204
  -3128705.48047  -2407593.46845  22404943.8134                   22404941.2114
   -118023.92647    -89991.21544  23916372.0784                   23916371.9414
  -1628915.25148  -1239449.04846  20078258.7974                   20078255.8954
   5717109.59647   4449955.66444  22952995.1174                   22952992.2814
  -3073916.85848  -2358539.13246  21181123.0084                   21181119.3524
   5687338.17446   4425730.22643  24675518.3834                   24675520.0704
   1798708.30748   1405090.64546  20236364.7504                   20236359.8674
  -2172436.99746  -1666784.60543  24362577.3364                   24362576.5864
 11  8 24 15 45  0.0000000  0 10G03G06G07G10G13G16G19G20G23G08
   1239702.60247    971878.86645  20954716.9694                   20954715.3914
   3052863.23047   2388242.77245  22624847.3754                   22624845.7854
  -3253249.34847  -2504640.61245  22381243.5474                   22381241.8984
   -179311.06647   -137747.45944  23904709.1174                   23904709.0394
  -1713081.35448  -1305033.02746  20062242.5004                   20062239.7464
   5737760.41046   4466047.15444  22956924.5554                   22956921.4454
  -3182171.79448  -2442893.61946  21160522.9454                   21160519.6804
   5701458.28246   4436732.68343  24678205.9924                   24678207.4104
   1771188.18948   1383646.37946  20231127.9534                   20231123.3524
  -2305995.55446  -1770856.12943  24337161.5164                   24337161.0004
 11  8 24 15 45 30.0000000  0 10G03G06G07G10G13G16G19G20G23G08
   1206038.57847    945647.14546  20948310.8054                   20948309.0904
   3043983.95147   2381323.81744  22623156.7194                   22623155.8754
  -3377794.78047  -2601688.98545  22357543.3364                   22357540.9774
   -240149.21247   -185153.84444  23893132.4614                   23893131.7814
  -1796707.52348  -1370196.29046  20046329.0864                   20046326.2854
   5758438.92247   4482160.25244  22960859.4384                   22960857.0474
  -3289899.10548  -2526836.96246  21140023.4694                   21140019.7894
   5715406.30546   4447601.12343  24680860.2034                   24680861.2464
   1744207.57248   1362622.49646  20225993.6094                   20225989.1414
  -2439640.18546  -1874994.70743  24311729.4304                   24311730.0554
 11  8 24 15 46  0.0000000  0 10G03G06G07G10G13G16G19G20G23G08
   1172958.00347    919870.06445  20942015.7504                   20942014.4264
   3035546.34047   2374749.04145  22621551.5864                   22621550.6214
  -3502343.44047  -2698739.85145  22333842.7114                   22333840.1684
   -300541.55147   -232212.79444  23881639.9694                   23881640.3914
  -1879794.36848  -1434939.29246  20030518.3204                   20030515.6094
   5779141.24246   4498291.87944  22964799.1254                   22964796.3324
  -3397098.71648  -2610369.11546  21119623.7584                   21119620.8754
   5729178.38546   4458332.44143  24683481.3444                   24683482.3134
   1717763.80648   1342016.93846  20220961.4064                   20220956.9614
  -2573373.03546  -1979202.12243  24286280.8054                   24286281.4494
 11  8 24 15 46 30.0000000  0 10G03G06G07G10G13G16G19G20G23G08
   1140459.68248    894546.70045  20935831.6484                   20935830.3914
   3027548.22547   2368516.70344  22620029.6484                   22620028.5124
  -3626894.67847  -2795792.75445  22310140.9694                   22310139.0354
   -360489.46547   -278925.52244  23870232.1724                   23870232.3204
  -1962340.97648  -1499261.33346  20014810.0944                   20014807.4344
   5799865.67046   4514440.73244  22968742.7034                   22968740.8204
  -3503768.63248  -2693488.50946  21099325.4534                   21099321.4414
   5742772.33946   4468924.94143  24686068.4614                   24686069.3204
   1691855.98448   1321829.00346  20216031.1414                   20216027.2664
  -2707194.15546  -2083478.21743  24260815.9694                   24260815.4384
 11  8 24 15 47  0.0000000  0 10G03G06G07G10G13G16G19G20G23G08
   1108539.79948    869674.05645  20929757.9064                   20929756.3134
   3019985.23747   2362623.44644  22618590.4774                   22618588.8284
  -3751450.47247  -2892849.17245  22286439.4454                   22286436.8594
   -419996.85647   -325294.96343  23858908.9844                   23858908.0044
  -2044348.56148  -1563163.35146  19999204.4454                   19999201.4494
   5820607.34946   4530603.01944  22972690.2664                   22972686.9534
  -3609909.89448  -2776195.97146  21079126.9614                   21079123.3954
   5756183.21246   4479374.76743  24688620.1644                   24688621.7894
   1666480.39848   1302055.79846  20211202.4384                   20211197.8874
  -2841106.17646  -2187825.21843  24235333.1804                   24235333.2114
 11  8 24 15 47 30.0000000  0 10G03G06G07G10G13G16G19G20G23G08
   1077193.73548    845248.53845  20923792.4384                   20923790.9264
   3012852.47447   2357065.41044  22617233.1884                   22617231.4924
  -3876013.54847  -2989911.29845  22262735.4144                   22262733.3324
   -479068.08447   -371324.50044  23847668.3914                   23847668.5164
  -2125818.61448  -1626646.51247  19983701.5394                   19983698.6254
   5841361.64846   4546775.11644  22976639.6414                   22976637.3094
  -3715523.60748  -2858492.35046  21059029.6094                   21059025.7464
   5769405.52446   4489677.77643  24691136.1564                   24691137.4184
   1641633.77348   1282694.75746  20206474.2894                   20206469.7734
  -2975112.36946  -2292245.51843  24209832.1174                   24209832.1254
 11  8 24 15 48  0.0000000  0 10G03G06G07G10G13G16G19G20G23G08
   1046421.40448    821270.10245  20917936.6954                   20917935.2664
   3006148.93547   2351841.84044  22615957.5314                   22615956.6644
  -4000582.15847  -3086977.72845  22239030.7894                   22239028.9884
   -537703.55347   -417014.49044  23836509.6884                   23836509.5084
  -2206748.79048  -1689709.00146  19968300.9064                   19968298.1054
   5862127.59047   4562956.34744  22980591.4844                   22980588.3364
  -3820606.74448  -2940375.29346  21039032.8594                   21039029.0474
   5782438.32046   4499832.89043  24693616.3834                   24693618.2424
   1617315.94448   1263745.78046  20201846.8914                   20201842.4884
  -3109211.77446  -2396738.48143  24184314.1334                   24184314.2734
 11  8 24 15 48 30.0000000  0 10G03G06G07G10G13G16G19G20G23G08
   1016220.33648    797736.79045  20912189.8984                   20912188.3324
   2999871.56247   2346950.34045  22614763.0084                   22614761.7854
  -4125156.98547  -3184048.98945  22215324.9844                   22215322.4384
   -595905.83347   -462366.95943  23825434.1094                   23825434.1484
  -2287139.16048  -1752350.85846  19953003.2974                   19953000.5944
   5882902.16246   4579144.26543  22984544.3204                   22984541.2974
  -3925158.42748  -3021844.12246  21019137.2274                   21019133.3364
   5795278.21946   4509837.85843  24696060.9924                   24696061.9304
   1593524.75948   1245207.16946  20197319.3834                   20197315.4104
  -3243406.01346  -2501305.38343  24158777.8754                   24158777.4804
 11  8 24 15 49  0.0000000  0  9G03G06G07G10G13G16G19G23G08
    986588.72248    774647.20745  20906550.7424                   20906549.2814
   2994017.74447   2342388.88944  22613649.4304                   22613647.7664
  -4249738.05347  -3281125.12545  22191617.7584                   22191616.0514
   -653676.71847   -507383.27443  23814440.6254                   23814440.2114
  -2366989.04348  -1814571.56046  19937808.1094                   19937805.7154
   5903682.57046   4595336.72143  22988498.6644                   22988496.3404
  -4029177.75448  -3102898.11946  20999342.8524                   20999339.5784
   1570258.77648   1227077.80346  20192892.3134                   20192887.6804
  -3377695.66446  -2605946.60543  24133223.3834                   24133223.2344
 11  8 24 15 49 30.0000000  0  9G03G06G07G10G13G16G19G23G08
    957528.23148    752002.65545  20901020.8594                   20901019.3674
   2988588.82247   2338158.52345  22612615.7664                   22612614.9184
  -4374321.63147  -3378203.22145  22167910.1254                   22167908.4774
   -711014.23047   -552061.85744  23803529.4144                   23803529.5004
  -2446293.92848  -1876367.58247  19922717.2274                   19922714.3094
   5924470.55346   4611535.12943  22992454.2034                   22992452.1294
  -4132659.58548  -3183533.28246  20979651.0084                   20979647.5314
   1547520.18348   1209359.38846  20188565.3134                   20188560.7114
  -3512077.63546  -2710659.76043  24107651.1884                   24107651.4574
 11  8 24 15 50  0.0000000  0  9G03G06G07G10G13G16G19G23G08
    929040.80348    729804.65145  20895600.0394                   20895597.9734
   2983586.36947   2334260.46844  22611664.3754                   22611663.0164
  -4498903.40947  -3475279.91445  22144203.3054                   22144201.0274
   -767916.00047   -596400.95543  23792701.9774                   23792701.8484
  -2525049.06148  -1937735.23546  19907730.3754                   19907727.6254
   5945267.85346   4627740.73143  22996413.0474                   22996409.6454
  -4235598.37648  -3263745.32146  20960062.9924                   20960058.9454
   1525311.80148   1192054.13146  20184339.1804                   20184334.6764
  -3646547.92746  -2815441.80043  24082062.7034                   24082062.0824
 11  8 24 15 50 30.0000000  0  9G03G06G07G10G13G16G19G23G08
    901122.11048    708049.82445  20890287.3054                   20890285.5394
   2979005.36847   2330690.79144  22610792.3364                   22610791.3094
  -4623485.85147  -3572357.10345  22120495.9924                   22120493.2704
   -824386.88147   -640404.26443  23781956.2344                   23781955.5594
  -2603256.37148  -1998676.00146  19892848.0864                   19892845.3794
   5966069.38646   4643949.66943  23000370.9924                   23000368.1024
  -4337995.37848  -3343535.16946  20940576.8914                   20940573.3914
   1503629.52148   1175158.81846  20180212.9064                   20180208.8714
  -3781110.02446  -2920295.31243  24056455.5554                   24056455.4384
 11  8 24 15 51  0.0000000  0  9G03G06G07G10G13G16G19G23G08
   2449191.36748   1914337.54345  21184874.9534                   21184873.3284
   4550263.51247   3555047.73944  22909793.2344                   22909791.7934
  -3172644.60547  -2441831.44245  22396582.0474                   22396579.7774
    694993.30646    543528.29843  24071083.6484                   24071084.2544
  -1105492.87848   -831587.56646  20177862.9694                   20177860.4384
   7562292.26146   5887759.63743  23304121.6024                   23304119.9304
  -2864426.08548  -2195299.34846  21220987.9844                   21220983.9924
   3057892.66048   2386272.91746  20475979.4844                   20475975.8164
  -2340339.79746  -1797617.15243  24330625.0784                   24330624.4184
 11  8 24 15 51 30.0000000  0  9G03G06G07G10G13G16G19G23G08
   2422404.32848   1893464.51845  21179777.9224                   21179776.1764
   4546517.49647   3552128.75044  22909080.1804                   22909078.6524
  -3297228.42047  -2538909.72545  22372874.3444                   22372872.4384
    639378.23047    500191.82043  24060501.0234                   24060501.7934
  -1182603.12648   -891673.48446  20163189.3914                   20163186.3054
   7583095.14246   5903969.63243  23308080.8984                   23308078.4844
  -2965736.34148  -2274242.38446  21201709.3834                   21201705.6054
   3037257.61148   2370193.64346  20472052.6564                   20472048.2664
  -2475087.32346  -1902615.19543  24304983.9144                   24304983.0474
 11  8 24 15 52  0.0000000  0  9G03G06G07G10G13G16G19G23G08
   2396172.73348   1873024.30445  21174785.5784                   21174783.9494
   4543177.55247   3549526.14544  22908444.7664                   22908443.5704
  -3421820.42447  -2635994.37845  22349165.2344                   22349162.9964
    584180.40246    457180.50543  24049997.8594                   24049996.8014
  -1259171.55448   -951337.21746  20148619.1484                   20148616.0944
   7603887.53446   5920171.46643  23312037.4844                   23312034.6804
  -3066509.01648  -2352766.52546  21182532.8834                   21182528.7974
   3017136.18948   2354514.57646  20468223.8054                   20468219.7274
  -2609936.01446  -2007692.00543  24279322.6174                   24279322.4104
 11  8 24 15 52 30.0000000  0 10G03G06G07G10G13G16G19G11G23G08
   2370486.72248   1853009.21945  21169898.4224                   21169896.4924
   4540233.77947   3547232.27245  22907884.4534                   22907883.5274
  -3546427.93147  -2733091.12145  22325453.2664                   22325450.7734
    529390.47846    414487.04343  24039571.2424                   24039570.6724
  -1335205.06048  -1010584.11946  20134150.1094                   20134147.8244
   7624660.03446   5936357.70343  23315990.5394                   23315988.7974
  -3166750.44748  -2430876.72046  21163457.5084                   21163453.5514
   6020404.67256   4718391.39553  24863495.3594                   24863496.1724
   2997519.33948   2339228.68346  20464490.8444                   20464486.5864
  -2744893.83246  -2112853.87143  24253641.0634                   24253641.0004
 11  8 24 15 53  0.0000000  0 10G03G06G07G10G13G16G19G11G23G08
   2345335.41348   1833410.78145  21165112.0164                   21165110.7854
   4537675.09347   3545238.44344  22907397.6334                   22907396.6954
  -3671059.20747  -2830206.37245  22301736.7664                   22301734.5124
    474997.98946    372103.26343  24029220.4224                   24029221.0124
  -1410711.55548  -1069420.36846  20119781.5864                   20119779.0984
   7645401.43346   5952519.76043  23319937.3364                   23319934.7344
  -3266467.77948  -2508578.52746  21144481.7664                   21144478.3484
   5878946.42446   4608164.29243  24836576.1644                   24836577.7304
   2978396.99848   2324328.14346  20460852.4774                   20460848.2504
  -2879970.15146  -2218108.10443  24227936.8284                   24227936.6334
 11  8 24 15 53 30.0000000  0 10G03G06G07G10G13G16G19G11G23G08
   2320717.47748   1814227.95145  21160427.5864                   21160425.2704
   4535498.89547   3543542.64044  22906983.5234                   22906982.2814
  -3795713.92847  -2927339.90045  22278015.6564                   22278013.2894
    421001.35846    330027.91943  24018944.8524                   24018945.3954
  -1485690.02748  -1127845.17346  20105513.7344                   20105511.6214
   7666110.01146   5968656.24943  23323877.4774                   23323875.1024
  -3365660.11747  -2585871.26046  21125605.9694                   21125602.3794
   5737280.92346   4497775.68043  24809618.9694                   24809618.7974
   2959767.78948   2309811.84546  20457307.5864                   20457303.1914
  -3015164.96847  -2323454.67243  24202210.4144                   24202210.1884
 11  8 24 15 54  0.0000000  0 10G03G06G07G10G13G16G19G11G23G08
   2296635.77948   1795462.97645  21155844.9304                   21155843.3284
   4533707.69147   3542146.86844  22906642.4694                   22906641.8054
  -3920386.89747  -3024487.64745  22254290.6724                   22254288.5824
    367403.12846    288263.00243  24008746.3284                   24008745.4264
  -1560135.49148  -1185854.63846  20091347.4144                   20091344.9064
   7686788.24346   5984769.12343  23327812.9614                   23327809.8524
  -3464321.24948  -2662750.05346  21106831.3594                   21106827.4884
   5595414.33946   4387230.35943  24782622.7894                   24782623.7424
   2941634.76248   2295682.18146  20453856.6954                   20453852.4224
  -3150474.22846  -2428890.39843  24176462.2584                   24176461.3984
 11  8 24 15 54 30.0000000  0 10G03G06G07G10G13G16G19G11G23G08
   2273084.10347   1777111.01345  21151363.4614                   21151361.3984
   4532294.76647   3541045.86544  22906374.0164                   22906372.6054
  -4045082.11847  -3121652.74945  22230562.5234                   22230560.3444
    314197.45346    246803.95643  23998621.4534                   23998621.1334
  -1634051.22948  -1243451.33346  20077281.8984                   20077279.2114
   7707429.79146   6000853.36543  23331741.1804                   23331737.9534
  -3562453.95347  -2739217.08446  21088157.8134                   21088153.9844
   5453345.00346   4276527.13543  24755587.3984                   24755588.1884
   2923992.81448   2281935.18746  20450499.5234                   20450495.3794
  -3285902.07746  -2534418.52543  24150690.9694                   24150689.2074
 11  8 24 15 55  0.0000000  0 11G03G06G07G10G13G16G19G11G23G08G28
   2250054.29148   1759165.68745  21146980.1884                   21146979.0944
   4531252.17047   3540233.41444  22906175.6334                   22906173.9414
  -4169805.10747  -3218839.45545  22206828.1724                   22206825.7464
    261376.17146    205644.52043  23988569.8134                   23988570.3714
  -1707442.41648  -1300639.28846  20063316.0004                   20063313.2234
   7728026.85746   6016903.01543  23335660.8364                   23335657.8674
  -3660062.77547  -2815275.89946  21069583.1094                   21069579.2114
   5311068.25446   4165662.32843  24728512.8204                   24728512.1024
   2906834.12048   2268564.74846  20447234.2114                   20447230.1804
  -3421454.87846  -2640044.02543  24124895.3674                   24124895.0784
   6019724.43556   4713626.59953  24679564.1174                   24679564.2194
 11  8 24 15 55 30.0000000  0 11G03G06G07G10G13G16G19G11G23G08G28
   2227541.73347   1741623.40745  21142696.5004                   21142695.5474
   4530574.29847   3539705.18944  22906046.6334                   22906045.0204
  -4294558.14747  -3316049.61345  22183088.6644                   22183086.4804
    208934.74446    164781.01543  23978590.7114                   23978589.4654
  -1780311.54048  -1357420.42646  20049449.1804                   20049446.8094
   7748574.66746   6032914.23843  23339570.7274                   23339568.6994
  -3757149.64447  -2890927.99346  21051108.3364                   21051104.6684
   5168583.44846   4054635.33843  24701399.2114                   24701399.0784
   2890154.20148   2255567.36646  20444060.2504                   20444055.7584
  -3557135.76446  -2745769.38243  24099076.6804                   24099075.8794
   5878514.42446   4603592.95143  24652692.2194                   24652691.9574
 11  8 24 15 56  0.0000000  0 11G03G06G07G10G13G16G19G11G23G08G28
   2205545.72748   1724483.63245  21138510.7894                   21138509.3674
   4530259.94947   3539460.18944  22905986.6334                   22905985.4104
  -4419339.88347  -3413282.11345  22159343.2894                   22159341.0124
    156872.33046    124212.89443  23968683.8284                   23968683.1214
  -1852656.70048  -1413793.29747  20035682.7894                   20035679.7544
   7769072.05046   6048886.16943  23343471.5474                   23343468.5704
  -3853712.37147  -2966171.66846  21032732.3754                   21032728.9734
   5025893.64946   3943448.53843  24674246.3204                   24674247.3134
   2873952.84448   2242942.90946  20440977.2424                   20440973.1564
  -3692943.61246  -2851593.62343  24073232.3674                   24073233.0204
   5737463.49946   4493683.12743  24625850.9844                   24625850.7194
 11  8 24 15 56 30.0000000  0 11G03G06G07G10G13G16G19G11G23G08G28
   2184062.00848   1707743.06645  21134422.6644                   21134420.8714
   4530304.44947   3539494.84144  22905995.3444                   22905993.9574
  -4544152.05247  -3510538.32945  22135592.4924                   22135589.9924
    105184.89346     83936.93843  23958847.9694                   23958848.8244
  -1924479.54948  -1469759.16446  20022014.9924                   20022012.6054
   7789514.97246   6064815.69743  23347362.1804                   23347359.4224
  -3949751.64947  -3041007.46946  21014457.0704                   21014453.2584
   4882998.63146   3832101.82842  24647053.0234                   24647054.6254
   2858226.31548   2230688.44146  20437984.6024                   20437980.3634
  -3828881.21646  -2957518.97943  24047364.4694                   24047364.4494
   5596569.71046   4383895.80243  24599040.0084                   24599039.4304
 11  8 24 15 57  0.0000000  0 11G03G06G07G10G13G16G19G11G23G08G28
   2163095.23648   1691405.29545  21130433.2344                   21130431.5234
   4530712.43547   3539812.69544  22906072.7504                   22906072.0274
  -4668987.03847  -3607812.33445  22111837.0944                   22111835.3874
     53877.75846     43957.39943  23949084.7664                   23949084.0514
  -1995772.35348  -1525312.01846  20008448.7504                   20008445.8164
   7809908.67546   6080706.77543  23351241.6174                   23351240.2584
  -4045259.31547  -3115429.02146  20996282.6484                   20996278.9574
   4739907.47246   3720602.20742  24619824.3204                   24619823.5594
   2842979.91848   2218808.10346  20435083.3284                   20435079.1024
  -3964941.61446  -3063540.03043  24021473.4224                   24021472.7194
   5455839.90546   4274236.19843  24572259.8914                   24572259.6454
 11  8 24 15 57 30.0000000  0 11G03G06G07G10G13G16G19G11G23G08G28
   2142645.20248   1675470.18545  21126541.3284                   21126539.6334
   4531482.97547   3540413.10244  22906219.3444                   22906218.5664
  -4793842.78847  -3705102.50545  22088078.0634                   22088075.2814
      2950.15146      4273.42143  23939392.8594                   23939392.7854
  -2066533.49148  -1580450.57146  19994983.2344                   19994979.9494
   7830252.44046   6096559.00843  23355113.4774                   23355111.4844
  -4140232.93648  -3189434.43246  20978209.6724                   20978206.6564
   4596623.59146   3608952.46942  24592558.7894                   24592555.2504
   2828213.48348   2207301.75446  20432273.5474                   20432269.2704
  -4101123.72946  -3169655.90443  23995558.3834                   23995558.4964
   5315275.98146   4164705.91143  24545511.1804                   24545511.7734
 11  8 24 15 58  0.0000000  0 11G03G06G07G10G13G16G19G11G23G08G28
   2122708.78848   1659935.28445  21122747.4064                   21122746.1644
   4532612.56847   3541293.26944  22906434.7114                   22906433.3594
  -4918720.04847  -3802409.45045  22064314.7814                   22064312.2774
    -47600.79846    -35116.92443  23929774.2584                   23929773.3674
  -2136763.12248  -1635174.97746  19981619.1414                   19981616.5744
   7850543.45746   6112370.09743  23358973.6644                   23358972.2974
  -4234672.28048  -3263023.52046  20960238.8364                   20960235.2894
   4453148.35746   3497153.57042  24565255.0944                   24565253.1564
   2813924.36048   2196167.33146  20429554.3444                   20429550.1214
  -4237428.67746  -3275867.54143  23969621.1804                   23969619.8754
   5174877.16446   4055304.24543  24518795.0164                   24518794.5514
 11  8 24 15 58 30.0000000  0 11G03G06G07G10G13G16G19G11G23G08G28
   2103286.57048   1644801.05545  21119052.0234                   21119050.0554
   4534101.10747   3542453.14144  22906717.6724                   22906715.9844
  -5043616.07147  -3899731.00045  22040547.3914                   22040545.4304
    -97774.73346    -74213.50443  23920226.1724                   23920224.8014
  -2206458.27348  -1689482.89446  19968356.4614                   19968353.6054
   7870782.05246   6128140.36143  23362825.8204                   23362822.9654
  -4328573.85948  -3336193.58146  20942369.7034                   20942365.2814
   4309485.47045   3385208.57842  24537916.9844                   24537917.8634
   2800113.50948   2185405.59046  20426926.0784                   20426922.0474
  -4373854.55647  -3382173.36144  23943660.0554                   23943659.6954
   5034645.70846   3946033.07243  24492109.8134                   24492109.7584
 11  8 24 15 59  0.0000000  0 11G03G06G07G10G13G16G19G11G23G08G28
   2084374.93847   1630064.69945  21115452.8984                   21115450.6214
   4535944.88447   3543889.83344  22907068.6414                   22907067.3244
  -5168531.40347  -3997067.63345  22016777.1564                   22016774.7194
   -147574.83646   -113018.83043  23910749.3524                   23910749.0944
  -2275619.78048  -1743374.98146  19955195.6724                   19955192.7894
   7890965.20046   6143867.44743  23366667.1644                   23366664.2114
  -4421937.86248  -3408944.73646  20924603.3204                   20924599.2544
   4165636.36846   3273118.42242  24510544.3364                   24510544.3954
   2786778.13048   2175014.34846  20424388.5234                   20424384.1524
  -4510402.58947  -3488574.38743  23917676.0944                   23917674.9654
   4894580.60846   3836891.43943  24465454.8054                   24465455.0634
 11  8 24 15 59 30.0000000  0 11G03G06G07G10G13G16G19G11G23G08G28
   2065973.19148   1615725.63745  21111951.2894                   21111949.5474
   4538142.94847   3545602.55044  22907487.2584                   22907485.9264
  -5293464.12747  -4094417.80245  21993003.2734                   21993000.7154
   -197001.75446   -151533.40343  23901343.9844                   23901343.5514
  -2344245.76048  -1796849.78146  19942135.9534                   19942133.4024
   7911092.28446   6159550.79043  23370497.5164                   23370494.8484
  -4514761.82348  -3481275.09846  20906939.0314                   20906935.3954
   4021604.35546   3160885.73143  24483135.9304                   24483135.0984
   2773917.97848   2164993.40946  20421941.7114                   20421936.8364
  -4647071.43946  -3595069.55944  23891668.0634                   23891667.8754
   4754683.52046   3727880.81143  24438834.3984                   24438834.3164
 11  8 24 16  0  0.0000000  0 11G03G06G07G10G13G16G19G11G23G08G28
   2048085.57447   1601787.20845  21108547.2734                   21108546.0744
   4540699.03147   3547594.28644  22907972.9384                   22907972.4654
  -5418407.28747  -4191776.08645  21969227.1254                   21969224.7704
   -246051.25246   -189753.77043  23892010.0084                   23892009.4804
  -2412329.41548  -1849901.99046  19929180.4774                   19929178.0004
   7931167.89246   6175194.08143  23374317.2974                   23374314.8834
  -4607038.48248  -3553178.99546  20889379.6254                   20889375.7894
   3877397.98746   3048517.14743  24455694.1954                   24455694.8714
   2761537.61648   2155346.35346  20419585.3444                   20419581.3554
  -4783855.03646  -3701654.08543  23865639.1644                   23865639.1054
   4614960.83246   3619006.02643  24412246.1884                   24412246.1414
 11  8 24 16  0 30.0000000  0 11G03G06G07G10G13G16G19G11G23G08G28
   2030704.28947   1588243.31545  21105239.5704                   21105238.2344
   4543605.01347   3549858.65244  22908526.6724                   22908526.1564
  -5543366.23347  -4289146.67645  21945448.4144                   21945446.0944
   -294730.81546   -227685.91643  23882747.3364                   23882746.2034
  -2479875.76248  -1902535.52246  19916327.3524                   19916324.2664
   7951184.44546   6190791.31043  23378126.8134                   23378123.7974
  -4698772.40548  -3624659.96746  20871923.5164                   20871919.7974
   3733013.38347   2936009.72244  24428219.0004                   24428219.3594
   2749629.59448   2146067.33246  20417319.7194                   20417315.6644
  -4920759.17446  -3808332.61043  23839587.0944                   23839586.8754
   4475406.88746   3510262.75843  24385689.5704                   24385688.6374
 11  8 24 16  1  0.0000000  0 11G03G06G07G10G13G16G19G11G23G08G28
   2013830.82247   1575095.13745  21102029.2664                   21102027.3954
   4546862.11847   3552396.61344  22909146.1564                   22909145.5984
  -5668336.69847  -4386526.26045  21921667.3674                   21921665.1804
   -343039.11446   -265328.83943  23873553.8364                   23873553.4264
  -2546881.47748  -1954747.77446  19903576.0864                   19903573.3834
   7971143.69246   6206343.88543  23381924.2274                   23381922.1524
  -4789958.98148  -3695714.42846  20854571.0234                   20854566.3714
   3588456.31447   2823367.88844  24400710.5784                   24400711.3794
   2738195.75248   2137157.80246  20415143.6954                   20415139.4454
  -5057780.32546  -3915102.27743  23813512.5474                   23813512.3914
   4336025.48046   3401653.91243  24359167.1334                   24359164.8364
 11  8 24 16  1 30.0000000  0 11G03G06G07G10G13G16G19G11G23G08G28
   1997461.99547   1562340.17545  21098914.0944                   21098912.1024
   4550466.25347   3555205.03444  22909832.8364                   22909831.1644
  -5793319.35147  -4483915.32945  21897884.0004                   21897881.5164
   -390979.64846   -302685.07843  23864431.2424                   23864430.9774
  -2613346.87248  -2006539.00546  19890928.7504                   19890926.1214
   7991042.78746   6221849.59944  23385711.0784                   23385708.5594
  -4880598.60748  -3766342.69946  20837322.9144                   20837318.8324
   3443727.77647   2710592.47144  24373169.5784                   24373169.9344
   2727233.31348   2128615.61246  20413057.4614                   20413053.8594
  -5194919.99646  -4021964.29344  23787416.4064                   23787414.8324
   4196815.20446   3293178.41743  24332675.4844                   24332674.3134
 11  8 24 16  2  0.0000000  0 11G03G06G07G10G13G16G19G11G23G08G28
   3557011.35047   2777573.42645  21395686.4694                   21395684.7624
   6129830.16147   4785878.15544  23210374.5554                   23210373.5084
  -4342894.30347  -3353713.99045  22173890.5164                   22173888.2544
   1136862.57946    887841.33343  24155169.8284                   24155168.6414
  -1103854.48248   -830311.19446  20178174.6724                   20178172.1334
   9586293.94846   7464902.40843  23689277.2974                   23689275.4184
  -3395272.27948  -2608945.54546  21119971.2504                   21119967.2034
   4874249.81347   3825285.00144  24645388.6334                   24645388.9264
   4292155.85948   3348035.74646  20710852.7034                   20710848.6024
  -3756758.69846  -2901319.04443  24061089.1174                   24061088.6764
   5633196.01546   4412436.28543  24606009.0554                   24606008.8134
 11  8 24 16  2 30.0000000  0 11G03G06G07G10G13G16G19G11G23G08G28
   3541638.96747   2765594.91845  21392761.1094                   21392759.3914
   6134115.71746   4789217.47144  23211190.2504                   23211189.2664
  -4467904.95547  -3451124.85746  22150102.1254                   22150099.8914
   1089646.34446    851049.37143  24146184.5554                   24146184.4884
  -1169244.22648   -881264.24746  20165731.8444                   20165729.1564
   9606061.04446   7480305.27743  23693039.7424                   23693037.7854
  -3484820.68748  -2678723.52746  21102930.7424                   21102926.7274
   4729179.15047   3712243.01444  24617782.5084                   24617783.1564
   4282125.10548   3340219.53446  20708943.5634                   20708939.8794
  -3894141.36247  -3008370.41643  24034946.1484                   24034945.7504
   5494322.97646   4304223.51443  24579582.9064                   24579582.4964
 11  8 24 16  3  0.0000000  0 11G03G06G07G10G13G16G19G11G23G08G28
   3526765.32647   2754005.05845  21389930.6174                   21389929.4104
   6138741.64847   4792822.04744  23212071.2974                   23212070.4844
  -4592925.45847  -3548543.42045  22126311.1334                   22126308.9384
   1042792.78046    814540.04243  24137269.2894                   24137268.5744
  -1234091.96848   -931794.99146  20153391.5634                   20153388.6684
   9625763.19746   7495657.51243  23696788.6644                   23696786.2854
  -3573818.52848  -2748072.47546  21085994.8594                   21085990.8754
   4583944.15547   3599072.98044  24590144.9924                   24590145.6524
   4272560.96748   3332766.91946  20707124.2584                   20707119.7624
  -4031641.92446  -3115513.71643  24008780.6954                   24008780.1024
   5355622.25946   4196145.08243  24553188.6414                   24553188.1254
 11  8 24 16  3 30.0000000  0 11G03G06G07G10G13G16G19G11G23G08G28
   3512386.64647   2742800.85545  21387194.7584                   21387193.3054
   6143704.12047   4796688.84644  23213015.9144                   23213015.0124
  -4717956.44747  -3645970.15246  22102518.9614                   22102516.8674
    996298.53146    778310.81343  24128421.6484                   24128421.4344
  -1298398.88848   -981904.28247  20141154.4384                   20141151.8134
   9645397.11446   7510956.63443  23700524.0704                   23700522.0354
  -3662266.75048  -2816993.14746  21069163.7504                   21069159.8364
   4438545.04647   3485774.99244  24562476.6174                   24562477.1254
   4263460.23648   3325675.41446  20705391.6644                   20705387.8284
  -4169262.01447  -3222750.06643  23982592.0864                   23982590.9264
   5217092.25046   4088199.61843  24526827.4694                   24526826.1994
 11  8 24 16  4  0.0000000  0 11G03G06G07G10G13G16G19G11G23G08G28
   3498499.51847   2731979.68845  21384552.1884                   21384550.4224
   6148999.32847   4800814.93944  23214023.3984                   23214022.0664
  -4842998.21847  -3743405.28545  22078724.1564                   22078721.9344
    950160.16646    742358.73043  24119641.5084                   24119641.3524
  -1362165.74448  -1031592.75546  20129020.1804                   20129017.2344
   9664959.75746   7526200.13243  23704247.3204                   23704245.1054
  -3750165.48648  -2885485.66546  21052437.1414                   21052433.2814
   4292983.51246   3372350.45143  24534777.6414                   24534777.4844
   4254820.22548   3318942.88946  20703747.8984                   20703743.7624
  -4307003.01247  -3330080.67043  23956380.4454                   23956379.6094
   5078732.30546   3980386.69243  24500498.7734                   24500499.1024
 11  8 24 16  4 30.0000000  0 11G03G06G07G10G13G16G19G11G23G08G28
   3485102.05647   2721540.10245  21382002.9694                   21382001.1054
   6154625.81346   4805199.17844  23215093.9614                   23215092.7814
  -4968049.91947  -3840848.16346  22054927.1024                   22054924.7774
    904375.76547    706682.50943  24110929.7734                   24110929.4534
  -1425391.98048  -1080859.97846  20116988.5944                   20116985.8524
   9684450.07846   7541387.35243  23707956.5394                   23707954.3134
  -3837512.99048  -2953548.63046  21035815.4224                   21035811.9024
   4147262.36346   3258801.62543  24507047.4224                   24507048.0274
   4246639.52448   3312568.28946  20702191.4064                   20702187.3714
  -4444864.15947  -3437504.91743  23930146.8444                   23930145.9844
   4940542.54146   3872706.35343  24474202.2114                   24474201.2934
 11  8 24 16  5  0.0000000  0 11G03G06G07G10G13G16G19G11G23G08G28
   3472192.51047   2711480.66745  21379546.3674                   21379544.3164
   6160580.99846   4809839.53244  23216226.5084                   23216225.4734
  -5093110.14447  -3938297.69246  22031129.1094                   22031126.5514
    858943.70847    671280.89343  24102283.9844                   24102284.2154
  -1488076.90348  -1129705.39646  20105059.9064                   20105056.9494
   9703867.04446   7556517.39343  23711650.7734                   23711649.7384
  -3924308.47748  -3021181.45846  21019298.7974                   21019294.8244
   4001384.08745   3145130.32843  24479286.5474                   24479287.6024
   4238916.61148   3306550.38546  20700721.5554                   20700717.9964
  -4582845.35547  -3545022.70843  23903889.9454                   23903889.0514
   4802523.72846   3765159.23543  24447937.8674                   24447937.3204
 11  8 24 16  5 30.0000000  0 11G03G06G07G10G13G16G19G11G23G08G28
   3459768.31047   2701799.44745  21377182.3204                   21377180.0784
   6166862.05847   4814733.82444  23217422.5554                   23217421.5474
  -5218178.24747  -4035753.34346  22007329.5394                   22007327.8014
    813862.00047    636152.23643  24093705.0394                   24093705.1804
  -1550220.25648  -1178128.81846  20093234.1884                   20093231.3554
   9723208.38046   7571588.46443  23715330.9224                   23715330.4064
  -4010551.25548  -3088383.61746  21002887.1024                   21002882.8244
   3855350.51345   3031338.03043  24451500.3204                   24451497.0394
   4231649.57648   3300887.71846  20699338.8284                   20699334.6054
  -4720946.68547  -3652634.11643  23877609.8524                   23877609.5314
   4664675.47646   3657745.05843  24421706.0634                   24421705.6524
 11  8 24 16  6  0.0000000  0 11G03G06G07G10G13G16G19G11G23G08G28
   3447826.92947   2692494.44545  21374909.5234                   21374908.1454
   6173466.32747   4819879.94644  23218678.9844                   23218678.3754
  -5343254.30047  -4133215.17546  21983528.0554                   21983526.1374
    769127.90247    601294.45543  24085192.8054                   24085191.6844
  -1611822.30948  -1226130.42846  20081512.1884                   20081509.5434
   9742472.10746   7586599.11743  23718997.2894                   23718996.1094
  -4096241.07448  -3155154.87846  20986581.1564                   20986576.9694
   3709163.64145   2917426.21942  24423678.7194                   24423679.7194
   4224836.01948   3295578.41546  20698042.2814                   20698037.8834
  -4859168.45047  -3760339.32943  23851306.7894                   23851306.0434
   4526997.37646   3550463.42843  24395506.9304                   24395506.7074
 11  8 24 16  6 30.0000000  0 11G03G06G07G10G13G16G19G11G23G08G28
   3436367.87247   2683565.26645  21372729.1024                   21372726.9774
   6180392.68747   4825277.03944  23219997.0474                   23219996.4494
  -5468335.66747  -4230681.17045  21959726.1024                   21959723.5944
    724741.16246    566707.34543  24076745.6254                   24076746.0744
  -1672881.26948  -1273708.84846  20069892.6414                   20069890.1054
   9761658.46846   7601549.42943  23722649.1484                   23722646.0824
  -4181375.25948  -3221493.20946  20970380.7584                   20970376.4384
   3562827.27745   2803397.90242  24395833.3134                   24395834.2274
   4218475.81848   3290622.37046  20696832.1094                   20696827.8954
  -4997509.09747  -3868137.20644  23824981.9384                   23824980.1844
   4389491.77646   3443316.16143  24369340.2114                   24369338.9304
 11  8 24 16  7  0.0000000  0 11G03G06G07G10G13G16G19G11G23G08G28
   3425386.66047   2675008.43445  21370639.2344                   21370637.7854
   6187637.21047   4830922.09544  23221376.1254                   23221374.4924
  -5593423.77147  -4328152.41646  21935922.5234                   21935920.5314
    680697.31647    532387.42243  24068365.3984                   24068365.6604
  -1733398.82448  -1320865.41446  20058376.9694                   20058374.5514
   9780763.69546   7616436.57443  23726284.9534                   23726282.2504
  -4265954.98348  -3287399.48246  20954285.6334                   20954281.3484
   3416342.12946   2689253.68442  24367957.8284                   24367956.9264
   4212565.23548   3286016.68546  20695707.2114                   20695703.1374
  -5135970.40147  -3976029.09644  23798633.5394                   23798632.0004
   4252156.45547   3336301.65243  24343206.7584                   24343205.4024
 11  8 24 16  7 30.0000000  0 11G03G06G07G10G13G16G19G11G23G08G28
   3414882.57647   2666823.40745  21368640.7504                   21368639.1484
   6195198.78947   4836814.18144  23222814.9144                   23222813.6954
  -5718515.67648  -4425626.61146  21912118.7814                   21912115.9534
    636996.14646    498334.51243  24060048.0084                   24060049.2664
  -1793373.26648  -1367598.77146  20046964.2664                   20046960.9024
   9799787.92946   7631260.57343  23729906.1484                   23729903.1844
  -4349978.14448  -3352872.06446  20938296.2114                   20938291.9654
   3269711.98946   2574996.41442  24340054.7504                   24340052.9574
   4207103.69248   3281760.89646  20694668.0474                   20694664.1054
  -5274550.66646  -4084013.66244  23772262.1644                   23772261.9064
   4114993.18246   3229421.22043  24317105.2034                   24317104.3054
 11  8 24 16  8  0.0000000  0 11G03G06G07G10G13G16G19G11G23G08G28
   3404852.99947   2659008.10245  21366731.8524                   21366730.3874
   6203074.23747   4842950.84444  23224313.8204                   23224312.8134
  -5843611.44847  -4523103.82946  21888313.2344                   21888311.3284
    593634.78846    464546.37043  24051797.8754                   24051797.2894
  -1852804.85948  -1413909.11746  20035654.9304                   20035651.7934
   9818729.14646   7646019.89343  23733508.7814                   23733507.2114
  -4433444.36548  -3417910.67446  20922413.2424                   20922409.7034
   3122938.59646   2460627.56143  24312124.5634                   24312124.7734
   4202089.13948   3277853.40246  20693713.6414                   20693709.9534
  -5413250.37347  -4192091.32444  23745869.5164                   23745868.6254
   3978001.20747   3122674.23543  24291035.9694                   24291036.2464
 11  8 24 16  8 30.0000000  0 11G03G06G07G10G13G16G19G11G23G08G28
   3395294.42747   2651559.83745  21364913.1414                   21364911.4064
   6211259.55147   4849328.94444  23225870.9144                   23225870.6294
  -5968711.65747  -4620584.49645  21864507.6334                   21864505.1954
    550609.73946    431020.32243  24043610.0234                   24043610.0124
  -1911694.81148  -1459797.39746  20024447.8594                   20024445.1954
   9837584.43146   7660712.26543  23737097.0554                   23737095.2034
  -4516354.50048  -3482515.98346  20906636.0084                   20906631.9024
   2976023.27246   2346148.13743  24284168.0164                   24284168.1604
   4197518.60948   3274291.91746  20692844.0164                   20692840.5984
  -5552070.71147  -4300262.99444  23719452.3284                   23719451.6604
   3841179.43846   3016059.83943  24265000.2424                   24264999.6134
 11  8 24 16  9  0.0000000  0 11G03G06G07G10G13G16G19G11G23G08G28
   3386205.54747   2644477.53745  21363183.6484                   21363181.6914
   6219754.01147   4855947.95444  23227487.8594                   23227487.0594
  -6093813.65347  -4718066.55845  21840701.7894                   21840699.0044
    507920.60246    397755.96743  24035485.9304                   24035486.5044
  -1970041.61848  -1505262.46846  20013345.4304                   20013342.3674
   9856353.48146   7675337.36243  23740669.0864                   23740667.6454
  -4598706.07648  -3546686.02946  20890965.1954                   20890961.2504
   2828969.97046   2231561.16043  24256184.3204                   24256183.4694
   4193391.13948   3271075.66446  20692058.8984                   20692054.5594
  -5691010.12547  -4408527.45843  23693013.2504                   23693011.8014
   3704529.71947   2909579.56443  24238996.6644                   24238996.3054
 11  8 24 16  9 30.0000000  0 11G03G06G07G10G13G16G19G11G23G08G28
   3377585.21147   2637760.36945  21361543.4384                   21361541.6524
   6228556.08847   4862806.65844  23229162.5474                   23229161.8954
  -6218915.87347  -4815548.79646  21816894.6334                   21816892.6024
    465565.68446    364752.15743  24027426.5554                   24027427.4614
  -2027844.44348  -1550303.64646  20002346.1564                   20002342.5434
   9875035.70546   7689894.87243  23744224.5084                   23744222.1564
  -4680497.91848  -3610419.94346  20875400.9924                   20875396.7424
   2681781.47746   2116868.86243  24228175.3134                   24228174.4964
   4189705.49948   3268203.68546  20691357.3204                   20691352.8014
  -5830067.42047  -4516883.72543  23666551.2424                   23666550.2154
   3568052.22446   2803233.51343  24213025.0944                   24213026.0664
 11  8 24 16 10  0.0000000  0 11G03G06G07G10G13G16G19G11G23G08G28
   3369430.62047   2631406.09945  21359991.8444                   21359990.1334
   6237662.74147   4869902.70444  23230895.6804                   23230894.4694
  -6344017.59647  -4913030.64246  21793088.6334                   21793087.0084
    423542.71046    332006.91943  24019429.6414                   24019430.3094
  -2085103.23548  -1594920.90846  19991449.6724                   19991446.5084
   9893629.58746   7704383.60043  23747762.7274                   23747760.5864
  -4761729.84648  -3673717.54946  20859942.9304                   20859938.6254
   2534459.97846   2002072.90443  24200140.3754                   24200140.4844
   4186459.74648   3265674.48546  20690740.2274                   20690735.7974
  -5969242.68946  -4625331.99944  23640067.6094                   23640065.7464
   3431747.31146   2697021.88043  24187087.0864                   24187087.5204
 11  8 24 16 10 30.0000000  0 11G03G06G07G10G13G16G19G11G23G08G28
   3361738.81647   2625412.45645  21358527.8594                   21358526.2624
   6247070.58946   4877233.43344  23232685.7424                   23232684.4534
  -6469119.13547  -5010512.36046  21769283.4614                   21769281.5434
    381848.49245    299517.82843  24011496.1334                   24011496.1644
  -2141818.74048  -1639114.81846  19980656.8984                   19980654.3954
   9912132.53046   7718801.35743  23751283.8594                   23751281.8954
  -4842401.85948  -3736578.85746  20844591.2504                   20844587.2664
   2387007.18746   1887174.70943  24172081.1884                   24172081.5354
   4183651.03448   3263485.84846  20690205.0864                   20690202.0314
  -6108536.81946  -4733872.82644  23613560.4064                   23613559.6804
   3295614.01346   2590944.02943  24161181.4144                   24161181.3594
 11  8 24 16 11  0.0000000  0 11G03G06G07G10G13G16G19G11G23G08G28
   3354503.79947   2619774.74245  21357151.1334                   21357149.2034
   6256773.62847   4884794.19444  23234531.9924                   23234531.7974
  -6594223.18247  -5107996.02545  21745476.7894                   21745474.3524
    340477.29946    267280.52143  24003622.6954                   24003623.6094
  -2197994.84948  -1682888.42546  19969967.6094                   19969964.6844
   9930539.44046   7733144.32343  23754786.2194                   23754784.3634
  -4922516.89348  -3799006.14346  20829346.1884                   20829341.6914
   2239421.76646   1772173.11443  24143997.0314                   24143996.7974
   4181273.70448   3261633.35046  20689752.9304                   20689749.2154
  -6247953.21746  -4842508.93544  23587029.7274                   23587029.4804
   3159648.56646   2484996.90843  24135308.2194                   24135307.9654
 11  8 24 16 11 30.0000000  0 11G03G06G07G10G13G16G19G11G23G08G28
   3347725.31147   2614492.76845  21355861.5944                   21355859.7704
   6266771.63047   4892584.78344  23236434.9844                   23236433.9414
  -6719326.36147  -5205479.02346  21721670.1174                   21721668.0314
    299428.85446    235294.67543  23995812.5234                   23995812.7504
  -2253629.27448  -1726239.95246  19959380.7584                   19959377.6644
   9948851.19546   7747413.15743  23758270.7424                   23758268.9304
  -5002072.44248  -3860997.47846  20814207.4224                   20814202.9614
   2091708.68946   1657072.04543  24115887.9614                   24115887.9924
   4179328.30448   3260117.41646  20689382.8674                   20689379.0554
  -6387489.22146  -4951238.26844  23560477.0394                   23560475.8954
   3023853.39346   2379182.54943  24109467.3674                   24109467.3834
 11  8 24 16 12  0.0000000  0 11G03G06G07G10G13G16G19G11G23G08G28
   3341397.77547   2609562.17245  21354657.4844                   21354655.8014
   6277058.93847   4900600.77944  23238392.9454                   23238392.2774
  -6844430.59947  -5302962.84146  21697863.6414                   21697861.6174
    258698.41846    203556.57443  23988060.6954                   23988062.1094
  -2308724.89348  -1769171.63146  19948896.0634                   19948893.2664
   9967063.56146   7761604.51243  23761736.7194                   23761735.2504
  -5081070.73048  -3922554.59246  20799174.0784                   20799169.9344
   1943867.41547   1541871.05243  24087754.7814                   24087754.0234
   4177809.47948   3258933.87146  20689093.7974                   20689089.2734
  -6527147.70046  -5060063.04644  23533901.0164                   23533899.5664
   2888225.59746   2273498.60242  24083658.7114                   24083658.1214
 11  8 24 16 12 30.0000000  0 11G03G06G07G10G13G16G19G11G23G08G28
   3335519.03147   2604981.31745  21353538.5234                   21353537.7974
   6287633.45247   4908840.62544  23240404.9774                   23240403.8714
  -6969534.86247  -5400446.66446  21674057.0234                   21674055.1884
    218284.07646    172064.77243  23980370.6024                   23980370.3674
  -2363281.45248  -1811683.24846  19938514.0314                   19938511.3094
   9985175.16947   7775717.37544  23765183.7664                   23765181.7544
  -5159511.26148  -3983677.07346  20784247.8134                   20784243.6454
   1795900.37747   1426572.08343  24059597.8284                   24059595.8324
   4176715.75148   3258081.57046  20688885.6094                   20688881.2704
  -6666928.00646  -5168982.70644  23507301.7424                   23507300.6484
   2752765.32346   2167945.10242  24057881.3524                   24057879.0824
 11  8 24 16 13  0.0000000  0 11G03G06G07G10G13G16G19G11G23G08G28
   3330091.01247   2600751.63945  21352505.7734                   21352504.2504
   6298496.34747   4917305.15044  23242471.7504                   23242471.0474
  -7094634.01948  -5497926.53746  21650251.4454                   21650249.9694
    178187.31046    140820.54643  23972740.1254                   23972741.3484
  -2417294.80248  -1853771.59546  19928236.0234                   19928233.3524
  10003188.71746   7789753.85043  23768611.2274                   23768609.7664
  -5237389.43948  -4044361.36846  20769427.3134                   20769423.6094
   1647814.31547   1311180.40743  24031417.2584                   24031417.7544
   4176049.34148   3257562.25346  20688758.8594                   20688754.8954
  -6806826.08146  -5277994.14044  23480679.9224                   23480679.5004
   2617476.73246   2062525.44942  24032136.6094                   24032134.6094
 11  8 24 16 13 30.0000000  0 11G03G06G07G10G13G16G19G11G23G08G28
   4900528.27047   3824468.93445  21651349.9224                   21651348.1454
   7885062.43947   6153590.37444  23544385.1564                   23544385.2154
  -5644305.91647  -4367800.73746  21926239.6804                   21926237.5234
   1713824.38246   1337420.80043  24264962.3524                   24264963.2974
   -895346.48148   -667837.86846  20217853.2274                   20217850.6484
  11596519.34746   9031310.12744  24071812.4304                   24071810.6884
  -3739284.91648  -2877007.19146  21054507.5164                   21054503.4184
   3075033.88447   2423299.56943  24303008.2664                   24303009.3364
   5751225.07348   4484971.87146  20988504.6414                   20988501.2704
  -5371420.28847  -4159496.10744  23753827.7894                   23753828.2584
   4057781.42446   3184840.83343  24306218.1094                   24306216.1604
 11  8 24 16 14  0.0000000  0 11G03G06G07G10G13G16G19G11G23G08G28
   4895987.04747   3820930.26845  21650485.6564                   21650484.5474
   7896488.32047   6162493.59044  23546559.6724                   23546558.8554
  -5769399.14147  -4465275.97746  21902435.1954                   21902432.7424
   1674349.36846   1306660.98843  24257451.2664                   24257450.6804
   -948281.14748   -709085.68746  20207780.0704                   20207777.3134
  11614325.73646   9045185.07144  24075200.2734                   24075198.9384
  -3816044.02548  -2936819.49546  21039900.6174                   21039896.4144
   2926710.33946   2307722.79643  24274782.8364                   24274782.5634
   5751399.59748   4485107.82246  20988538.2034                   20988534.2704
  -5511560.30546  -4268696.09944  23727160.7814                   23727160.4384
   3922829.12747   3079683.14743  24280537.9384                   24280537.6994
 11  8 24 16 14 30.0000000  0 11G03G06G07G10G13G16G19G11G23G08G28
   4891885.63847   3817734.31945  21649705.5084                   21649704.2664
   7908192.04547   6171613.32044  23548787.2814                   23548786.6454
  -5894487.70447  -4562747.57445  21878632.0164                   21878629.7034
   1635181.99846   1276140.88043  24249998.0864                   24249998.3984
  -1000676.62048   -749913.33746  20197809.1334                   20197806.7854
  11632026.50946   9058977.83444  24078568.4534                   24078567.6764
  -3892242.91048  -2996195.25146  21025400.5314                   21025396.5124
   2778271.93146   2192056.54243  24246536.5554                   24246534.6564
   5751991.62548   4485569.10646  20988650.9774                   20988646.9494
  -5651820.62246  -4377989.77444  23700469.4614                   23700469.2344
   3788045.06646   2974656.66143  24254888.4844                   24254888.7854
 11  8 24 16 15  0.0000000  0 11G03G06G07G10G13G16G19G11G23G08G28
   4888222.81647   3814880.12845  21649007.8444                   21649006.7974
   7920171.83447   6180948.15144  23551066.8984                   23551066.3594
  -6019569.59447  -4660213.98546  21854829.7974                   21854828.0664
   1596320.61946   1245859.24243  24242603.2344                   24242602.7774
  -1052531.90348   -790320.07946  20187941.6484                   20187938.8914
  11649621.26146   9072687.92443  24081917.8364                   24081915.8794
  -3967880.25648  -3055133.45146  21011007.4454                   21011003.0044
   2629722.28746   2076303.63843  24218269.0704                   24218268.6684
   5752999.87848   4486354.70146  20988842.3524                   20988838.4384
  -5792199.85846  -4487376.16744  23673756.8054                   23673756.3404
   3653430.14246   2869761.89144  24229272.5474                   24229271.3284
 11  8 24 16 15 30.0000000  0 11G03G06G07G10G13G16G19G11G23G08G28
   4884993.82247   3812363.98545  21648393.4844                   21648392.4614
   7932423.19747   6190494.59244  23553398.2814                   23553397.9184
  -6144645.94248  -4757676.05846  21831028.5234                   21831026.3594
   1557760.88446   1215812.61043  24235264.6644                   24235265.2384
  -1103849.59248   -830307.90446  20178176.2664                   20178174.3164
  11667106.58246   9086312.80343  24085244.1024                   24085243.1764
  -4042957.60248  -3113635.29946  20996720.5234                   20996716.4144
   2481061.60745   1960464.21343  24189978.4844                   24189979.9884
   5754420.44148   4487461.59646  20989112.9844                   20989108.4534
  -5932699.61747  -4596856.42644  23647019.9774                   23647019.6334
   3518982.12146   2764997.26344  24203688.1564                   24203687.1764
 11  8 24 16 16  0.0000000  0 11G03G06G07G10G13G16G19G11G23G08G28
   4882200.31047   3810187.17945  21647862.1254                   21647861.3794
   7944947.71047   6200253.88244  23555781.6804                   23555781.1804
  -6269711.67648  -4855129.86846  21807229.4384                   21807226.6564
   1519504.94746   1186002.75243  24227985.4224                   24227985.5124
  -1154625.28048   -869873.40046  20168514.2734                   20168511.1804
  11684485.23946   9099854.50343  24088551.4694                   24088550.4734
  -4117470.95748  -3171697.65246  20982541.3444                   20982537.0984
   2332296.67346   1844543.60243  24161670.2424                   24161669.8524
   5756254.98248   4488891.05746  20989462.4144                   20989458.1724
  -6073315.87447  -4706427.49844  23620262.3364                   23620261.3364
   3384705.25246   2660365.97444  24178135.5004                   24178135.8554
 11  8 24 16 16 30.0000000  0 11G03G06G07G10G13G16G19G11G23G08G28
   4879841.94747   3808349.42945  21647413.3674                   21647412.1094
   7957744.85847   6210225.62744  23558216.8984                   23558216.3674
  -6394763.26848  -4952572.66046  21783432.6804                   21783430.1914
   1481552.72246   1156429.48643  24220762.7894                   24220763.2344
  -1204857.26748   -909015.24046  20158955.1094                   20158952.6684
  11701758.52946   9113314.13144  24091839.1804                   24091837.7034
  -4191417.41548  -3229318.27446  20968469.4384                   20968465.1254
   2183432.62746   1728545.72143  24133342.1564                   24133341.0664
   5758503.78348   4490643.31846  20989890.2584                   20989886.3594
  -6214046.05047  -4816087.33244  23593481.6954                   23593481.4454
   3250601.89946   2555869.89644  24152616.8674                   24152616.1134
 11  8 24 16 17  0.0000000  0 11G03G06G07G10G13G16G19G11G23G08G28
   4877910.76047   3806844.58045  21647046.1724                   21647044.5634
   7970807.10347   6220403.90444  23560702.9534                   23560701.9064
  -6519805.12248  -5050007.85646  21759637.8754                   21759635.7234
   1443896.23646   1127086.76143  24213598.1484                   24213598.1884
  -1254551.09948   -947737.72246  20149498.7814                   20149495.8714
  11718919.45146   9126686.18044  24095104.8674                   24095102.5664
  -4264802.27448  -3286501.28946  20954505.1024                   20954500.9494
   2034466.19946   1612468.01643  24104994.4454                   24104995.3404
   5761159.76348   4492712.86146  20990395.6484                   20990392.3954
  -6354894.96047  -4925839.68844  23566679.5004                   23566678.2624
   3116666.50846   2451504.66844  24127129.8674                   24127129.0514
 11  8 24 16 17 30.0000000  0 11G03G06G07G10G13G16G19G11G23G08G28
   4876411.10947   3805675.95745  21646760.5864                   21646759.5314
   7984138.09547   6230791.62644  23563239.8834                   23563238.4614
  -6644829.65448  -5147429.57946  21735846.7424                   21735844.3204
   1406539.81346   1097977.85143  24206488.7504                   24206489.9654
  -1303700.37648   -986035.89046  20140145.9384                   20140143.3984
  11735973.22246   9139974.80143  24098350.0474                   24098347.7274
  -4337618.70448  -3343241.37046  20940648.9224                   20940644.3284
   1885406.61347   1496317.78443  24076629.2344                   24076629.6844
   5764226.68048   4495102.62146  20990979.1334                   20990975.4774
  -6495855.65247  -5035679.16244  23539856.1414                   23539854.4454
   2982905.19746   2347275.14544  24101675.2664                   24101675.5204
 11  8 24 16 18  0.0000000  0 11G03G06G07G10G13G16G19G11G23G08G28
   4875340.03447   3804841.28645  21646557.1024                   21646556.0274
   7997735.18547   6241386.70344  23565826.8054                   23565826.9614
  -6769835.95848  -5244837.06846  21712058.8524                   21712056.2854
   1369481.01046   1069100.81043  24199437.2424                   24199437.3874
  -1352305.94148  -1023910.37346  20130896.4694                   20130894.1644
  11752918.73746   9153179.01844  24101574.3444                   24101572.4224
  -4409866.64248  -3399538.48546  20926899.9614                   20926895.9884
   1736256.71747   1380097.08343  24048246.8834                   24048246.5234
   5767702.38748   4497810.90646  20991640.9614                   20991637.0864
  -6636928.12747  -5145605.68844  23513010.4774                   23513009.4534
   2849318.22446   2243181.49843  24076253.9694                   24076255.0474
 11  8 24 16 18 30.0000000  0 11G03G06G07G10G13G16G19G11G23G08G28
   4874695.71047   3804339.17845  21646434.1564                   21646433.1214
   8011596.62347   6252187.75844  23568464.4064                   23568464.3984
  -6894822.44748  -5342229.13946  21688274.6644                   21688271.6024
   1332718.03546   1040454.29543  24192441.5314                   24192440.6724
  -1400367.27248  -1061360.78846  20121751.0944                   20121748.3554
  11769755.04746   9166298.16344  24104778.3834                   24104776.4924
  -4481545.39447  -3455392.06846  20913260.2034                   20913256.3444
   1587019.15846   1263808.20143  24019847.6724                   24019846.6134
   5771585.29348   4500836.50746  20992379.8204                   20992375.6414
  -6778111.35247  -5255618.58144  23486143.7194                   23486142.9844
   2715905.67446   2139223.65143  24050866.7894                   24050866.1254
 11  8 24 16 19  0.0000000  0 11G03G06G07G10G13G16G19G11G23G08G28
   4874472.26447   3804165.02045  21646391.9144                   21646391.1724
   8025716.45846   6263190.14244  23571151.6484                   23571151.1454
  -7019790.86548  -5439607.13046  21664494.1334                   21664491.2194
   1296245.27446   1012033.88343  24185500.5704                   24185500.5314
  -1447887.83248  -1098389.81846  20112708.2274                   20112705.4104
  11786477.61946   9179328.66344  24107959.9614                   24107959.8324
  -4552658.10548  -3510804.58546  20899728.1564                   20899723.4184
   1437693.63946   1147450.63243  23991432.7034                   23991431.6024
   5775869.95548   4504175.14946  20993194.8834                   20993191.3714
  -6919408.06247  -5365719.89144  23459255.6254                   23459255.2894
   2582664.54446   2035399.48243  24025511.6094                   24025510.9104
 11  8 24 16 19 30.0000000  0 11G03G06G07G10G13G16G19G11G23G08G28
   4874671.10747   3804319.91745  21646430.3444                   21646428.6374
   8040096.63446   6274395.40344  23573888.3444                   23573887.5664
  -7144735.96648  -5536966.93446  21640717.6174                   21640715.1254
   1260064.86046    983841.33443  24178615.7424                   24178616.4024
  -1494863.87648  -1134994.54946  20103768.5864                   20103766.1214
  11803089.87846   9192273.15244  24111122.4844                   24111120.3794
  -4623200.35848  -3565772.58446  20886304.1724                   20886300.2234
   1288287.12746   1031030.03043  23963000.9454                   23962999.7544
   5780558.46148   4507828.48346  20994087.1804                   20994083.7074
  -7060813.52547  -5475905.93444  23432347.7034                   23432346.0274
   2449599.05346   1931712.10643  24000190.5004                   24000189.2974
 11  8 24 16 20  0.0000000  0 11G03G06G07G10G13G16G19G11G23G08G28
   4875285.80347   3804798.83945  21646546.8984                   21646545.3244
   8054730.25146   6285798.14844  23576672.6094                   23576672.3134
  -7269660.70248  -5634310.89046  21616945.0164                   21616943.0824
   1224169.97146    955871.16343  24171785.4534                   24171785.3794
  -1541300.06748  -1171178.61746  20094932.3364                   20094930.1174
  11819586.36846   9205127.46544  24114261.0634                   24114259.0784
  -4693176.21648  -3620299.23446  20872988.1024                   20872984.2194
   1138797.95846    914545.08043  23934553.7584                   23934553.1054
   5785644.36148   4511791.46946  20995055.3834                   20995051.5634
  -7202331.50547  -5586179.65744  23405417.3524                   23405416.6604
   2316704.88946   1828158.24343  23974900.9924                   23974901.1844
 11  8 24 16 20 30.0000000  0 11G03G06G07G10G13G16G19G11G23G08G28
   4876310.96347   3805597.62145  21646742.5084                   21646741.3954
   8069611.91346   6297394.19244  23579505.2734                   23579504.7584
  -7394567.05948  -5731640.51846  21593176.3444                   21593173.7624
   1188555.31646    928119.49543  24165007.9144                   24165008.2774
  -1587199.53048  -1206944.45746  20086198.0784                   20086195.6844
  11835962.93646   9217888.40343  24117377.8914                   24117375.5044
  -4762588.18748  -3674386.49446  20859779.3834                   20859775.4304
    989226.04246    797995.56443  23906091.6174                   23906091.7034
   5791122.66848   4516060.24846  20996098.0234                   20996093.8794
  -7343964.28047  -5696542.81744  23378465.7584                   23378464.4534
   2183978.80546   1724735.39443  23949644.7974                   23949645.1994
 11  8 24 16 21  0.0000000  0 11G03G06G07G10G13G16G19G11G23G08G28
   4877744.43647   3806714.58445  21647014.8834                   21647013.6454
   8084739.44246   6309181.77244  23582383.7034                   23582383.3364
  -7519453.06148  -5828954.28746  21569411.0164                   21569408.3364
   1153219.27446    900584.85343  24158284.0394                   24158284.2814
  -1632561.99448  -1242291.85446  20077566.2974                   20077563.4144
  11852218.77546   9230555.18143  24120471.3984                   24120469.8134
  -4831435.94848  -3728034.10846  20846678.2504                   20846673.7274
    839574.54747    681384.12943  23877614.1804                   23877613.9454
   5796991.67948   4520633.42946  20997214.3524                   20997210.0394
  -7485711.01647  -5806994.81644  23351492.1644                   23351490.5124
   2051421.67346   1621444.11643  23924419.9614                   23924418.7704
 11  8 24 16 21 30.0000000  0 11G03G06G07G10G13G16G19G11G23G08G28
   4879585.27347   3808148.96445  21647364.7584                   21647362.9844
   8100112.35746   6321160.64443  23585308.6564                   23585308.6094
  -7644315.91748  -5926250.02046  21545651.0864                   21545648.4804
   1118161.00446    873266.65943  24151612.9144                   24151612.9224
  -1677386.75448  -1277220.26546  20069036.0554                   20069033.4654
  11868354.53746   9243128.42143  24123541.2664                   24123539.8524
  -4899717.88248  -3781240.81746  20833684.4614                   20833680.6884
    689847.60447    564713.86444  23849122.1884                   23849120.9414
   5803250.86748   4525510.67546  20998405.8204                   20998401.9574
  -7627569.51247  -5917533.86144  23324497.3284                   23324496.2774
   1919034.81546   1518285.52843  23899227.3284                   23899225.3164
 11  8 24 16 22  0.0000000  0 11G03G06G07G10G13G16G19G11G23G08G28
   4881830.02747   3809898.07045  21647791.9534                   21647791.1524
   8115727.13046   6333327.87543  23588281.0864                   23588279.8054
  -7769155.31748  -6023527.46846  21521894.1954                   21521892.1644
   1083377.23946    846162.36943  24144993.3674                   24144993.3134
  -1721674.70948  -1311730.38746  20060608.4844                   20060605.6414
  11884368.16846   9255606.47143  24126588.7974                   24126588.3484
  -4967434.71448  -3834007.18846  20820798.2894                   20820794.3134
    540047.31347    447986.48444  23820616.2194                   23820614.4804
   5809896.88248   4530689.33546  20999670.4614                   20999666.7894
  -7769540.20247  -6028160.34844  23297480.9064                   23297479.8874
   1786817.32846   1415258.94543  23874067.3674                   23874066.2854
 11  8 24 16 22 30.0000000  0 11G03G06G07G10G13G16G19G11G23G08G28
   4884477.14847   3811960.71345  21648295.7664                   21648294.9304
   8131582.26646   6345682.47844  23591298.0394                   23591297.1684
  -7893969.09248  -6120784.94746  21498143.2194                   21498141.3364
   1048866.67846    819270.92343  24138426.3984                   24138427.0124
  -1765425.55548  -1345821.97946  20052283.0944                   20052280.5004
  11900259.65846   9267989.35943  24129612.9304                   24129611.7584
  -5034585.54148  -3886332.52246  20808019.7424                   20808016.1334
    390177.47247    331204.87443  23792096.6564                   23792095.5944
   5816928.50148   4536168.47046  21001008.5004                   21001004.5784
  -7911621.33846  -6138872.88844  23270443.6564                   23270442.7274
   1654769.90946   1312364.83643  23848939.2274                   23848939.3404
 11  8 24 16 23  0.0000000  0 11G03G06G07G10G13G16G19G11G23G08G28
   4887522.50047   3814333.65745  21648875.8444                   21648874.2464
   8147673.62746   6358221.12544  23594360.0084                   23594359.1914
  -8018757.28947  -6218022.48046  21474396.7734                   21474394.8404
   1014625.06546    792589.15343  24131909.9844                   24131911.3444
  -1808641.22348  -1379496.54746  20044059.5864                   20044056.7704
  11916026.52146   9280275.11743  24132613.6724                   24132612.1844
  -5101171.68348  -3938217.84646  20795349.1024                   20795344.9614
    240239.20047    214369.89643  23763562.9694                   23763562.5864
   5824342.07248   4541945.22246  21002419.7274                   21002415.8794
  -8053814.20347  -6249672.50544  23243385.2894                   23243384.6764
   1522891.20746   1209602.21343  23823843.8754                   23823843.4064
 11  8 24 16 23 30.0000000  0 11G03G06G07G10G13G16G19G11G23G08G28
   4890960.32647   3817012.40745  21649529.8364                   21649528.7114
   8163995.17146   6370939.14643  23597465.7344                   23597465.2074
  -8143522.43847  -6315242.08046  21450654.6254                   21450652.4734
    980646.82346    766112.50543  24125445.0164                   24125444.4694
  -1851325.56248  -1412757.08446  20035936.4534                   20035933.9024
  11931664.01046   9292460.08743  24135589.0634                   24135587.7344
  -5167196.91047  -3989666.09246  20782784.8444                   20782781.3324
     90231.85346     97481.17243  23735018.6484                   23735018.0514
   5832131.89548   4548015.16446  21003901.5784                   21003898.0784
  -8196121.94247  -6360561.63244  23216304.8984                   23216303.3634
   1391177.64546   1106968.31243  23798779.4614                   23798778.4064
 11  8 24 16 24  0.0000000  0 11G03G06G07G10G13G16G19G11G23G08G28
   4894793.01847   3819998.89845  21650259.0944                   21650258.1954
   8180549.67846   6383838.70843  23600615.9844                   23600615.7154
  -8268257.58147  -6412438.29046  21426918.5394                   21426915.7114
    946934.85646    739843.34443  24119029.3914                   24119029.4574
  -1893474.19748  -1445600.21346  20027916.1334                   20027913.4224
  11947176.46346   9304547.63743  24138541.5314                   24138539.6214
  -5232656.17248  -4040673.33546  20770328.4844                   20770324.7544
    -59836.77846    -19455.40343  23706461.0784                   23706461.2544
   5840300.43448   4554380.20246  21005456.0084                   21005452.4144
  -8338538.37747  -6471535.45544  23189203.8914                   23189202.2304
   1259634.12346   1004466.88643  23773747.1334                   23773747.0634
 11  8 24 16 24 30.0000000  0 11G03G06G07G10G13G16G19G11G23G08G28
   6474436.16347   5050889.60745  21950855.7194                   21950854.2664
   9772752.65446   7624516.21143  23903602.7814                   23903601.7344
  -6817538.94148  -5282008.16846  21702980.8594                   21702978.8014
   2488906.46746   1941379.63843  24412457.1484                   24412457.6174
   -359667.55147   -250426.22546  20319789.7344                   20319787.4614
  13537980.73946  10544135.25443  24441260.9694                   24441260.6334
  -3722128.53148  -2863638.81446  21057772.3054                   21057768.8834
   1365459.59447   1091165.26943  23977686.2664                   23977685.9344
   7424264.27148   5788637.68946  21306874.8364                   21306870.6134
  -6905639.41947  -5354990.75044  23461875.6334                   23461874.6094
   2703683.42946   2129700.17143  24048540.9924                   24048540.9614
 11  8 24 16 25  0.0000000  0 11G03G06G07G10G13G16G19G11G23G08G28
   6479053.48647   5054487.46545  21951733.7194                   21951733.0664
   9789768.81446   7637775.53143  23906840.6564                   23906839.3794
  -6942207.45847  -5379152.46146  21679257.1564                   21679255.1764
   2455722.87246   1915522.23343  24406141.5234                   24406143.4734
   -400743.10548   -282433.18046  20311973.5314                   20311971.3014
  13553243.01046  10556027.86443  24444165.6024                   24444165.1174
  -3786452.61048  -2913761.48546  21045532.3134                   21045528.5354
   1215280.03047    974142.28843  23949107.9304                   23949106.6094
   7433187.32748   5795590.66246  21308572.5554                   21308568.7814
  -7048268.06447  -5466129.93744  23434734.7274                   23434733.7114
   2572482.70546   2027465.94243  24023574.0084                   24023573.7194
 11  8 24 16 25 30.0000000  0 11G03G06G07G10G13G16G19G11G23G08G28
   6484059.48147   5058388.17345  21952686.8674                   21952685.3164
   9807011.85546   7651211.55043  23910122.0164                   23910121.1914
  -7066840.84547  -5476269.38246  21655540.5234                   21655538.3524
   2422799.71146   1889867.71443  24399877.1024                   24399878.3524
   -441283.30748   -314022.97046  20304259.0084                   20304256.6054
  13568378.76646  10567821.90843  24447045.4924                   24447045.5354
  -3850209.21047  -2963441.96246  21033399.5864                   21033395.6884
   1065049.30246    857079.41944  23920519.8134                   23920519.8754
   7442484.28648   5802834.99945  21310341.7274                   21310338.2774
  -7191002.21047  -5577351.30144  23407572.9384                   23407573.0354
   2441453.25446   1925365.15444  23998640.6724                   23998640.0594
 11  8 24 16 26  0.0000000  0 11G03G06G07G10G13G16G19G11G23G08G28
   6489448.95047   5062587.70845  21953712.3284                   21953710.7664
   9824477.07646   7664820.82443  23913445.5554                   23913444.7704
  -7191440.05147  -5573359.66746  21631830.3444                   21631828.1564
   2390132.07346   1864412.34743  24393660.9454                   24393661.8674
   -481290.84048   -345197.70046  20296645.5864                   20296643.1094
  13583384.34846  10579514.43543  24449901.6094                   24449900.2854
  -3913400.99948  -3012682.31546  21021374.6484                   21021370.8014
    914767.97446    739977.18044  23891922.0234                   23891922.0394
   7452150.38348   5810366.96146  21312181.3984                   21312177.5274
  -7333843.51747  -5688656.19644  23380391.0944                   23380390.3984
   2310592.90446   1823396.09344  23973737.8284                   23973738.1564
 11  8 24 16 26 30.0000000  0 11G03G06G07G10G13G16G19G11G23G08G28
   6495221.16347   5067085.49745  21954811.2274                   21954809.6454
   9842163.64746   7678602.41843  23916810.8524                   23916810.2424
  -7316001.85148  -5670420.80046  21608126.4844                   21608124.0204
   2357719.31546   1839155.56743  24387493.2664                   24387493.4344
   -520764.56748   -375956.47446  20289133.9534                   20289131.5314
  13598260.83146  10591106.42343  24452732.7584                   24452731.8134
  -3976026.90848  -3061481.72746  21009457.2894                   21009453.2934
    764440.27246    622838.77143  23863315.7274                   23863316.6054
   7462184.67148   5818185.82446  21314090.9144                   21314087.0514
  -7476789.42147  -5800042.57044  23353189.5554                   23353188.6174
   2179902.75646   1721559.66044  23948869.0164                   23948868.3014
 11  8 24 16 27  0.0000000  0 11G03G06G07G10G13G16G19G11G23G08G28
   6501375.94747   5071881.37745  21955981.8674                   21955980.6914
   9860071.83746   7692556.79243  23920219.1954                   23920218.2344
  -7440522.32248  -5767449.72346  21584430.9454                   21584429.1954
   2325561.71146   1814097.60743  24381373.6414                   24381374.5394
   -559702.57548   -406297.81846  20281724.1094                   20281721.9104
  13613009.81846  10602599.03243  24455538.5554                   24455538.0044
  -4038083.95548  -3109837.87246  20997648.1564                   20997644.7814
    614071.80246    505668.62743  23834701.5554                   23834701.3634
   7472587.37548   5826291.77546  21316070.5554                   21316067.0634
  -7619836.57747  -5911507.84544  23325968.1954                   23325967.2114
   2049385.50646   1619857.95344  23924031.7734                   23924032.1684
 11  8 24 16 27 30.0000000  0 11G03G06G07G10G13G16G19G11G23G08G28
   6507912.08647   5076974.41645  21957225.7664                   21957224.8284
   9878200.28346   7706682.82743  23923668.4384                   23923667.9304
  -7564998.73948  -5864444.32646  21560744.3754                   21560741.9924
   2293658.15646   1789237.62643  24375302.7664                   24375303.8634
   -598104.12948   -436221.13746  20274416.9064                   20274414.6484
  13627631.47846  10613992.47143  24458322.1484                   24458320.8014
  -4099571.16548  -3157749.99646  20985947.4454                   20985943.8404
    463666.94046    388470.10143  23806079.4694                   23806080.0904
   7483358.19548   5834684.56846  21318119.6644                   21318116.4694
  -7762983.01847  -6023050.51044  23298728.7344                   23298727.3054
   1919042.46046   1518291.98044  23899228.6804                   23899228.1604
 11  8 24 16 28  0.0000000  0 11G03G06G07G10G13G16G19G11G23G08G28
   6514830.20747   5082365.10545  21958542.5474                   21958540.9534
   9896549.97446   7720981.20943  23927160.4534                   23927160.3014
  -7689426.28648  -5961400.84546  21537066.4454                   21537064.2074
   2262009.71246   1764576.48443  24369279.5864                   24369280.5044
   -635967.06848   -465724.74746  20267212.0474                   20267209.2154
  13642128.31646  10625288.61643  24461080.7034                   24461079.6174
  -4160485.63048  -3205215.81546  20974356.1724                   20974352.5274
    313231.50046    271247.74143  23777453.2424                   23777452.0944
   7494497.66848   5843364.63146  21320239.5634                   21320236.2344
  -7906224.70047  -6134667.39244  23271470.1094                   23271469.5314
   1788876.54946   1416864.04943  23874459.1484                   23874457.6214
 11  8 24 16 28 30.0000000  0 11G03G06G07G10G13G16G19G11G23G08G28
   6522124.94347   5088049.25545  21959930.8444                   21959928.7934
   9915115.42346   7735447.73743  23930693.1564                   23930693.5664
  -7813806.59748  -6058320.55446  21513397.4224                   21513394.9734
   2230611.10546   1740109.88443  24363305.2584                   24363306.6684
   -673294.70848   -494811.25246  20260109.1954                   20260106.6134
  13656496.83246  10636484.75943  24463814.6724                   24463814.1684
  -4220830.27148  -3252237.61546  20962872.9844                   20962869.0394
    162765.95247    154001.90444  23748821.5004                   23748820.2734
   7506000.56048   5852327.85746  21322429.0704                   21322424.9614
  -8049563.92247  -6246360.23944  23244194.4454                   23244192.9574
   1658884.77046   1315571.77843  23849722.5234                   23849721.5824
 11  8 24 16 29  0.0000000  0 11G03G06G07G10G13G16G19G11G23G08G28
   6529799.84947   5094029.64845  21961391.6094                   21961389.6804
   9933900.74046   7750085.52443  23934267.8834                   23934267.9144
  -7938131.78148  -6155197.32246  21489739.1644                   21489737.0084
   2199465.92446   1715840.90643  24357379.5234                   24357380.1844
   -710081.36248   -523476.21246  20253108.1564                   20253105.6954
  13670742.43646  10647585.16943  24466525.4384                   24466523.8634
  -4280599.02848  -3298810.67846  20951499.2034                   20951495.2894
     12279.34946     36739.64644  23720183.3674                   23720183.6914
   7517870.87948   5861577.39546  21324687.8674                   21324683.7734
  -8192993.38147  -6358123.41344  23216900.2114                   23216899.0744
   1529073.56646   1214420.25743  23825019.5704                   23825019.2814
 11  8 24 16 29 30.0000000  0 11G03G06G07G10G13G16G19G11G23G08G28
   6537847.05947   5100300.15945  21962922.8444                   21962922.1644
   9952898.07346   7764888.54743  23937882.8984                   23937882.7114
  -8062405.57648  -6252034.04446  21466090.9614                   21466088.4454
   2168566.65046   1691763.45443  24351498.7034                   24351498.6254
   -746333.00848   -551724.28546  20246209.6174                   20246207.5474
  13684858.79946  10658584.81943  24469212.5864                   24469211.5554
  -4339797.48348  -3344939.36346  20940233.6254                   20940230.1094
   -138230.70746    -80540.89743  23691542.5704                   23691542.3164
   7530101.05748   5871107.33546  21327014.9384                   21327011.3954
  -8336517.86347  -6469960.65744  23189588.2974                   23189587.3364
   1399437.36346   1113405.03943  23800350.9614                   23800349.8754
 11  8 24 16 30  0.0000000  0 11G03G06G07G10G13G16G19G11G23G08G28
   6546268.98347   5106862.62345  21964525.0004                   21964523.5474
   9972110.16346   7779858.91543  23941538.9144                   23941539.3324
  -8186621.23447  -6348825.46046  21442453.0234                   21442450.5904
   2137916.39746   1667880.02343  24345666.6804                   24345666.0004
   -782045.05948   -579551.89646  20239414.1954                   20239412.1294
  13698850.53645  10669487.46243  24471875.0234                   24471873.1024
  -4398420.89748  -3390619.96446  20929078.5474                   20929074.5984
   -288755.95147   -197833.26443  23662899.8364                   23662897.5234
   7542693.68948   5880919.71545  21329411.5944                   21329407.8054
  -8480131.14347  -6581867.06444  23162259.3134                   23162259.3054
   1269981.26046   1012530.21243  23775716.1804                   23775715.7774
 11  8 24 16 30 30.0000000  0 11G03G06G07G10G13G16G19G11G23G08G28
   6555063.55647   5113715.48445  21966198.8754                   21966197.5664
   9991534.79246   7794994.90643  23945236.2034                   23945235.9804
  -8310777.13047  -6445570.30446  21418827.6094                   21418824.9534
   2107512.66546   1644188.72543  24339880.7274                   24339880.5044
   -817218.75548   -606960.01346  20232720.5944                   20232718.7234
  13712716.94246  10680292.31943  24474513.0944                   24474512.3954
  -4456469.34748  -3435852.54046  20918031.9144                   20918028.0354
   -439293.25347   -315134.98844  23634252.2584                   23634252.3204
   7555646.91048   5891013.07045  21331876.3834                   21331873.5944
  -8623831.82947  -6693841.61444  23134914.0864                   23134913.2154
   1140705.22346    911795.70144  23751115.4144                   23751115.6644
 11  8 24 16 31  0.0000000  0 11G03G06G07G10G13G16G19G11G23G08G28
   6564224.42947   5120853.79045  21967942.1724                   21967940.8164
  10011166.29546   7810292.13843  23948971.5164                   23948971.4384
  -8434875.19548  -6542270.08546  21395211.9224                   21395209.7504
   2077349.43346   1620684.86643  24334140.8524                   24334142.3284
   -851857.85948   -633951.54646  20226129.3054                   20226127.0234
  13726453.79246  10690996.40343  24477127.5164                   24477125.4844
  -4513946.78748  -3480640.17546  20907094.6954                   20907090.7894
   -589842.88547   -432446.33044  23605603.4534                   23605603.5354
   7568955.11248   5901383.04046  21334408.7114                   21334404.9494
  -8767623.03547  -6805886.67244  23107551.6174                   23107550.5234
   1011605.85646    811198.84944  23726548.3674                   23726548.9774
 11  8 24 16 31 30.0000000  0 11G03G06G07G10G13G16G19G11G23G08G28
   6573751.47147   5128277.40745  21969755.0704                   21969754.0234
  10031004.28846   7825750.22443  23952746.6024                   23952746.5784
  -8558911.69448  -6638921.88546  21371608.7584                   21371606.4384
   2047426.61446   1597368.23043  24328447.6024                   24328448.0554
   -885961.00948   -660525.45946  20219639.2894                   20219636.9264
  13740062.69646  10701600.66442  24479716.8834                   24479715.6024
  -4570851.47348  -3524981.51546  20896265.7584                   20896262.3054
   -740399.80147   -549763.41843  23576954.2034                   23576953.2774
   7582618.00248   5912029.38746  21337008.9614                   21337005.7234
  -8911501.44847  -6917999.67744  23080171.5394                   23080171.5314
    882685.02147    710741.08144  23702016.1884                   23702015.5234
 11  8 24 16 32  0.0000000  0 11G03G06G07G10G13G16G19G11G23G08G28
   6583641.12647   5135983.57545  21971636.9694                   21971635.9964
  10051045.58846   7841366.68043  23956560.9774                   23956560.4574
  -8682885.58148  -6735524.89146  21348017.1954                   21348015.0704
   2017741.02046   1574236.62942  24322797.6024                   24322797.9964
   -919530.10548   -686683.23846  20213251.5394                   20213249.2234
  13753541.97146  10712103.87343  24482281.5634                   24482279.8204
  -4627184.03548  -3568877.03246  20885546.2194                   20885542.6994
   -890961.83747   -667084.42744  23548303.0314                   23548301.6564
   7596632.01548   5922949.32546  21339675.6954                   21339671.8754
  -9055467.05447  -7030180.64144  23052776.5394                   23052775.3634
    753942.08847    610421.94944  23677517.5634                   23677516.6484
 11  8 24 16 32 30.0000000  0 11G03G06G07G10G13G16G19G11G23G08G28
   6593888.52747   5143968.52945  21973587.2424                   21973586.4694
  10071285.53746   7857138.04443  23960412.4224                   23960412.0084
  -8806797.89947  -6832079.94246  21324437.6724                   21324434.9884
   1988288.09446   1551286.22342  24317193.4224                   24317193.9964
   -952567.88748   -712427.00246  20206965.2194                   20206962.6054
  13766888.58445  10722503.78542  24484821.7734                   24484819.7234
  -4682947.67148  -3612329.23646  20874934.5394                   20874930.7894
  -1041528.28647   -784408.87043  23519650.5944                   23519649.4804
   7610992.83248   5934139.50445  21342408.3134                   21342404.9734
  -9199521.10147  -7142430.52544  23025363.9144                   23025362.9694
    625374.50847    510239.45644  23653051.8674                   23653051.0784
 11  8 24 16 33  0.0000000  0 11G03G06G07G10G13G16G19G11G23G08G28
   6604501.80347   5152238.57745  21975606.9614                   21975605.8204
  10091732.41346   7873070.66643  23964302.9534                   23964302.6764
  -8930636.12947  -6928577.25046  21300872.3364                   21300869.8364
   1959075.84346   1528523.40242  24311633.9774                   24311634.8794
   -985064.63848   -737749.18446  20200780.7274                   20200778.3984
  13780112.59946  10732808.03343  24487338.4064                   24487336.4494
  -4738131.87648  -3655329.93746  20864433.5634                   20864429.7274
  -1192085.31946   -901726.04343  23490999.8754                   23490999.6604
   7625708.80548   5945606.43546  21345208.9064                   21345205.3914
  -9343651.84847  -7254740.13244  22997936.2424                   22997936.1844
    496992.87247    410201.83244  23628620.9304                   23628620.7194
 11  8 24 16 33 30.0000000  0 11G03G06G07G10G13G16G19G11G23G08G28
   6615483.72547   5160795.84744  21977695.8834                   21977695.3594
  10112389.21446   7889166.75643  23968233.9844                   23968233.2734
  -9054393.44847  -7025011.52346  21277321.6254                   21277319.0704
   1930107.17946   1505950.30142  24306121.4844                   24306120.7234
  -1017015.99448   -762646.38046  20194700.7814                   20194698.0704
  13793218.55246  10743020.50343  24489832.0704                   24489831.5354
  -4792731.80948  -3697875.35546  20854043.3674                   20854039.8984
  -1342624.60046  -1019029.36344  23462354.0864                   23462353.5784
   7640782.63848   5957352.20345  21348077.6024                   21348074.0984
  -9487853.19247  -7367104.80544  22970496.1644                   22970495.0634
    368802.07047    310312.89243  23604227.3134                   23604226.0944
 11  8 24 16 34  0.0000000  0 11G03G06G07G10G13G16G19G11G23G08G28
   6626836.04647   5169641.74145  21979856.6334                   21979856.3134
  10133258.15246   7905428.19343  23972205.4774                   23972205.2624
  -9178063.66148  -7121377.91746  21253787.8754                   21253785.9264
   1901384.24046   1483568.68842  24300655.5164                   24300654.4384
  -1048418.28748   -787115.73246  20188725.1644                   20188722.7734
  13806210.57146  10753143.99543  24492304.6024                   24492303.5704
  -4846743.54848  -3739962.45046  20843765.1094                   20843761.9964
  -1493138.28146  -1136312.75344  23433712.4614                   23433712.4024
   7656216.74548   5969378.69345  21351014.6564                   21351010.9494
  -9632119.75647  -7479520.27844  22943042.7894                   22943042.1564
    240806.72247    210576.24843  23579870.7734                   23579870.2774
 11  8 24 16 34 30.0000000  0 11G03G06G07G10G13G16G19G11G23G08G28
   6638556.01447   5178774.14845  21982087.2814                   21982086.1334
  10154336.47346   7921852.74443  23976216.6024                   23976215.8594
  -9301645.34548  -7217675.32246  21230271.2734                   21230268.5434
   1872904.60046   1461376.72342  24295236.4694                   24295235.9344
  -1079272.70848   -811158.18546  20182853.9774                   20182850.8094
  13819087.43546  10763177.76643  24494755.5314                   24494754.4774
  -4900167.93948  -3781591.85446  20833599.1174                   20833595.3874
  -1643623.87846  -1253574.15944  23405075.5314                   23405075.2734
   7672008.42948   5981683.83745  21354019.4614                   21354016.0394
  -9776450.58847  -7591985.81444  22915578.0944                   22915576.2894
    113006.48747    110991.68543  23555550.5944                   23555551.0164
 11  8 24 16 35  0.0000000  0 11G03G06G07G10G13G16G19G11G23G08G28
   6650653.08947   5188200.37445  21984389.2194                   21984388.5274
  10175633.84346   7938448.01843  23980269.4844                   23980269.5164
  -9425124.80748  -7313893.07446  21206773.6254                   21206771.3164
   1844677.68846   1439381.60242  24289864.5704                   24289866.3364
  -1109568.14648   -834765.07246  20177089.0004                   20177086.4614
  13831860.52646  10773130.77843  24497186.7584                   24497184.4104
  -4952993.39348  -3822754.54946  20823546.8524                   20823543.1134
  -1794065.93246  -1370801.69843  23376447.9844                   23376446.5594
   7688167.16548   5994274.99345  21357094.9384                   21357091.3554
  -9920832.78747  -7704491.42444  22888103.4304                   22888101.3164
    -14586.77647     11568.38143  23531270.8914                   23531269.5554
 11  8 24 16 35 30.0000000  0 11G03G06G07G10G13G16G19G11G23G08G28
   8238541.56547   6425516.01244  22286554.2664                   22286553.4964
  11772564.96546   9182809.80443  24284155.5704                   24284154.5784
  -7973078.53748  -6182428.43646  21483088.8284                   21483086.9654
   3392119.68345   2645180.47742  24584332.5634                   24584334.6564
    436113.25548    369661.96446  20471222.5084                   20471219.8754
  15419946.62546  12010600.39143  24799388.4144                   24799387.8914
  -3429800.68948  -2635851.13946  21113400.9144                   21113397.0474
   -369039.02946   -260391.08743  23647620.9064                   23647619.8094
   9280107.89348   7234748.20946  21660030.7424                   21660027.5984
  -8489843.12847  -6589434.50344  23160411.8754                   23160409.8484
   1433448.68847   1139907.71243  23806823.1484                   23806821.5594
 11  8 24 16 36  0.0000000  0 11G03G06G07G10G13G16G19G11G23G08G28
   8251385.20047   6435524.02045  22288998.7584                   22288997.6884
  11794294.12446   9199741.56343  24288290.5704                   24288289.9774
  -8096348.09748  -6278482.63246  21459631.3754                   21459629.7114
   3364391.56645   2623574.09042  24579055.9224                   24579058.5594
    406933.46448    346924.44146  20465669.6484                   20465667.2504
  15432511.33946  12020390.95943  24801779.8284                   24801779.2664
  -3481429.27948  -2676081.22646  21103576.3284                   21103572.0044
   -519384.75846   -377543.56243  23619011.0164                   23619010.2504
   9296994.61948   7247906.62845  21663244.5634                   21663240.8714
  -8634324.72947  -6702017.51944  23132917.4384                   23132916.3324
   1306269.23547   1040806.86044  23782621.3284                   23782620.6564
 11  8 24 16 36 30.0000000  0 11G03G06G07G10G13G16G19G11G23G08G28
   8264601.14347   6445822.10645  22291513.4924                   22291512.0594
  11816238.39146   9216840.95943  24292466.1334                   24292465.6524
  -8219507.13348  -6374450.69746  21436195.3204                   21436193.0594
   3336912.35746   2602161.57243  24573828.8284                   24573829.5314
    378312.46548    324622.31846  20460222.9454                   20460220.6334
  15444973.63646  12030101.74843  24804151.4924                   24804150.1524
  -3532457.42248  -2715843.41746  21093865.8134                   21093862.1604
   -669674.61747   -494652.42144  23590411.7194                   23590411.6134
   9314244.54648   7261348.04845  21666526.9844                   21666523.5204
  -8778851.46547  -6814635.76044  23105414.3594                   23105414.1174
   1179299.47747    941869.42544  23758459.8284                   23758459.5314
 11  8 24 16 37  0.0000000  0 11G03G06G07G10G13G16G19G11G23G08G28
   8278182.61547   6456405.04144  22294098.2664                   22294096.5274
  11838391.53846   9234103.05743  24296682.4694                   24296681.1844
  -8342558.26748  -6470334.69646  21412779.2814                   21412777.1054
   3309675.39446   2580937.96543  24568645.1804                   24568645.7304
    350245.72848    302752.10346  20454882.1414                   20454879.6644
  15457329.07346  12039729.29843  24806502.3204                   24806502.6174
  -3582889.89848  -2755141.46446  21084268.7584                   21084264.6214
   -819909.60747   -611718.57943  23561823.3054                   23561822.3484
   9331851.08547   7275067.37145  21669877.4924                   21669874.1564
  -8923426.32947  -6927291.45944  23077903.0864                   23077901.7934
   1052535.09247    843091.98944  23734336.7504                   23734336.9224
 11  8 24 16 37 30.0000000  0 11G03G06G07G10G13G16G19G11G23G08G28
   8292133.47047   6467275.78244  22296752.3754                   22296751.3134
  11860757.55046   9251531.01043  24300937.4614                   24300937.8364
  -8465493.17548  -6566128.11846  21389385.7034                   21389383.6564
   3282684.31746   2559905.88543  24563508.7194                   24563510.5354
    322738.40748    281317.78546  20449647.7974                   20449645.3134
  15469583.20146  12049277.86943  24808833.9064                   24808834.3834
  -3632721.00548  -2793970.89646  21074786.1254                   21074781.8094
   -970080.29047   -728734.59544  23533247.0234                   23533245.5234
   9349817.91847   7289067.41945  21673296.5004                   21673292.6994
  -9068041.98847  -7039978.92944  23050383.5704                   23050382.1294
    925982.14147    744479.36744  23710254.7274                   23710254.2424
 11  8 24 16 38  0.0000000  0 11G03G06G07G10G13G16G19G11G23G08G28
   8306448.23347   6478430.08944  22299476.4924                   22299475.5354
  11883331.13346   9269120.79843  24305232.9144                   24305233.4064
  -8588313.02348  -6661831.87946  21366013.5234                   21366011.6254
   3255934.06546   2539061.48443  24558418.4384                   24558420.8794
    295786.45348    260316.22546  20444519.1724                   20444516.8524
  15481732.55346  12058744.83843  24811147.1414                   24811145.6644
  -3681954.24348  -2832334.47146  21065417.6804                   21065413.6844
  -1120186.29847   -845700.23944  23504682.5314                   23504681.4694
   9368140.06048   7303344.33545  21676783.2814                   21676779.2034
  -9212699.88447  -7152699.33144  23022855.8444                   23022854.8484
    799637.83547    646029.29944  23686212.4224                   23686211.8874
 11  8 24 16 38 30.0000000  0 11G03G06G07G10G13G16G19G11G23G08G28
   8321127.40247   6489868.35645  22302270.5704                   22302269.4144
  11906112.99346   9286872.82042  24309569.3364                   24309568.7304
  -8711013.12348  -6757442.33646  21342664.3364                   21342662.0824
   3229425.03646   2518404.92243  24553374.9224                   24553375.6684
    269391.96148    239749.05646  20439496.2814                   20439494.0864
  15493779.95846  12068132.36343  24813438.8594                   24813438.5394
  -3730587.34148  -2870230.39646  21056163.0704                   21056159.1644
  -1270221.35347   -962610.55944  23476131.3984                   23476131.2544
   9386817.93447   7317898.45245  21680337.3754                   21680334.1684
  -9357396.19547  -7265449.68944  22995321.1564                   22995319.9454
    673504.93347    547744.00744  23662208.9694                   23662208.6914
 11  8 24 16 39  0.0000000  0 11G03G06G07G10G13G16G19G11G23G08G28
   8336167.03947   6501587.49744  22305132.4844                   22305131.8324
  11929099.92346   9304784.63743  24313943.6254                   24313942.9654
  -8833592.61048  -6852958.79746  21319338.4224                   21319336.0664
   3203154.01547   2497933.99144  24548375.8754                   24548376.7934
    243552.71648    219614.54246  20434579.3984                   20434576.5984
  15505724.10646  12077439.43843  24815711.7504                   24815711.9184
  -3778621.72448  -2907659.78946  21047022.3674                   21047018.7934
  -1420183.21747  -1079463.94544  23447594.5634                   23447594.4734
   9405848.45147   7332727.33445  21683958.8204                   21683956.3634
  -9502130.82947  -7378229.87544  22967779.6724                   22967778.1684
    547582.10147    449622.33743  23638247.8134                   23638246.9654
 11  8 24 16 39 30.0000000  0 11G03G06G07G10G13G16G19G11G23G08G28
   8351557.80747   6513580.25644  22308061.1724                   22308059.7384
  11952282.62746   9322849.03443  24318355.2034                   24318354.9184
  -8956056.83648  -6948385.45746  21296034.5234                   21296031.9694
   3177111.54047   2477641.03044  24543419.8364                   24543420.9344
    218260.69848    199906.44246  20429766.7274                   20429764.3244
  15517557.42046  12086660.11143  24817964.0554                   24817963.3984
  -3826065.34148  -2944628.86146  21037994.3444                   21037990.3554
  -1570075.92647  -1196263.37344  23419071.0864                   23419070.4884
   9425222.08048   7347823.60345  21687645.2504                   21687642.5594
  -9646909.61347  -7491044.50044  22940228.6174                   22940227.7384
    421862.33547    351658.93944  23614324.2274                   23614323.2704
 11  8 24 16 40  0.0000000  0 11G03G06G07G10G13G16G19G11G23G08G28
   8367306.04947   6525851.56044  22311057.9534                   22311056.4884
  11975667.77546   9341071.10443  24322804.6564                   24322804.1054
  -9078394.91848  -7043713.82646  21272754.1724                   21272751.9964
   3151304.28046   2457531.41144  24538508.3674                   24538509.9454
    193523.80748    180630.90746  20425059.0864                   20425057.0474
  15529288.23046  12095800.90143  24820196.3134                   24820195.4184
  -3872909.79848  -2981131.05646  21029079.6024                   21029076.4144
  -1719886.97147  -1312999.15744  23390562.6414                   23390562.2974
   9444945.27148   7363192.24345  21691399.0554                   21691395.7154
  -9791722.05647  -7603885.32844  22912671.4304                   22912670.8794
    296354.62047    253860.75344  23590440.1334                   23590440.5394
 11  8 24 16 40 30.0000000  0 11G03G06G07G10G13G16G19G11G23G08G28
   8383399.29947   6538391.72444  22314120.0084                   22314119.4614
  11999243.23246   9359441.48243  24327291.5164                   24327290.8204
  -9200614.57248  -7138949.92346  21249496.6724                   21249493.8524
   3125720.04846   2437595.56644  24533640.2894                   24533641.6414
    169331.12348    161779.42946  20420455.6334                   20420453.7544
  15540906.19346  12104853.82842  24822407.2584                   24822406.3984
  -3919165.66648  -3017174.61346  21020277.7194                   21020273.8754
  -1869623.38447  -1429676.85544  23362069.1954                   23362067.9064
   9465005.80548   7378823.74245  21695216.7504                   21695213.1804
  -9936576.78147  -7716759.12044  22885106.0784                   22885105.9844
    171048.66047    156219.77744  23566595.5864                   23566595.4224
 11  8 24 16 41  0.0000000  0 11G03G06G07G10G13G16G19G11G23G08G28
   8399835.98147   6551199.45444  22317248.0554                   22317247.2464
  12023007.60646   9377959.07843  24331813.6094                   24331814.3324
  -9322713.48048  -7234091.91846  21226262.0864                   21226259.7504
   3100356.79747   2417831.89244  24528813.9384                   24528815.8244
    145682.04348    143351.53746  20415955.0554                   20415953.0084
  15552411.74346  12113819.09343  24824597.0084                   24824595.9344
  -3964833.03548  -3052759.58546  21011587.5234                   21011583.2814
  -2019281.19547  -1546293.21744  23333589.5944                   23333589.5664
   9485401.92048   7394716.74045  21699097.6954                   21699094.3714
 -10081471.99047  -7829664.43744  22857533.6254                   22857532.8634
     45945.14847     58736.55544  23542789.5864                   23542789.0944
 11  8 24 16 41 30.0000000  0 11G03G06G07G10G13G16G19G11G23G08G28
   8416612.86147   6564272.28144  22320440.7114                   22320439.5744
  12046958.16646   9396621.82443  24336371.2504                   24336371.4184
  -9444690.29048  -7329138.77846  21203050.7814                   21203047.8914
   3075212.34047   2398238.71644  24524029.0864                   24524030.6174
    122575.18248    125346.13946  20411558.0084                   20411555.9064
  15563804.15246  12122696.32043  24826765.5394                   24826763.8834
  -4009913.22048  -3087887.01846  21003009.4144                   21003005.1294
  -2168857.11847  -1662845.83844  23305126.4304                   23305125.9964
   9506130.90947   7410869.11745  21703042.3054                   21703039.4264
 -10226407.20947  -7942600.95144  22829953.5004                   22829953.3594
    -78956.55747    -38589.38244  23519021.0004                   23519020.1804
 11  8 24 16 42  0.0000000  0 11G03G06G07G10G13G16G19G11G23G08G28
   8433726.77047   6577607.74944  22323697.6484                   22323696.3054
  12071092.08746   9415427.37343  24340964.0634                   24340964.2664
  -9566543.64648  -7424089.44146  21179862.4774                   21179859.8284
   3050283.09547   2378813.26444  24519286.1954                   24519286.4454
    100008.51848    107761.69646  20407264.1804                   20407261.9494
  15575082.12246  12131484.27742  24828910.3594                   24828910.1174
  -4054407.48347  -3122557.88746  20994542.0004                   20994538.0394
  -2318349.00047  -1779332.94244  23276678.5394                   23276677.7344
   9527189.37047   7427278.23745  21707049.6724                   21707046.8364
 -10371381.82547  -8055568.16644  22802365.9064                   22802365.3984
   -203657.20347   -135758.74044  23495291.5944                   23495291.0044
 11  8 24 16 42 30.0000000  0 11G03G06G07G10G13G16G19G11G23G08G28
   8451170.81547   6591200.44544  22327017.0864                   22327015.7274
  12095402.58746   9434370.50443  24345590.3914                   24345589.7664
  -9688275.81548  -7518945.67646  21156697.6334                   21156695.2734
   3025562.42146   2359550.33443  24514582.0784                   24514582.4414
     77976.69848     90593.99546  20403071.1414                   20403069.3674
  15586240.99646  12140179.45342  24831034.8134                   24831033.7194
  -4098320.99747  -3156776.21246  20986185.7034                   20986181.6334
  -2467757.74447  -1895755.30144  23248247.4844                   23248246.2194
   9548571.02448   7443939.17245  21711118.6644                   21711116.0634
 -10516398.45247  -8168568.08944  22774770.0784                   22774769.0594
   -328161.24547   -232774.83344  23471598.8444                   23471599.3284
 11  8 24 16 43  0.0000000  0 10G03G06G07G10G13G19G11G23G08G28
   8468938.75147   6605045.54644  22330397.8524                   22330397.4844
  12119884.22646   9453447.04543  24350249.0314                   24350249.4924
  -9809888.51348  -7613708.81146  21133555.5554                   21133553.4844
   3001044.37747   2340445.27043  24509915.3984                   24509917.5554
     56474.95748     73839.35046  20398979.7504                   20398977.6764
  -4141658.14947  -3190545.43246  20977938.6174                   20977935.1374
  -2617083.65847  -2012113.04744  23219831.5314                   23219830.6844
   9570269.80848   7460847.22745  21715248.2344                   21715244.9774
 -10661459.18447  -8281602.37344  22747165.8364                   22747164.6604
   -452472.32747   -329640.56144  23447943.5314                   23447942.6134
 11  8 24 16 43 30.0000000  0 10G03G06G07G10G13G19G11G23G08G28
   8487038.20947   6619148.97344  22333842.8594                   22333841.2734
  12144544.44146   9472662.77543  24354941.3834                   24354942.1454
  -9931369.84648  -7708369.58846  21110438.3984                   21110436.0314
   2976736.56046   2321504.00443  24505290.0864                   24505291.4184
     35512.02748     57504.55946  20394990.6644                   20394988.5204
  -4184409.78247  -3223858.41046  20969803.3444                   20969799.7194
  -2766312.95347  -2128395.57644  23191433.6414                   23191433.6484
   9592293.38648   7478008.37245  21719438.7734                   21719435.6954
 -10806552.78547  -8394662.28944  22719555.0164                   22719553.7384
   -576580.85147   -426348.48144  23424326.2894                   23424325.5554
 11  8 24 16 44  0.0000000  0 10G03G06G07G10G13G19G11G23G08G28
   8505478.23147   6633517.74844  22337351.3914                   22337350.3834
  12169393.18746   9492025.24543  24359670.8364                   24359670.1914
 -10052706.11948  -7802917.33546  21087349.3204                   21087346.7734
   2952648.44846   2302733.96243  24500706.8754                   24500707.6484
     15098.27948     41597.70346  20391106.2504                   20391104.3204
  -4226565.22747  -3256706.83046  20961781.5944                   20961778.2584
  -2915431.08247  -2244591.48244  23163058.0864                   23163056.4414
   9614650.78048   7495429.64245  21723693.8054                   21723690.1174
 -10951666.47847  -8507737.85744  22691941.5784                   22691940.2894
   -700475.10247   -522889.40344  23400750.0634                   23400749.1764
 11  8 24 16 44 30.0000000  0 10G03G06G07G10G13G19G11G23G08G28
   8524254.33047   6648148.42344  22340924.3204                   22340923.0314
  12194425.86146   9511531.15143  24364433.6174                   24364433.0314
 -10173897.57248  -7897352.23446  21064286.8284                   21064284.3594
   2928775.58046   2284131.71043  24496163.9844                   24496165.6454
     -4769.40648     26116.34446  20387325.3754                   20387323.4024
  -4268127.33448  -3289092.90046  20953872.5704                   20953868.5274
  -3064436.64547  -2360699.61944  23134703.0864                   23134701.5904
   9637337.67948   7513107.65145  21728010.5864                   21728007.1994
 -11096800.86147  -8620829.55944  22664322.9844                   22664322.4344
   -824157.36247   -619265.15144  23377213.9144                   23377213.1524
 11  8 24 16 45  0.0000000  0 10G03G06G07G10G13G19G11G23G08G28
   8543365.61947   6663040.29044  22344561.4064                   22344559.1374
  12219641.66646   9531179.84943  24369232.1024                   24369232.1994
 -10294940.61448  -7991671.48246  21041253.1644                   21041250.8714
   2905117.10146   2265696.37743  24491662.0944                   24491663.7424
    -24090.64748     11060.78546  20383648.7194                   20383646.6764
  -4309095.59848  -3321016.24346  20946076.2114                   20946072.5594
  -3213324.59047  -2476716.15144  23106369.8674                   23106369.3284
   9660352.87247   7531041.47645  21732390.2194                   21732386.8914
 -11241953.00847  -8733935.08544  22636701.4454                   22636700.0474
   -947626.41847   -715474.79244  23353718.7424                   23353718.6054
 11  8 24 16 45 30.0000000  0 10G03G06G07G10G13G19G11G23G08G28
   8562797.57347   6678182.02144  22348259.2424                   22348258.1564
  12245027.20046   9550960.69542  24374062.8914                   24374062.6454
 -10415844.81948  -8085882.54246  21018246.0004                   21018243.7624
   2881658.78046   2247417.04443  24487197.6884                   24487199.0354
    -42878.83648     -3579.40846  20380073.3444                   20380071.3054
  -4349482.29848  -3352486.40846  20938391.7664                   20938387.8954
  -3362103.50047  -2592647.72844  23078059.3754                   23078058.4964
   9683682.56548   7549220.37045  21736829.9304                   21736827.2194
 -11387133.14247  -8847062.45244  22609074.6724                   22609073.8054
  -1070893.93947   -811527.37344  23330261.7424                   23330260.5514
 11  8 24 16 46  0.0000000  0 10G03G06G07G10G13G19G11G23G08G28
  10157968.58347   7921172.37444  22651810.2734                   22651809.1374
  13846000.98545  10798472.65242  24678716.9774                   24678718.0084
  -8961182.57848  -6952379.49146  21295058.8834                   21295056.1254
   4433820.83745   3456893.91442  24782564.1174                   24782565.5634
   1514287.34348   1209796.79946  20676392.6804                   20676390.9184
  -2813865.31048  -2155901.75146  21230609.2734                   21230605.7074
  -1935343.33947  -1480886.49344  23349562.3284                   23349562.1374
  11282745.27647   8795243.16645  22041121.8364                   22041118.9064
  -9956913.42947  -7732605.48544  22881236.2424                   22881235.4734
    381465.83747    320181.55644  23606636.5634                   23606635.8634
 11  8 24 16 46 30.0000000  0 10G03G06G07G10G13G19G11G23G08G28
  10178028.84947   7936803.65744  22655627.2504                   22655626.8794
  13871713.60245  10818508.38342  24683611.0554                   24683610.8634
  -9081808.78348  -7046373.93746  21272104.5084                   21272101.9614
   4410750.53346   3438916.92242  24778174.3284                   24778175.3094
   1496556.25148   1195980.31446  20673018.4924                   20673016.4804
  -2853097.30248  -2186472.14946  21223143.7504                   21223139.9344
  -2083899.57547  -1596644.53944  23321292.8674                   23321292.2704
  11306691.11147   8813902.17045  22045678.0394                   22045675.5044
 -10102150.69347  -7845777.36745  22853598.6804                   22853597.1294
    258595.44347    224438.39044  23583255.6254                   23583253.4964
 11  8 24 16 47  0.0000000  0 10G03G06G07G10G13G19G11G23G08G28
  10198394.59847   7952673.00444  22659503.1954                   22659502.8094
  13897581.54545  10838665.14842  24688533.9064                   24688534.0314
  -9202298.08748  -7140261.70246  21249175.8524                   21249173.8364
   4387865.69046   3421084.46142  24773819.3444                   24773821.1214
   1479346.91548   1182570.40046  20669743.8204                   20669741.3954
  -2891758.77148  -2216597.98846  21215786.5944                   21215782.6844
  -2232344.64547  -1712315.99044  23293044.3914                   23293042.9534
  11330936.08947   8832794.26245  22050291.6414                   22050288.9534
 -10247419.47847  -7958973.80144  22825954.9534                   22825954.1644
    135918.34147    128845.87144  23559910.2664                   23559909.5164
 11  8 24 16 47 30.0000000  0 10G03G06G07G10G13G19G11G23G08G28
  10219064.76247   7968779.56844  22663436.2664                   22663435.9494
  13923604.07045  10858942.34442  24693485.9614                   24693486.1724
  -9322646.79648  -7234039.91046  21226274.5314                   21226272.0904
   4365165.43646   3403395.90242  24769500.1024                   24769501.3984
   1462659.11148   1169566.86946  20666568.1094                   20666565.6374
  -2929849.13948  -2246278.80346  21208538.5394                   21208534.7894
  -2380673.50147  -1827896.84044  23264818.4694                   23264817.0704
  11355479.63947   8851918.99945  22054962.4694                   22054959.6684
 -10392716.55847  -8072192.29145  22798305.9694                   22798304.5234
     13435.68147     33404.85444  23536602.8444                   23536601.8594
 11  8 24 16 48  0.0000000  0 10G03G06G07G10G13G19G11G23G08G28
  10240037.07547   7985121.57244  22667427.1564                   22667426.0594
  13949779.37146  10879338.65343  24698466.9384                   24698467.2034
  -9442852.63348  -7327706.79946  21203400.1334                   21203396.6804
   4342647.58746   3385849.39142  24765214.5394                   24765217.4304
   1446492.11848   1156969.16546  20663491.8594                   20663489.4494
  -2967369.00848  -2275515.07146  21201398.8134                   21201394.2774
  -2528882.23247  -1943384.14544  23236615.3284                   23236614.1294
  11380319.36747   8871274.53545  22059689.5084                   22059686.4534
 -10538040.67747  -8185431.84545  22770651.7114                   22770650.5164
   -108852.40247    -61884.54444  23513332.5704                   23513331.9614
 11  8 24 16 48 30.0000000  0 10G03G06G07G10G13G19G11G23G08G28
  10261306.07547   8001694.72144  22671474.4694                   22671474.2304
  13976102.12846  10899849.72543  24703476.2504                   24703477.4844
  -9562916.77448  -7421263.26446  21180552.3914                   21180550.5234
   4320306.86246   3368440.94942  24760963.4924                   24760966.6454
   1430841.07948   1144773.50846  20660513.6094                   20660511.5634
  -3004322.58747  -2304310.08046  21194366.9224                   21194362.1454
  -2676971.03647  -2058777.98744  23208434.9454                   23208434.8244
  11405449.75747   8890856.55145  22064471.7664                   22064469.3204
 -10683393.39047  -8298693.68945  22742992.2664                   22742990.2774
   -230949.00946   -157024.74544  23490098.2734                   23490097.0554
 11  8 24 16 49  0.0000000  0 10G03G06G07G10G13G19G11G23G08G28
  10282863.56546   8018492.72644  22675577.2114                   22675575.8594
  14002565.28346  10920470.30643  24708512.8674                   24708512.2344
  -9682842.15448  -7514711.61446  21157731.6564                   21157729.5744
   4298135.49346   3351164.51642  24756744.8914                   24756745.6214
   1415699.39148   1132974.75146  20657631.9694                   20657630.0864
  -3040715.97948  -2332668.59046  21187441.6334                   21187437.5634
  -2824941.55547  -2174079.63344  23180276.8674                   23180275.9774
  11430863.36947   8910659.26645  22069308.0394                   22069304.9104
 -10828778.23047  -8411980.52344  22715325.9694                   22715324.5164
   -352859.86047   -252020.17944  23466898.7584                   23466897.5434
 11  8 24 16 49 30.0000000  0 10G03G06G07G10G13G19G11G23G08G28
  10304711.55147   8035517.06844  22679734.5314                   22679733.5744
  14029170.88945  10941201.94943  24713575.3444                   24713575.0274
  -9802622.58748  -7608047.01946  21134937.9774                   21134935.7704
   4276135.14046   3334021.32042  24752557.6724                   24752558.1024
   1401070.09948   1121575.27046  20654848.4384                   20654846.3794
  -3076546.12748  -2360588.18646  21180623.3594                   21180619.6094
  -2972786.04547  -2289283.10244  23152143.3204                   23152141.8244
  11456561.79947   8930683.92645  22074198.4144                   22074194.8794
 -10974189.34047  -8525287.86744  22687654.7894                   22687653.7384
   -474580.77147   -346867.62044  23443735.5164                   23443735.0984
 11  8 24 16 50  0.0000000  0 10G03G06G07G10G13G19G11G23G08G28
  10326845.70347   8052764.37544  22683946.8284                   22683945.9734
  14055914.68945  10962041.12643  24718664.0474                   24718664.5234
  -9922257.77148  -7701269.22546  21112172.5944                   21112170.3134
   4254301.65446   3317008.19243  24748403.1954                   24748404.9304
   1386949.78548   1110572.38046  20652161.3054                   20652158.9534
  -3111816.18647  -2388071.37046  21173911.7504                   21173907.1604
  -3120502.97047  -2404387.14544  23124033.6804                   23124032.9024
  11482540.55547   8950927.01145  22079141.6724                   22079138.8794
 -11119627.07547  -8638615.95844  22659979.3524                   22659978.2194
   -596113.78847   -441568.64044  23420609.6724                   23420609.2114
 11  8 24 16 50 30.0000000  0 10G03G06G07G10G13G19G11G23G08G28
  10349263.70747   8070232.91444  22688212.4924                   22688211.5784
  14082795.17645  10982986.91842  24723778.8444                   24723779.1414
 -10041745.45248  -7794376.50746  21089434.9144                   21089432.5044
   4232633.23846   3300123.57843  24744280.5864                   24744282.7114
   1373337.61448   1099965.44646  20649571.0314                   20649568.7234
  -3146526.76547  -2415118.58546  21167306.3674                   21167302.2194
  -3268088.68647  -2519388.97344  23095948.5864                   23095947.4694
  11508797.45647   8971386.83145  22084138.6094                   22084135.3754
 -11265089.44747  -8751963.22345  22632298.7424                   22632297.7154
   -717458.79947   -536123.13444  23397517.1484                   23397517.0234
 11  8 24 16 51  0.0000000  0 10G03G06G07G10G13G19G11G23G08G28
  10371958.24447   8087916.89343  22692531.2344                   22692530.6524
  14109805.43245  11004033.80942  24728918.6884                   24728920.0664
 -10161087.99548  -7887370.69646  21066724.4534                   21066722.2034
   4211122.83746   3283362.18043  24740187.2814                   24740188.9384
   1360226.74248   1089749.13146  20647076.2734                   20647074.0634
  -3180683.70348  -2441734.39146  21160806.2344                   21160802.6054
  -3415544.44047  -2634289.52044  23067889.1804                   23067887.8444
  11535325.97347   8992058.29745  22089186.8834                   22089183.8244
 -11410579.75247  -8865332.27245  22604612.6254                   22604611.8324
   -838620.59546   -630534.87244  23374461.4534                   23374460.6604
 11  8 24 16 51 30.0000000  0 10G03G06G07G10G13G19G11G23G08G28
  10394921.55047   8105810.32144  22696900.7734                   22696900.2234
  14136937.99445  11025175.95143  24734082.6414                   24734084.4924
 -10280288.83248  -7980254.45546  21044041.1484                   21044039.3754
   4189762.33946   3266717.49643  24736121.5084                   24736123.4454
   1347610.62548   1079918.35046  20644674.9694                   20644673.5234
  -3214293.93248  -2467924.18646  21154410.4774                   21154407.0474
  -3562872.04347  -2749090.22044  23039853.4774                   23039852.5664
  11562117.87747   9012934.99845  22094284.8054                   22094282.9734
 -11556102.07047  -8978726.25745  22576920.7584                   22576919.6174
   -959605.25547   -724808.59744  23351438.7194                   23351438.8444
 11  8 24 16 52  0.0000000  0 10G03G06G07G10G13G19G11G23G08G28
  10418156.91447   8123915.73644  22701322.8364                   22701321.9454
  14164196.06445  11046416.10443  24739269.1414                   24739270.8244
 -10399340.22948  -8073021.76746  21021386.6644                   21021383.7424
   4168554.87646   3250192.13243  24732087.0864                   24732088.0354
   1335492.79148   1070475.82846  20642369.7504                   20642367.4104
  -3247352.87248  -2493684.41946  21148119.9224                   21148116.1484
  -3710062.85947  -2863784.30344  23011843.8054                   23011842.5554
  11589175.94247   9034019.09945  22099433.6804                   22099432.1994
 -11701649.24847  -9092139.63645  22549223.9064                   22549223.1094
  -1080407.24047   -818939.98044  23328451.1954                   23328450.2734
 11  8 24 16 52 30.0000000  0 10G03G06G07G10G13G19G11G23G08G28
  10441658.00947   8142228.22344  22705795.0314                   22705795.0084
  14191574.57045  11067749.77042  24744480.0394                   24744479.4804
 -10518243.52147  -8165673.67446  20998760.0394                   20998757.9384
   4147494.84446   3233781.61443  24728079.1174                   24728080.5784
   1323868.94348   1061418.23746  20640157.6644                   20640155.5394
  -3279865.01848  -2519018.57046  21141933.0234                   21141929.1294
  -3857116.86447  -2978371.78944  22983860.9924                   22983859.0864
  11616494.58447   9055306.25545  22104632.6024                   22104630.4734
 -11847222.82747  -9205573.54945  22521522.4614                   22521520.9774
  -1201029.91746   -912931.60844  23305497.5474                   23305495.8634
 11  8 24 16 53  0.0000000  0 10G03G06G07G10G13G19G11G23G08G28
  10465420.98146   8160744.73544  22710317.0164                   22710315.9184
  14219070.09245  11089174.80142  24749711.3204                   24749711.3444
 -10636997.64647  -8258209.35546  20976161.6564                   20976159.1054
   4126578.61046   3217483.19043  24724099.6954                   24724101.1564
   1312736.14348   1052743.27146  20638039.1644                   20638037.3164
  -3311833.04648  -2543928.74146  21135849.7194                   21135845.6294
  -4004031.59647  -3092850.77444  22955903.8364                   22955902.4694
  11644070.19347   9076793.62545  22109880.4924                   22109877.5554
 -11992822.23847  -9319027.60745  22493815.8834                   22493814.8714
  -1321474.98246  -1006784.85144  23282577.4614                   23282576.5474
 11  8 24 16 53 30.0000000  0 10G03G06G07G10G13G19G11G23G08G28
  10489437.70347   8179458.98044  22714887.0634                   22714886.5634
  14246674.29645  11110684.53142  24754964.6954                   24754965.0594
 -10755606.85648  -8350632.11046  20953591.4774                   20953589.4104
   4105797.63546   3201290.09643  24720145.0394                   24720146.5354
   1302086.73248   1044444.98446  20636012.2274                   20636010.6454
  -3343264.25148  -2568420.60046  21129868.4694                   21129864.7894
  -4150809.86647  -3207223.39044  22927972.4454                   22927971.6254
  11671893.89047   9098474.31345  22115175.4454                   22115171.4104
 -12138451.84247  -9432505.19045  22466103.4694                   22466102.5234
  -1441748.81146  -1100504.67444  23259689.6804                   23259688.8874
 11  8 24 16 54  0.0000000  0 10G03G06G07G10G13G19G11G23G08G28
  10513710.33047   8198372.67044  22719506.6414                   22719505.5554
  14274389.73345  11132280.87942  24760237.7504                   24760237.4774
 -10874064.25148  -8442936.55646  20931049.7734                   20931047.3984
   4085154.42946   3185204.37243  24716215.8594                   24716219.1174
   1291923.63048   1036525.63246  20634078.7664                   20634077.4534
  -3374155.09147  -2592491.40046  21123990.3364                   21123985.9884
  -4297443.78447  -3321483.53944  22900069.1724                   22900068.0474
  11699967.95247   9120350.07345  22120517.7814                   22120514.3554
 -12284105.78447  -9546001.74145  22438386.1804                   22438384.8714
  -1561846.97147  -1194087.60544  23236835.5164                   23236834.8094
 11  8 24 16 54 30.0000000  0 10G03G06G07G10G13G19G11G23G08G28
  10538237.40047   8217484.58244  22724173.9454                   22724173.7384
  14302215.77345  11153963.48842  24765534.4304                   24765532.9924
 -10992366.34848  -8535120.00146  20908537.3834                   20908535.3714
   4064647.81246   3169225.15943  24712314.7894                   24712316.0204
   1282246.74448   1028985.14946  20632237.4224                   20632235.5594
  -3404505.57547  -2616141.13546  21118214.4304                   21118210.1644
  -4443928.34847  -3435627.32744  22872193.5634                   22872192.4414
  11728291.24347   9142420.05845  22125907.2344                   22125903.9384
 -12429781.07747  -9659514.94645  22410665.4924                   22410663.8834
  -1681768.20547  -1287532.66844  23214015.5784                   23214014.2934
 11  8 24 16 55  0.0000000  0 10G03G06G07G10G13G19G11G23G08G28
  10563014.75147   8236791.53443  22728888.5864                   22728888.5124
  14330149.05246  11175729.62942  24770849.5944                   24770848.4844
 -11110512.52847  -8627181.94246  20886054.7894                   20886052.5704
   4044273.68146   3153349.08243  24708437.0864                   24708437.8984
   1273052.65348   1021820.87846  20630487.7894                   20630485.4414
  -3434318.67347  -2639372.12546  21112541.5394                   21112537.6294
  -4590261.69347  -3549653.25844  22844347.3984                   22844346.1844
  11756860.00547   9164681.30645  22131343.6564                   22131340.9064
 -12575477.49147  -9773044.56645  22382940.0004                   22382938.7304
  -1801514.60147  -1380841.50044  23191228.7344                   23191228.0234
 11  8 24 16 55 30.0000000  0  9G03G07G10G13G19G11G23G08G28
  10588038.00147   8256290.08643  22733650.6414                   22733650.1684
 -11228502.42347  -8719122.11046  20863602.4064                   20863599.7344
   4024027.72046   3137572.88043  24704584.8204                   24704585.4964
   1264337.63748   1015029.89946  20628829.3204                   20628827.5124
  -3463597.70047  -2662186.96946  21106969.7194                   21106965.8244
  -4736442.56247  -3663560.36244  22816529.7894                   22816528.7344
  11785669.20947   9187129.93745  22136826.1564                   22136824.1094
 -12721195.69247  -9886591.20045  22355210.4844                   22355209.4804
  -1921088.49547  -1474015.91744  23168474.5634                   23168473.3594
 11  8 24 16 56  0.0000000  0  9G03G07G10G13G19G11G23G08G28
  10613317.64946   8275988.47243  22738459.9454                   22738459.6294
 -11346321.11047  -8810928.86946  20841182.0394                   20841179.5394
   4003920.60746   3121904.89043  24700758.5554                   24700760.5554
   1256112.92048   1008620.99046  20627264.2734                   20627262.8014
  -3492331.37947  -2684576.86246  21101501.7664                   21101498.2894
  -4882454.65847  -3777335.96944  22788744.9844                   22788744.7034
  11814729.62847   9209774.31845  22142356.3834                   22142353.8524
 -12866920.80847 -10000143.22145  22327479.5864                   22327478.9454
  -2040477.02446  -1567045.90044  23145755.5004                   23145754.7234
 11  8 24 16 56 30.0000000  0  9G03G07G10G13G19G11G23G08G28
  10638857.77946   8295889.81143  22743321.5004                   22743320.5784
 -11463960.07848  -8902595.58946  20818796.2194                   20818794.2544
   3983956.23546   3106348.19043  24696959.7894                   24696960.9964
   1248383.64048   1002598.11846  20625793.7424                   20625792.1094
  -3520514.58447  -2706537.81846  21096138.8984                   21096135.2464
  -5028287.96947  -3890972.25944  22760993.2194                   22760993.1844
  11844045.04347   9232617.35845  22147934.7114                   22147933.0164
 -13012644.64147 -10113694.23945  22299749.7664                   22299748.5124
  -2159674.18547  -1659926.76044  23123073.5314                   23123072.2034
 11  8 24 16 57  0.0000000  0 10G03G24G07G10G13G19G11G23G08G28
  12240067.89646   9543585.91143  23048021.8364
  23048021.2384                   15465695.01916                  24499446.398
 -10006000.14048  -7766522.90546  21096236.3524                   21096234.2304
   5539546.14346   4318495.97843  24992978.4384                   24992979.4964
   2816560.92248   2224554.38846  20924207.7424                   20924206.0594
  -1972734.58348  -1500475.48846  21390671.4774                   21390667.3284
  -3598521.21346  -2776868.27144  23033069.0554                   23033067.4384
  13449024.66247  10483250.72545  22453352.5084                   22453350.3444
 -11582947.65747  -8999644.61145  22571812.0474                   22571810.4924
   -703263.22747   -525061.04244  23400218.7114                   23400217.6334
 11  8 24 16 57 30.0000000  0 10G03G24G07G10G13G19G11G23G08G28
  12266093.79246   9563865.76943  23052973.8674
  23052974.0354                   15320716.981 6                  24471859.047
 -10123300.17947  -7857925.50746  21073915.1094                   21073912.8284
   5519833.25146   4303135.10743  24989227.3984                   24989229.8554
   2809789.40048   2219277.83546  20922918.9614                   20922917.5474
  -1999847.91547  -1521602.76946  21385511.9844                   21385508.0634
  -3744013.88347  -2890239.12744  23005382.7584                   23005380.5124
  13478815.25247  10506464.04745  22459021.1094                   22459018.6414
 -11728690.83147  -9113210.69945  22544077.9844                   22544076.7424
   -822105.53146   -617665.40444  23377604.0234                   23377603.6024
 11  8 24 16 58  0.0000000  0 10G03G24G07G10G13G19G11G23G08G28
  12292347.99946   9584323.45543  23057969.5704
  23057969.3714                   15175636.291 5                  24444249.414
 -10240438.30947  -7949201.97046  21051624.5864                   21051622.4104
   5500231.17246   4287860.71943  24985496.4064                   24985499.4104
   2803483.24848   2214363.90046  20921718.9304                   20921717.0514
  -2026439.56247  -1542323.54946  21380451.9844                   21380448.3054
  -3889342.01046  -3003481.78044  22977727.9384                   22977726.7934
  13508828.91447  10529851.18845  22464733.0004                   22464729.6294
 -11874452.05847  -9226790.83745  22516340.1644                   22516339.0704
   -940781.84647   -710140.40944  23355020.4064                   23355019.4144
 11  8 24 16 58 30.0000000  0 10G03G24G07G10G13G19G11G23G08G28
  12318828.55846   9604957.62843  23063009.4304
  23063008.1914                   15030456.490 5                  24416621.734
 -10357411.90748  -8040350.21646  21029365.4064                   21029362.6214
   5480738.25546   4272671.28142  24981788.3984                   24981788.3404
   2797641.41348   2209811.77246  20920607.5234                   20920605.7504
  -2052510.32547  -1562638.43046  21375490.6484                   21375487.0314
  -4034501.61447  -3116593.10244  22950105.3444                   22950103.6954
  13539063.31047  10553410.35245  22470486.6094                   22470483.8364
 -12020229.03347  -9340383.24345  22488600.0554                   22488599.2734
  -1059291.84847   -802485.82444  23332468.5634                   23332467.5004
 11  8 24 16 59  0.0000000  0 10G03G24G07G10G13G19G11G23G08G28
  12345538.12447   9625770.23143  23068092.7894
  23068091.9574                   14885186.414 5                  24388979.453
 -10474213.26647  -8131364.25346  21007138.5864                   21007136.5274
   5461357.68646   4257569.41842  24978100.0944                   24978100.6484
   2792267.29648   2205624.10346  20919584.7894                   20919583.2114
  -2078056.40947  -1582544.48146  21370629.5634                   21370625.5704
  -4179483.98047  -3229566.33344  22922515.2664                   22922514.3714
  13569521.58647  10577143.97245  22476282.6484                   22476280.2664
 -12166014.97847  -9453982.64945  22460857.5164                   22460856.6174
  -1177630.64346   -894697.82344  23309949.7114                   23309948.6414
 11  8 24 16 59 30.0000000  0 10G03G24G07G10G13G19G11G23G08G28
  12372471.37546   9646757.05943  23073216.7734
  23073216.6644   14739825.72145  11513549.47752  24361318.0704   24361320.7034
 -10590843.27447  -8222244.76346  20984944.4224                   20984942.4534
   5442083.84446   4242550.73843  24974431.5084                   24974435.4774
   2787355.95948   2201797.04846  20918650.4534                   20918648.1414
  -2103082.34247  -1602045.21646  21365867.2894                   21365863.2704
  -4324288.75947  -3342401.20444  22894960.1414                   22894958.3364
  13600197.97447  10601047.51445  22482120.1484                   22482118.2664
 -12311810.84447  -9567589.79845  22433113.6414                   22433112.6334
  -1295801.79747   -986779.20444  23287462.2504                   23287461.6604
 11  8 24 17  0  0.0000000  0 10G03G24G07G10G13G19G11G23G08G28
  12399625.80646   9667916.28343  23078385.1884
  23078384.4964   14594377.35246  11400213.32643  24333639.9534   24333643.3954
 -10707299.85447  -8312990.14146  20962783.9614                   20962781.2154
   5422914.11746   4227613.17743  24970784.2114                   24970786.9184
   2782905.52248   2198329.11946  20917803.7504                   20917801.4384
  -2127589.77647  -1621141.92946  21361203.7734                   21361200.1804
  -4468912.57747  -3455095.03444  22867438.9774                   22867437.7504
  13631089.92347  10625119.03845  22487998.5474                   22487996.5354
 -12457615.20547  -9681203.56245  22405368.1954                   22405366.8834
  -1413805.30646  -1078729.95644  23265007.4844                   23265005.7034
 11  8 24 17  0 30.0000000  0 10G03G24G07G10G13G19G11G23G08G28
  12426997.74746   9689245.01743  23083593.5084
  23083593.1454   14448843.46446  11286810.41243  24305945.1884   24305950.2664
 -10823581.98047  -8403599.58646  20940655.9384                   20940653.4774
   5403845.13346   4212754.09043  24967156.3134                   24967158.4104
   2778913.15348   2195218.13046  20917043.6884                   20917041.8324
  -2151581.29447  -1639836.63546  21356638.3444                   21356634.5004
  -4613352.97047  -3567645.95044  22839952.9614                   22839952.5634
  13662193.90447  10649355.77845  22493918.0004                   22493915.8164
 -12603426.94447  -9794823.07745  22377621.0474                   22377620.2114
  -1531642.81147  -1170551.34344  23242583.1334                   23242582.3714
 11  8 24 17  1  0.0000000  0  9G03G24G07G13G19G11G23G08G28
  12454588.63946   9710744.34443  23088844.2034
  23088842.7704   14303231.33746  11173346.52743  24278236.4224   24278239.7034
 -10939683.15548  -8494068.02546  20918562.5004                   20918561.0474
   2775380.79748   2192465.60046  20916371.4064                   20916369.6844
  -2175054.48647  -1658127.46246  21352171.2114                   21352167.5984
  -4757602.52547  -3680048.17544  22812503.1254                   22812501.8014
  13693511.30747  10673758.82745  22499877.5084                   22499875.8134
 -12749240.43147  -9908443.91945  22349873.4614                   22349872.2154
  -1649310.62047  -1262240.49444  23220191.6174                   23220191.2704
 11  8 24 17  1 30.0000000  0  9G03G24G07G13G19G11G23G08G28
  12482398.15146   9732414.03843  23094135.6024
  23094134.5514   14157545.87846  11059825.48943  24250513.2504   24250516.4144
 -11055599.46948  -8584392.41446  20896504.6484                   20896502.0004
   2772308.87248   2190071.84146  20915787.2344                   20915784.5984
  -2198009.11548  -1676014.19546  21347803.3054                   21347799.7154
  -4901655.99847  -3792297.63244  22785090.7974                   22785089.4384
  13725041.64047  10698327.78945  22505878.0004                   22505875.5744
 -12895051.91447 -10022063.27245  22322126.5554                   22322124.7664
  -1766807.17647  -1353796.21144  23197832.4144                   23197831.4844
 11  8 24 17  2  0.0000000  0  9G03G24G07G13G19G11G23G08G28
  12510432.57446   9754258.98843  23099471.1564
  23099470.7934   14011799.23046  10946256.84343  24222778.6334   24222782.3444
 -11171319.57548  -8674563.92646  20874483.8834                   20874481.6334
   2769704.10848   2188042.10546  20915291.5314                   20915289.3204
  -2220437.84148  -1693491.15746  21343535.3054                   21343531.4774
  -5045500.97046  -3904384.56644  22757718.1094                   22757715.7934
  13756791.26447  10723067.62545  22511918.9774                   22511917.6954
 -13040850.65447 -10135672.64345  22294381.9614                   22294380.5704
  -1884123.86347  -1445211.76544  23175508.1564                   23175506.9184
 11  8 24 17  2 30.0000000  0  9G03G24G07G13G19G11G23G08G28
  12538687.19346   9776275.43343  23104847.0164
  23104846.5314   13865992.15946  10832641.05643  24195032.7424   24195036.3874
 -11286843.58848  -8764582.61846  20852499.9064                   20852498.1484
   2767562.48348   2186373.25646  20914884.0864                   20914882.2274
  -2242344.42748  -1710561.24546  21339366.3134                   21339362.2344
  -5189136.29047  -4016308.12644  22730384.8754                   22730383.2894
  13788755.18447  10747974.44645  22518002.5784                   22518000.3794
 -13186636.87947 -10249272.26445  22266639.5944                   22266638.6564
  -2001263.30147  -1536489.20444  23153217.3284                   23153216.5474
 11  8 24 17  3  0.0000000  0  9G03G24G07G13G19G11G23G08G28
  12567160.65046   9798462.49443  23110265.7274
  23110265.0474   13720129.13846  10718981.66243  24167275.3594   24167278.0634
 -11402167.98147  -8854445.76746  20830554.7974                   20830552.2234
   2765883.13548   2185064.62546  20914564.3364                   20914563.1374
  -2263729.27348  -1727224.77546  21335296.9844                   21335293.3874
  -5332557.42047  -4128064.84044  22703092.7424                   22703091.7624
  13820931.96347  10773047.14645  22524125.3674                   22524122.9104
 -13332407.66347 -10362859.86645  22238900.0784                   22238899.4774
  -2118224.73346  -1627627.95244  23130960.4144                   23130959.0984
 11  8 24 17  3 30.0000000  0  9G03G24G07G13G19G11G23G08G28
  12595841.63246   9820811.18843  23115724.2424
  23115723.8284   13574204.45946  10605274.22043  24139507.3364   24139509.6914
 -11517299.23648  -8944158.41846  20808645.5314                   20808643.2424
   2764655.49648   2184107.98046  20914330.9144                   20914329.1844
  -2284602.98048  -1743490.01746  21331325.0084                   21331321.1564
  -5475769.71047  -4239658.83044  22675840.0394                   22675839.3364
  13853310.59047  10798277.13445  22530286.7894                   22530285.2624
 -13478169.74547 -10476440.67745  22211162.3364                   22211161.5664
  -2235016.93246  -1718634.80844  23108735.0784                   23108733.6414
 11  8 24 17  4  0.0000000  0  9G03G24G07G13G19G11G23G08G28
  12624723.03346   9843316.12743  23121219.1024
  23121219.3674   13428216.07046  10491517.15443  24111726.4534   24111729.2194
 -11632240.55148  -9033723.08546  20786773.3754                   20786770.7504
   2763872.20548   2183497.56946  20914181.8444                   20914180.1174
  -2304972.47448  -1759362.37846  21327449.1884                   21327445.6174
  -5618774.89447  -4351091.42544  22648627.2584                   22648625.6564
  13885883.32247  10823658.33945  22536484.7664                   22536482.8404
 -13623926.72347 -10590017.54045  22183425.9384                   22183424.2624
  -2351645.74747  -1809514.33844  23086541.0084                   23086540.5664
 11  8 24 17  4 30.0000000  0  9G03G24G07G13G19G11G23G08G28
  12653802.43646   9865975.28443  23126752.7424
  23126753.5274   13282167.77446  10377713.34143  24083934.0864   24083937.0824
 -11746988.86948  -9123137.34846  20764937.6564                   20764934.8094
   2763531.89448   2183232.33846  20914116.9844                   20914114.4454
  -2324838.76648  -1774842.61846  21323668.8674                   21323664.7464
  -5761568.90747  -4462359.43744  22621454.6484                   22621452.8984
  13918648.05747  10849189.16544  22542719.9454                   22542716.9104
 -13769676.27747 -10703588.58345  22155690.6804                   22155689.4494
  -2468111.18947  -1900266.63144  23064378.9224                   23064378.0044
 11  8 24 17  5  0.0000000  0  9G03G24G07G13G19G11G23G08G28
  12683078.77046   9888787.96243  23132323.0784
  23132324.5824   13136063.91246  10263866.26143  24056131.8204   24056134.6804
 -11861540.94848  -9212398.70646  20743138.7584                   20743136.5314
   2763633.74348   2183311.65546  20914136.4454                   20914135.2544
  -2344202.39248  -1789931.16746  21319983.8054                   21319979.9734
  -5904147.15947  -4573459.32744  22594323.1414                   22594321.1604
  13951603.44847  10874868.57844  22548991.3524                   22548988.6804
 -13915415.12747 -10817151.29045  22127957.9224                   22127956.8914
  -2584412.53447  -1990890.99644  23042247.6884                   23042246.1954
 11  8 24 17  5 30.0000000  0  9G03G24G07G13G19G11G23G08G28
  12712546.70746   9911749.91543  23137931.8054
  23137932.3284   12989904.99046  10149976.30443  24028318.1254   24028321.5084
 -11975897.06548  -9301507.36446  20721377.6024                   20721374.8054
   2764173.01248   2183731.81946  20914239.3594                   20914237.4264
  -2363067.78748  -1804631.49446  21316393.7114                   21316389.6914
  -6046508.94547  -4684390.58644  22567232.4384                   22567230.8674
  13984743.90447  10900692.16144  22555297.9694                   22555295.4534
 -14061144.08947 -10930706.30645  22100226.5704                   22100225.0984
  -2700552.77647  -2081389.84644  23020146.2894                   23020145.5864
 11  8 24 17  6  0.0000000  0  9G03G24G07G13G19G11G23G08G28
  12742200.79446   9934856.89143  23143575.3594
  23143575.6604   12843691.23746  10036043.52743  24000494.8134   24000497.5634
 -12090058.37048  -9390464.22746  20699653.6724                   20699651.1684
   2765144.58948   2184488.83246  20914424.1884                   20914422.8364
  -2381440.00148  -1818947.52046  21312897.7584                   21312894.1294
  -6188654.14247  -4795153.05345  22540182.7584                   22540181.6524
  14018063.88347  10926655.62244  22561638.8204                   22561637.0554
 -14206864.62147 -11044254.74745  22072496.4304                   22072495.7774
  -2816535.21347  -2171765.72044  22998075.7194                   22998074.6764
 11  8 24 17  6 30.0000000  0  9G03G24G07G13G19G11G23G08G28
  12772041.12646   9958108.98943  23149253.5554                   23149253.2584
  12697428.00746   9922072.27343                  23972661.4924   23972664.6134
 -12204020.13748  -9479265.60246  20677967.2814                   20677964.4654
   2766548.83848   2185583.01046  20914691.6334                   20914690.1334
  -2399318.79148  -1832879.06046  21309495.7504                   21309491.8554
  -6330576.97847  -4905742.25444  22513175.9774                   22513174.6254
  14051563.17047  10952758.80645  22568013.5234                   22568013.0124
 -14352572.43647 -11157793.27945  22044769.2584                   22044768.0354
  -2932358.13647  -2262017.31544  22976035.6334                   22976034.3324
 11  8 24 17  7  0.0000000  0  9G03G24G07G13G19G11G23G08G28
  12802069.54646   9981507.64643  23154967.9064                   23154967.4064
  12551123.03146   9808068.49143                  23944820.7274   23944824.6414
 -12317775.53548  -9567906.17346  20656320.7114                   20656318.1524
   2768388.12448   2187016.15846  20915041.5864                   20915039.0274
  -2416700.82048  -1846423.50746  21306188.0864                   21306184.3364
  -6472269.53447  -5016151.99644  22486212.4224                   22486211.6524
  14085243.72947  10979003.25345  22574422.6884                   22574420.9844
 -14498260.85647 -11271316.70345  22017045.8134                   22017044.1804
  -3048017.33047  -2352141.31244  22954025.8284                   22954025.0554
 11  8 24 17  7 30.0000000  0  9G03G24G07G13G19G11G23G08G28
  14407700.44846  11232648.54843  23460509.5164                   23460509.5354
  13980202.37446  10921636.87843                  24216765.1954   24216767.6644
 -10855900.34848  -8428782.64746  20934505.7504                   20934503.8554
   4346078.36348   3416385.11646  21215265.9534                   21215264.1094
   -858169.36548   -631983.43246  21602766.7274                   21602762.8284
  -5038305.55547  -3898777.45044  22759086.8364                   22759086.0744
  15694520.19447  12232984.77044  22880658.0084                   22880656.8444
 -13068505.12647 -10157221.30045  22289119.1094                   22289118.1524
  -1588091.22647  -1214536.52644  23231840.8834                   23231839.5984
 11  8 24 17  8  0.0000000  0  9G03G24G07G13G19G11G23G08G28
  14438092.47546  11256330.56243  23466293.1804                   23466292.6724
  13833818.09045  10807571.36643                  24188907.6334   24188911.4344
 -10969241.07248  -8517100.08646  20912937.9224                   20912935.4224
   4348775.98048   3418487.11546  21215779.3444                   21215777.7894
   -874569.10548   -644762.45546  21599645.9694                   21599641.7344
  -5179532.59247  -4008824.46144  22732211.9144                   22732211.1884
  15728550.58247  12259501.80544  22887133.6804                   22887131.6254
 -13214154.31247 -10270714.15245  22261403.4844                   22261402.0864
  -1703429.62247  -1304410.56445  23209892.3594                   23209891.1684
 11  8 24 17  8 30.0000000  0  9G03G24G07G13G19G11G23G08G28
  14468664.05046  11280152.49843  23472110.7894                   23472110.5234
  13687400.62846  10693479.88343                  24161047.4064   24161050.1454
 -11082369.81148  -8605252.34546  20891410.3834                   20891407.9344
   4351901.54748   3420922.54646  21216374.3524                   21216373.0514
   -890478.90148   -657159.71946  21596618.2194                   21596614.6724
  -5320520.29947  -4118684.99044  22705383.6024                   22705381.8484
  15762753.32847  12286153.14644  22893642.9224                   22893641.1564
 -13359779.43647 -10384188.24545  22233691.5394                   22233690.6134
  -1818606.79846  -1394158.94444  23187974.9694                   23187974.2234
 11  8 24 17  9  0.0000000  0  9G03G24G07G13G19G11G23G08G28
  14499409.50546  11304109.93843  23477961.8984                   23477960.9384
  13540950.11846  10579362.60543                  24133179.0084   24133180.4024
 -11195287.14148  -8693239.88546  20869922.8284                   20869920.1994
   4355448.98948   3423686.74246  21217049.3204                   21217047.9384
   -905903.72347   -669179.07146  21593683.2584                   21593679.2384
  -5461268.44247  -4228358.82444  22678599.6334                   22678598.6334
  15797122.96047  12312934.52045  22900183.5084                   22900181.6884
 -13505381.67547 -10497644.51345  22205984.2894                   22205983.1214
  -1933626.25147  -1483784.45844  23166087.1024                   23166086.4064
 11  8 24 17  9 30.0000000  0  9G03G24G07G13G19G11G23G08G28
  14530331.36046  11328204.73943  23483845.5784                   23483845.3954
  13394474.26946  10465225.68842                  24105305.2274   24105306.7384
 -11307986.71348  -8781057.72346  20848476.6414                   20848474.1724
   4359421.31448   3426782.01446  21217804.9534                   21217803.9844
   -920840.80947   -680818.39646  21590841.0864                   21590837.6454
  -5601768.62047  -4337839.47644  22651863.0394                   22651862.1914
  15831661.28547  12339847.34244  22906755.8914                   22906753.2034
 -13650954.30047 -10611077.72445  22178283.4774                   22178281.5904
  -2048483.59547  -1573283.64144  23144230.9454                   23144229.6054
 11  8 24 17 10  0.0000000  0  9G03G24G07G13G19G11G23G08G28
  14561424.45646  11352433.05843  23489761.9774                   23489762.2814
  13247973.85145  10351069.54742                  24077425.9924   24077428.1954
 -11420468.37048  -8868705.77146  20827072.3754                   20827069.4844
   4363813.78448   3430204.65746  21218641.0474                   21218639.3244
   -935295.06347   -692081.48046  21588089.9454                   21588086.4344
  -5742020.59647  -4447126.70445  22625174.4224                   22625173.2624
  15866363.26447  12366887.66744  22913359.8524                   22913357.6604
 -13796498.26547 -10724488.58745  22150587.0394                   22150585.7894
  -2163182.28147  -1662659.19544  23122404.7734                   23122403.6764
 11  8 24 17 10 30.0000000  0  9G03G24G07G13G19G11G23G08G28
  14592689.84846  11376795.55243  23495712.8134                   23495712.2734
  13101455.60046  10236899.53043                  24049544.7194   24049547.8794
 -11532726.47348  -8956179.61846  20805709.9144                   20805707.5944
   4368627.29248   3433955.39346  21219556.9614                   21219555.3674
   -949264.66847   -702966.89846  21585432.0004                   21585428.0514
  -5882017.51047  -4556215.18845  22598533.8674                   22598532.2194
  15901229.75047  12394056.17144  22919994.6414                   22919992.5944
 -13942008.04247 -10837872.79045  22122897.0004                   22122895.9264
  -2277719.39547  -1751908.83545  23100609.0084                   23100608.3204
 11  8 24 17 11  0.0000000  0  9G03G24G07G13G19G11G23G08G28
  14624122.43446  11401288.36143  23501693.7504                   23501693.8324
  12954920.01646  10122716.02443                  24021659.9694   24021663.0704
 -11644761.28248  -9043479.46446  20784390.5784                   20784388.1454
   4373857.67347   3438030.95846  21220552.3204                   21220550.6954
   -962754.20047   -713478.25146  21582865.0474                   21582861.0004
  -6021758.37847  -4665104.10944  22571942.0784                   22571940.6134
  15936255.36347  12421348.71444  22926659.2274                   22926658.1914
 -14087483.82147 -10951230.52745  22095214.0394                   22095212.5664
  -2392097.76147  -1841034.81344  23078843.1334                   23078842.4774
 11  8 24 17 11 30.0000000  0  9G03G24G07G13G19G11G23G08G28
  14655717.40746  11425907.73643  23507706.5394                   23507704.8834
  12808367.81646  10008519.62343                  23993771.8984   23993774.9884
 -11756573.25948  -9130605.67146  20763113.3984                   20763111.1294
   4379499.60848   3442427.22046  21221626.0864                   21221625.1214
   -975768.04247   -723618.93546  21580388.7814                   21580384.6564
  -6161242.57947  -4773793.09244  22545399.1334                   22545397.3444
  15971435.25847  12448761.47044  22933354.0704                   22933352.8164
 -14232926.15047 -11064562.18545  22067537.2504                   22067535.4534
  -2506320.51647  -1930039.49945  23057107.5704                   23057106.3754
 11  8 24 17 12  0.0000000  0  9G03G24G07G13G19G11G23G08G28
  14687470.68946  11450650.49543  23513748.1804                   23513747.9964
  12661800.84446   9894311.74043                  23965881.5704   23965883.6024
 -11868161.60448  -9217557.63146  20741878.7034                   20741876.4024
   4385549.41847   3447141.30046  21222777.7274                   21222775.8364
   -988310.05248   -733391.94046  21578001.7424                   21577997.8954
  -6300468.21347  -4882280.56044  22518905.3914                   22518904.4924
  16006765.14847  12476291.09544  22940077.7344                   22940076.1804
 -14378334.81247 -11177867.61345  22039867.4064                   22039865.4144
  -2620389.66847  -2018924.50944  23035400.7194                   23035399.4884
 11  8 24 17 12 30.0000000  0  9G03G24G07G13G19G11G23G08G28
  14719382.24246  11475516.56843  23519821.0864                   23519820.4774
  12515224.67746   9780096.61943                  23937988.4774   23937991.4104
 -11979521.46348  -9304331.53546  20720687.7344                   20720685.6604
   4392007.13047   3452173.21946  21224006.4224                   21224005.2704
  -1000379.55748   -742796.78546  21575705.0314                   21575701.5554
  -6439429.45447  -4990562.01644  22492461.2034                   22492460.3954
  16042244.79247  12503937.41244  22946829.2274                   22946827.6884
 -14523705.38547 -11291143.35845  22012203.7034                   22012202.4804
  -2734302.95747  -2107688.06044  23013723.7424                   23013721.9804
 11  8 24 17 13  0.0000000  0  9G03G24G07G13G19G11G23G08G28
  14751448.04646  11500502.85443  23525923.4694                   23525922.5554
  12368641.04946   9665875.74643                  23910094.0864   23910096.8244
 -12090652.40647  -9390927.08046  20699540.6334                   20699537.9024
   4398869.21747   3457520.24046  21225312.1954                   21225310.6454
  -1011979.95548   -751836.07846  21573497.6484                   21573493.8404
  -6578124.86947  -5098636.33045  22466068.9064                   22466067.3204
  16077870.34347  12531697.41744  22953608.7584                   22953606.8134
 -14669037.08147 -11404388.82245  21984547.9224                   21984546.7854
  -2848063.03947  -2196332.23444  22992076.1414                   22992074.5904
 11  8 24 17 13 30.0000000  0  9G03G24G07G13G19G11G23G08G28
  14783668.67546  11525609.77743  23532054.0554                   23532054.0004
  12222056.22147   9551653.90343                  23882200.7664   23882202.5664
 -12201549.11748  -9477340.09946  20678437.5474                   20678435.4614
   4406136.11047   3463182.69246  21226695.0084                   21226693.3914
  -1023110.63647   -760509.35246  21571379.2894                   21571375.5474
  -6716547.95747  -5206498.42945  22439728.0084                   22439725.8244
  16113641.52947  12559570.85044  22960415.0004                   22960414.6954
 -14814325.24447 -11517600.36645  21956900.6024                   21956899.1884
  -2961667.07747  -2284854.82844  22970457.6024                   22970456.3014
 11  8 24 17 14  0.0000000  0  9G03G24G07G13G19G11G23G08G28
  14816035.94546  11550830.93943  23538214.0634                   23538213.6524
  12075467.34547   9437428.94843                  23854305.1254   23854308.6134
 -12312215.19248  -9563573.41046  20657378.2194                   20657376.1374
   4413799.63447   3469154.20446  21228153.6024                   21228152.0354
  -1033779.65348   -768822.90046  21569349.0394                   21569345.3244
  -6854701.52047  -5314150.50845  22413437.9304                   22413436.2304
  16149549.89046  12587551.20844  22967248.7424                   22967247.4024
 -14959573.60047 -11630780.87045  21929260.9224                   21929259.4734
  -3075121.76647  -2373261.04844  22948868.6484                   22948867.0164
 11  8 24 17 14 30.0000000  0  9G03G24G07G13G19G11G23G08G28
  14848549.21846  11576165.78543  23544401.3674                   23544400.9344
  11928879.73747   9323204.92343                  23826410.5704   23826413.0634
 -12422646.41248  -9649623.71146  20636363.8674                   20636361.5664
   4421859.43348   3475434.49745  21229687.2194                   21229685.6804
  -1043986.84148   -776776.56046  21567406.9384                   21567403.0824
  -6992580.10447  -5421588.33545  22387200.5554                   22387198.6804
  16185594.85547  12615638.01044  22974108.6644                   22974107.7504
 -15104778.44947 -11743927.50545  21901629.0084                   21901627.8954
  -3188425.97547  -2461549.99444  22927306.8444                   22927305.3754
 11  8 24 17 15  0.0000000  0  9G03G24G07G13G19G11G23G08G28
  14881206.68346  11601613.02643  23550615.0634                   23550615.7894
  11782297.29346   9208984.98643                  23798517.1954   23798519.5274
 -12532840.03048  -9735488.87546  20615394.5864                   20615392.6454
   4430313.73447   3482022.19246  21231296.1484                   21231294.5704
  -1053734.06248   -784371.83146  21565552.0944                   21565548.9184
  -7130179.97247  -5528808.97945  22361016.0004                   22361014.3054
  16221774.88247  12643830.05344  22980993.3984                   22980992.5634
 -15249936.83947 -11857037.92745  21874006.5314                   21874005.1724
  -3301579.21247  -2549721.30644  22905774.9534                   22905773.1024
 11  8 24 17 15 30.0000000  0  9G03G24G07G13G19G11G23G08G28
  14914003.17446  11627168.65543  23556857.4064                   23556856.3754
  11635720.62147   9094769.54643                  23770624.6334   23770626.4964
 -12642796.27648  -9821169.06146  20594470.8204                   20594468.7664
   4439157.76047   3488913.58346  21232979.0474                   21232977.7624
  -1063025.75848   -791612.13146  21563783.9694                   21563780.0204
  -7267500.28747  -5635811.78544  22334884.6804                   22334883.3984
  16258084.29047  12672122.94544  22987902.7114                   22987901.8554
 -15395048.98647 -11970112.30245  21846392.6094                   21846391.2384
  -3414584.43747  -2637777.27044  22884270.6334                   22884269.6844
 11  8 24 17 16  0.0000000  0  9G03G24G07G13G19G11G23G08G28
  14946939.36546  11652833.10243  23563124.8754                   23563125.0824
  11489155.99447   8980563.47944                  23742733.6484   23742737.3404
 -12752509.79548  -9906660.11746  20573593.2504                   20573590.5984
   4448392.04147   3496109.06446  21234736.6804                   21234734.8094
  -1071861.02047   -798496.77946  21562102.6804                   21562099.2774
  -7404534.87247  -5742591.92845  22308808.1884                   22308806.6254
  16294523.74147  12700517.14944  22994836.9534                   22994836.0354
 -15540110.07247 -12083146.90245  21818788.2114                   21818786.5944
  -3527439.05547  -2725715.90744  22862794.7424                   22862793.2344
 11  8 24 17 16 30.0000000  0  9G03G24G07G13G19G11G23G08G28
  14980013.30546  11678604.93743  23569418.8284                   23569418.8634
  11342606.50847   8866369.13743                  23714846.1644   23714848.7034
 -12861978.55148  -9991960.44246  20552761.8524                   20552759.7074
   4458014.18248   3503606.76546  21236567.7034                   21236565.7894
  -1080241.97148   -805027.41846  21560507.8754                   21560503.5904
  -7541280.40647  -5849146.85144  22282785.8364                   22282784.8524
  16331090.35347  12729010.38944  23001795.6564                   23001794.6724
 -15685118.03747 -12196140.09545  21791193.9614                   21791192.7544
  -3640144.12547  -2813538.00544  22841347.7114                   22841346.3134
 11  8 24 17 17  0.0000000  0  9G03G24G07G13G19G11G23G08G28
  15013225.20046  11704484.28443  23575738.3284                   23575738.1484
  11196078.43046   8752191.51843                  23686962.2274   23686963.8594
 -12971197.34448 -10077065.99546  20531978.1644                   20531975.6094
   4468024.88547   3511407.24545  21238472.5784                   21238470.8874
  -1088168.16548   -811203.69646  21558999.9454                   21558995.9574
  -7677730.83347  -5955471.83445  22256820.2894                   22256819.4184
  16367784.56947  12757603.06544  23008778.3134                   23008777.1954
 -15830067.81747 -12309087.96445  21763610.8444                   21763609.4224
  -3752697.16847  -2901241.65444  22819929.4774                   22819928.1254
 11  8 24 17 17 30.0000000  0  9G03G24G07G13G19G11G23G08G28
  15046570.79546  11730467.73443  23582083.7974                   23582084.5234
  11049573.42847   8638031.85643                  23659083.1484   23659085.4494
 -13080165.59648 -10161976.30846  20511242.7274                   20511239.7624
   4478419.34447   3519506.77545  21240450.4614                   21240448.9884
  -1095643.16048   -817028.39345  21557576.9454                   21557573.6454
  -7813884.63747  -6061565.65545  22230911.0234                   22230909.4774
  16404601.77247  12786291.60644  23015784.9224                   23015783.5514
 -15974959.21047 -12421990.34345  21736039.2114                   21736037.7544
  -3865100.88247  -2988828.93144  22798539.8524                   22798538.2234
 11  8 24 17 18  0.0000000  0  9G03G24G07G13G19G11G23G08G28
  16655466.84346  12984152.86143  23888246.4774                   23888246.6684
  12478519.56946   9751496.45543                  23931002.7034   23931005.5164
 -11613457.40048  -9019086.80746  20790347.4614                   20790345.1524
   6064615.25548   4755503.50046  21542293.8594                   21542292.8134
    472750.85048    405096.79145  21856032.3674                   21856028.7934
  -6374313.80047  -4939822.10445  22504852.1564                   22504850.8014
  18016958.33447  14042673.11044  23322606.1954                   23322605.5984
 -14544365.04247 -11307241.60845  22008272.1644                   22008270.5314
  -2401931.66547  -1848697.01044  23076971.4224                   23076970.1094
 11  8 24 17 18 30.0000000  0  9G03G24G07G13G19G11G23G08G28
  16689072.51046  13010338.98943  23894641.4694                   23894641.8984
  12332069.72346   9637379.79143                  23903133.8364   23903136.8754
 -11721918.49848  -9103601.94146  20769708.3444                   20769705.4024
   6075770.01748   4764195.46645  21544416.7274                   21544415.1214
    466170.30748    399969.07545  21854780.3134                   21854776.4264
  -6509865.49247  -5045446.73945  22479057.5314                   22479055.8914
  18054012.89747  14071546.60344  23329657.3834                   23329656.7384
 -14689134.03948 -11420048.60245  21980723.2504                   21980721.8054
  -2514038.29747  -1936052.82244  23055638.3204                   23055637.2814
 11  8 24 17 19  0.0000000  0  9G03G24G07G13G19G11G23G08G28
  16722806.83746  13036625.36742  23901061.2344                   23901061.2774
  12185654.70246   9523290.26943                  23875272.1804   23875274.1174
 -11830120.36048  -9187915.07646  20749117.6414                   20749115.2234
   6087303.62848   4773182.61245  21546611.5944                   21546610.4024
    460036.37947    395189.36945  21853613.1174                   21853609.9184
  -6645108.79547  -5150831.10545  22453322.1094                   22453320.3284
  18091184.77946  14100511.46743  23336730.7034                   23336730.2704
 -14833836.03347 -11532803.37545  21953187.6094                   21953185.5314
  -2625995.02347  -2023291.79244  23034333.9844                   23034332.5784
 11  8 24 17 19 30.0000000  0  9G03G24G07G13G19G11G23G08G28
  16756667.57546  13063010.36342  23907504.5704                   23907504.3914
  12039277.86046   9409230.47143                  23847418.0394   23847419.5554
 -11938061.30348  -9272024.90746  20728577.2344                   20728575.0314
   6099213.96948   4782463.32845  21548877.8204                   21548877.0044
    454346.86948    390755.96346  21852530.6254                   21852527.0474
  -6780040.45347  -5255972.58745  22427645.0394                   22427643.2194
  18128471.32946  14129565.68943  23343826.6484                   23343826.7814
 -14978468.97048 -11645504.35545  21925665.0004                   21925663.1254
  -2737802.22547  -2110414.23345  23013057.2114                   23013055.0944
 11  8 24 17 20  0.0000000  0  9G03G24G07G13G19G11G23G08G28
  16790646.96146  13089487.71542  23913971.1644                   23913969.3874
  11892937.08346   9295198.77543                  23819569.1174   23819572.3524
 -12045743.54948  -9355933.14246  20708086.4454                   20708084.1764
   6111492.88948   4792031.24745  21551214.1414                   21551213.4024
    449093.82048    386662.64846  21851530.7424                   21851526.8284
  -6914662.85347  -5360873.13345  22402027.2974                   22402026.1294
  18165864.40847  14158702.98244  23350942.8674                   23350942.5824
 -15123036.08448 -11758154.03145  21898154.8134                   21898153.4654
  -2849466.23047  -2197425.09345  22991808.0634                   22991807.1334
 11  8 24 17 20 30.0000000  0  9G03G24G07G13G19G11G23G08G28
  16824742.84846  13116055.83642  23920459.2344                   23920459.4774
  11746636.40446   9181198.30043                  23791729.1884   23791731.9534
 -12153164.27548  -9439637.61146  20687644.6094                   20687641.9694
   6124138.13748   4801884.60545  21553620.4924                   21553619.6414
    444275.78848    382908.30446  21850613.9844                   21850610.4144
  -7048972.15147  -5465529.71145  22376469.2424                   22376468.0594
  18203362.14747  14187921.77544  23358078.8594                   23358078.9694
 -15267534.60648 -11870750.26845  21870657.3674                   21870655.5744
  -2960986.77947  -2284324.17845  22970586.6804                   22970585.7194
 11  8 24 17 21  0.0000000  0  9G03G24G07G13G19G11G23G08G28
  16858955.03646  13142714.63342  23926969.5164                   23926969.3554
  11600380.81147   9067232.92843                  23763898.5084   23763900.5514
 -12260319.68248  -9523135.32346  20667253.6644                   20667251.5664
   6137149.29247   4812023.10045  21556097.2814                   21556096.0634
    439892.45247    379492.70246  21849779.9304                   21849776.0944
  -7182963.23247  -5569938.29545  22350971.3444                   22350970.0164
  18240963.76747  14217221.53844  23365234.6644                   23365234.2464
 -15411960.58748 -11983289.97145  21843174.1804                   21843173.0664
  -3072362.92147  -2371110.73045  22949392.4304                   22949390.8404
 11  8 24 17 21 30.0000000  0  9G03G24G07G13G19G11G23G08G28
  16893280.62346  13169461.71942  23933501.0704                   23933501.5944
  11454172.85947   8953304.76643                  23736076.2894   23736078.4614
 -12367208.11548  -9606425.00346  20646913.7114                   20646910.9654
   6150523.45547   4822444.45545  21558641.9384                   21558640.6334
    435940.61748    376413.32146  21849027.6414                   21849024.5204
  -7316633.70947  -5674097.07345  22325534.7194                   22325533.0664
  18278665.84247  14246599.56644  23372408.6334                   23372408.2854
 -15556312.49948 -12095771.98145  21815705.0944                   21815703.4804
  -3183595.45647  -2457785.40445  22928225.3914                   22928223.7584
 11  8 24 17 22  0.0000000  0  9G03G24G07G13G19G11G23G08G28
  16927719.03646  13196296.77042  23940055.3054                   23940055.2854
  11308017.65746   8839417.69043                  23708263.3594   23708264.8714
 -12473825.53748  -9689503.51646  20626624.7974                   20626622.5864
   6164259.71147   4833147.94845  21561255.4694                   21561254.3484
    432419.72648    373669.74546  21848357.8984                   21848354.4304
  -7449978.56447  -5778002.09045  22300159.6804                   22300158.1134
  18316467.63547  14276055.27544  23379602.3284                   23379601.7384
 -15700586.48547 -12208193.23045  21788250.5394                   21788249.3874
  -3294683.55247  -2544347.51945  22907086.4774                   22907084.7894
 11  8 24 17 22 30.0000000  0  9G03G24G07G13G19G11G23G08G28
  16962262.89746  13223214.04643  23946629.3524                   23946629.0164
  11161913.70047   8725570.52743                  23680460.7344   23680462.5354
 -12580174.81847  -9772373.08846  20606387.0004                   20606384.8754
   6178350.55647   4844127.75545  21563936.7894                   21563935.8324
    429322.57648    371256.35246  21847768.6954                   21847765.2464
  -7582999.35347  -5881654.62445  22274846.9694                   22274845.1724
  18354361.57347  14305582.78744  23386813.1644                   23386813.3054
 -15844785.20348 -12320555.84545  21760810.3524                   21760808.8554
  -3405632.53647  -2630801.20545  22885973.3364                   22885971.4184
 11  8 24 17 23  0.0000000  0  9G03G24G07G13G19G11G23G08G28
  16996913.87446  13250214.64943  23953222.3984                   23953223.4654
  11015868.09647   8611768.85843                  23652669.5704   23652670.7624
 -12686249.77948  -9855028.91046  20586201.7194                   20586199.7034
   6192797.22847   4855384.82845  21566686.4454                   21566685.9344
    426651.14947    369174.69846  21847259.9304                   21847256.5634
  -7715689.46647  -5985049.44945  22249596.5314                   22249594.7544
  18392348.52647  14335182.76144  23394042.5234                   23394041.8714
 -15988902.36748 -12432854.91845  21733385.7974                   21733383.6884
  -3516439.49747  -2717144.24144  22864887.8444                   22864886.3204
 11  8 24 17 23 30.0000000  0  9G03G24G07G13G19G11G23G08G28
  17031668.28646  13277295.96943  23959836.5314                   23959836.5704
  10869882.89447   8498014.16343                  23624889.4924   23624891.2544
 -12792049.67547  -9937470.38846  20566068.6724                   20566066.2934
   6207596.12247   4866916.36445  21569502.9774                   21569501.6024
    424401.66547    367421.82146  21846832.3054                   21846828.2424
  -7848046.84147  -6088185.03845  22224409.8754                   22224408.3444
  18430424.87047  14364852.37844  23401288.4844                   23401287.4454
 -16132937.21748 -12545089.84345  21705977.0554                   21705975.1844
  -3627106.16347  -2803377.96844  22843828.2734                   22843826.5864
 11  8 24 17 24  0.0000000  0  9G03G24G07G13G19G11G23G08G28
  17066521.15946  13304453.95843  23966468.2424                   23966469.9224
  10723958.91646   8384307.23143                  23597120.5634   23597122.5904
 -12897574.37048 -10019697.42146  20545988.0704                   20545985.6564
   6222742.03547   4878718.28345  21572385.0084                   21572383.8134
    422569.21947    365993.90946  21846483.7814                   21846480.0394
  -7980070.95147  -6191060.90545  22199286.7114                   22199285.3134
  18468585.48847  14394587.69443  23408549.6024                   23408549.7464
 -16276890.05947 -12657260.85945  21678583.6254                   21678581.6804
  -3737635.66947  -2889504.79044  22822794.9614                   22822792.8834
 11  8 24 17 24 30.0000000  0  9G03G24G07G13G19G11G23G08G28
  17101471.32746  13331687.80542  23973119.0164                   23973120.4104
  10578100.48047   8270651.41243                  23569364.7584   23569365.8444
 -13002820.76648 -10101707.60346  20525960.4064                   20525958.0084
   6238233.44647   4890789.44145  21575332.7274                   21575331.8054
    421152.46047    364889.90945  21846213.7274                   21846210.3284
  -8111757.56847  -6293673.81745  22174227.0164                   22174225.6134
  18506828.96447  14424387.54644  23415827.3674                   23415827.3444
 -16420757.41748 -12769365.26645  21651206.7274                   21651204.6454
  -3848027.46447  -2975524.34645  22801788.0704                   22801786.4804
 11  8 24 17 25  0.0000000  0  9G03G24G07G13G19G11G23G08G28
  17136518.02246  13358996.82043  23979788.9384                   23979789.6954
  10432312.04347   8157050.13644                  23541622.1644   23541623.3244
 -13107785.56847 -10183498.34446  20505986.3204                   20505983.8674
   6254069.12847   4903128.84645  21578345.8674                   21578344.9804
    420149.97048    364108.72845  21846023.4844                   21846019.8444
  -8243102.49347  -6396020.45545  22149233.0164                   22149232.0274
  18545153.45347  14454250.55944  23423120.9774                   23423121.0904
 -16564536.14747 -12881400.61745  21623846.4384                   21623844.6884
  -3958281.18247  -3061436.27444  22780807.6024                   22780805.9614
 11  8 24 17 25 30.0000000  0  9G03G24G07G13G19G11G23G08G28
  17171664.52746  13386383.62443  23986476.9534                   23986477.6414
  10286603.08346   8043510.76643                  23513894.2734   23513896.0234
 -13212460.14648 -10265062.96046  20486067.7664                   20486065.1134
   6270252.03947   4915738.83045  21581425.9384                   21581425.2384
    419565.58047    363653.34446  21845912.2424                   21845908.4144
  -8374096.80147  -6498093.89645  22124305.4844                   22124303.8134
  18583562.51046  14484179.43044  23430429.5394                   23430429.8204
 -16708218.07547 -12993360.54945  21596503.7734                   21596502.7854
  -4068391.62147  -3147236.57044  22759854.3364                   22759852.6414
 11  8 24 17 26  0.0000000  0  9G03G24G07G13G19G11G23G08G28
  17206905.59346  13413844.10242  23993182.8914                   23993184.2624
  10140973.93046   7930033.56943                  23486181.4844   23486184.3714
 -13316845.48748 -10346402.17546  20466203.1804                   20466200.9654
   6286776.88847   4928615.24745  21584570.6254                   21584569.7114
    419393.96447    363519.58645  21845879.5784                   21845875.7934
  -8504739.85147  -6599893.64145  22099445.0634                   22099443.7774
  18622050.77346  14514170.01744  23437753.9924                   23437754.1914
 -16851803.64847 -13105245.39745  21569181.1954                   21569179.8324
  -4178362.20147  -3232927.90544  22738927.3984                   22738925.6954
 11  8 24 17 26 30.0000000  0  9G03G24G07G13G19G11G23G08G28
  17242239.52246  13441377.04043  23999906.4384                   23999907.7384
   9995428.41746   7816621.55744                  23458484.8674   23458488.1094
 -13420939.01248 -10427514.02446  20446395.2034                   20446392.4064
   6303641.39747   4941756.36045  21587779.5474                   21587778.8634
    419633.33747    363706.07445  21845924.9534                   21845921.5004
  -8635028.07847  -6701416.86545  22074651.9144                   22074650.4024
  18660615.98946  14544220.56644  23445092.6564                   23445093.1764
 -16995289.97548 -13217052.90946  21541876.2504                   21541874.9614
  -4288192.94047  -3318510.26444  22718027.3284                   22718025.5514
 11  8 24 17 27  0.0000000  0  9G03G24G07G13G19G11G23G08G28
  17277665.42846  13468981.51143  24006648.2424                   24006649.6994
   9849971.58847   7703278.68844                  23430805.7424   23430807.3324
 -13524736.80547 -10508395.41046  20426643.1954                   20426640.8634
   6320844.63647   4955161.38745  21591053.7344                   21591052.8754
    420282.98248    364212.26845  21846048.5864                   21846045.0514
  -8764957.33047  -6802660.41245  22049927.5474                   22049926.1724
  18699257.14846  14574330.25744  23452446.8524                   23452446.4884
 -17138673.22448 -13328780.09645  21514591.5164                   21514589.5704
  -4397882.97447  -3403983.00445  22697154.3134                   22697152.4454
 11  8 24 17 27 30.0000000  0  9G03G24G07G13G19G11G23G08G28
  17313183.33946  13496657.61343  24013407.1724                   24013408.3594
   9704608.62046   7590008.92644                  23403144.6804   23403146.3094
 -13628234.62248 -10589043.04846  20406947.8594                   20406945.5554
   6338386.09747   4968829.97345  21594391.6024                   21594390.5004
    421342.35347    365037.74046  21846250.3054                   21846246.3874
  -8894522.42247  -6903620.19445  22025272.1094                   22025271.4534
  18737973.64047  14604498.68143  23459814.4774                   23459814.4024
 -17281949.08847 -13440423.60745  21487327.2504                   21487325.2274
  -4507431.17047  -3489345.20745  22676308.2584                   22676306.5394
 11  8 24 17 28  0.0000000  0  9G03G24G07G13G19G11G23G08G28
  17348784.28246  13524398.63342  24020181.6254                   24020183.5394
   9559336.27446   7476809.80144                  23375499.6414   23375502.0944
 -13731436.79048 -10669460.32546  20387309.4774                   20387307.0084
   6356256.86647   4982755.15745  21597792.0004                   21597791.2194
    422802.50148    366175.49145  21846528.2504                   21846524.6564
  -9023726.63347  -7004298.75845  22000684.7894                   22000683.7074
  18776756.18447  14634718.57444  23467194.7344                   23467195.2894
 -17425122.22348 -13551987.06945  21460081.9064                   21460081.0164
  -4616844.50147  -3574602.30744  22655486.8364                   22655485.4494
 11  8 24 17 28 30.0000000  0  8G24G07G13G19G11G23G08G28
  10989585.81946   8591290.05143                  23647666.1804   23647668.6374
 -12258914.27348  -9522040.16946  20667521.4384                   20667518.7464
   7949876.29947   6224536.44245  21901048.2424                   21901047.2424
   2000084.16848   1595226.12645  22146674.8204                   22146671.2814
  -7577139.88347  -5877088.26245  22275961.2584                   22275959.9224
  20391023.97747  15892589.31344  23774380.0864                   23774381.3364
 -15992762.18647 -12435862.35245  21732651.1254                   21732649.7854
  -3150696.98547  -2432149.65345  22934485.7974                   22934483.6564
 11  8 24 17 29  0.0000000  0  8G24G07G13G19G11G23G08G28
  10844520.87046   8478252.52744                  23620061.6174   23620064.2344
 -12361502.27847  -9601978.88346  20647999.3754                   20647996.7114
   7968412.94247   6238980.49145  21904575.5634                   21904575.2074
   2002354.60947   1596995.27845  22147106.9534                   22147103.6604
  -7705597.48947  -5977185.07645  22251517.1094                   22251515.7034
  20429947.08547  15922918.80443  23781786.9924                   23781788.5274
 -16135705.90847 -12547247.04945  21705449.6254                   21705447.7114
  -3259826.68547  -2517185.75745  22913719.0554                   22913717.4184
 11  8 24 17 29 30.0000000  0  8G24G07G13G19G11G23G08G28
  10699579.02547   8365310.93944                  23592480.6484   23592482.0044
 -12463765.72548  -9681664.67746  20628539.3834                   20628536.8284
   7987292.84147   6253692.01445  21908168.7894                   21908167.6884
   2005040.84747   1599088.42245  22147618.3364                   22147614.5704
  -7833662.97347  -6076976.31245  22227146.0944                   22227144.6174
  20468950.79647  15953311.11343  23789210.0314                   23789210.2774
 -16278517.34048 -12658528.68145  21678273.3204                   21678272.2114
  -3368800.89847  -2602100.67744  22892981.9144                   22892980.8054
 11  8 24 17 30  0.0000000  0  8G24G07G13G19G11G23G08G28
  10554760.81446   8252465.69743                  23564922.2034   23564924.2154
 -12565705.18948  -9761098.02246  20609140.6644                   20609138.0474
   8006510.57347   6268666.77545  21911825.9844                   21911824.5514
   2008137.75147   1601501.56745  22148207.6024                   22148204.1804
  -7961336.11847  -6176461.86445  22202851.3364                   22202849.6484
  20508029.75046  15983761.96244  23796645.5394                   23796646.9964
 -16421197.18648 -12769707.76946  21651122.5784                   21651120.7664
  -3477623.53047  -2686897.49944  22872273.3754                   22872271.8634
 11  8 24 17 30 30.0000000  0  8G24G07G13G19G11G23G08G28
  10410069.60847   8139719.42044                  23537388.1024   23537390.3204
 -12667318.56347  -9840277.28346  20589804.1724                   20589801.8284
   8026063.38747   6283902.63245  21915546.6024                   21915545.4384
   2011642.75547   1604232.70645  22148874.8524                   22148871.0824
  -8088613.95447  -6275639.35045  22178631.1484                   22178629.3794
  20547181.45146  16014269.50943  23804095.9384                   23804097.6024
 -16563743.01948 -12880782.41546  21623996.9694                   21623995.4224
  -3586295.17347  -2771576.65944  22851593.7114                   22851592.0554
 11  8 24 17 31  0.0000000  0  8G24G07G13G19G11G23G08G28
  10265502.12547   8027069.45944                  23509878.1334   23509879.9184
 -12768609.60348  -9919205.35646  20570529.4694                   20570527.1454
   8045942.26047   6299392.59045  21919329.0944                   21919328.6684
   2015547.06947   1607274.98845  22149617.0554                   22149613.4774
  -8215500.01547  -6374511.56745  22154485.3134                   22154484.0204
  20586396.78246  16044826.61343  23811557.8284                   23811560.4144
 -16706158.40648 -12991755.44146  21596896.5704                   21596894.8164
  -3694822.90347  -2856143.69245  22830941.9614                   22830939.8594
 11  8 24 17 31 30.0000000  0  8G24G07G13G19G11G23G08G28
  10121063.79347   7914520.15644                  23482392.4534   23482394.4384
 -12869574.55748  -9997879.35546  20551316.1954                   20551313.8324
   8066146.65547   6315136.18045  21923174.2584                   21923173.0124
   2019850.28647   1610628.13045  22150436.4064                   22150432.7544
  -8341988.93548  -6473074.33745  22130415.3444                   22130414.1994
  20625675.48946  16075433.09543  23819033.0394                   23819034.3094
 -16848439.23148 -13102623.59946  21569821.0864                   21569819.5164
  -3803205.36447  -2940597.48945  22810316.7974                   22810315.7584
 11  8 24 17 32  0.0000000  0  8G24G07G13G19G11G23G08G28
   9976754.13347   7802071.18944                  23454931.4064   23454933.1804
 -12970214.90548 -10076300.42146  20532165.3364                   20532162.7384
   8086669.98747   6331128.28145  21927079.4534                   21927078.8324
   2024546.08247   1614287.14445  22151330.2034                   22151326.4144
  -8468081.81247  -6571328.49045  22106420.9844                   22106419.0124
  20665010.78246  16106083.60344  23826519.2344                   23826519.6414
 -16990586.89748 -13213387.99346  21542771.6174                   21542769.7854
  -3911446.82947  -3024941.46345  22789719.1024                   22789717.9804
 11  8 24 17 32 30.0000000  0  8G24G07G13G19G11G23G08G28
   9832576.87747   7689725.34544                  23427494.9064   23427496.5474
 -13070527.96448 -10154466.43346  20513076.2274                   20513073.4804
   8107509.78447   6347366.99445  21931045.3984                   21931044.8284
   2029632.34247   1618250.43245  22152297.7734                   22152294.7894
  -8593775.02147  -6669271.22445  22082501.7734                   22082500.5664
  20704400.70246  16136776.72444  23834015.2424                   23834015.5984
 -17132598.63148 -13324046.47945  21515747.5234                   21515745.7154
  -4019547.73047  -3109175.89545  22769148.8204                   22769147.0904
 11  8 24 17 33  0.0000000  0  9G17G24G07G13G19G11G23G08G28
  20124123.24757  15715714.73053  24639309.1724                   24639312.3054
   9688528.42847   7577479.82844                  23400084.1804   23400084.9924
 -13170518.54248 -10232381.17746  20494048.2814                   20494046.0434
   8128656.29947   6363844.67945  21935069.5474                   21935068.6524
   2035099.53847   1622510.53345  22153338.3984                   22153334.5904
  -8719073.37347  -6766906.25745  22058658.3364                   22058657.5944
  20743835.52147  16167504.88344  23841519.2734                   23841518.9884
 -17274479.48648 -13434602.95846  21488748.5394                   21488747.2774
  -4127516.19047  -3193307.11745  22748603.1024                   22748601.1214
 11  8 24 17 33 30.0000000  0  9G17G24G07G13G19G11G23G08G28
  19945380.67946  15576435.00243  24605295.7584                   24605298.8324
   9544603.19346   7465330.35344                  23372695.5554   23372696.8754
 -13270193.24848 -10310049.78146  20475080.7664                   20475078.3714
   8150098.03047   6380552.43745  21939149.4144                   21939149.0204
   2040936.04647   1627058.43745  22154448.6644                   22154445.8244
  -8843982.61348  -6864238.09645  22034889.5704                   22034888.0784
  20783303.68547  16198259.01644  23849029.8444                   23849029.9304
 -17416235.59447 -13545062.24546  21461772.8204                   21461771.5594
  -4235361.31747  -3277342.22145  22728080.5634                   22728079.1914
 11  8 24 17 34  0.0000000  0  9G17G24G07G13G19G11G23G08G28
  19766721.24146  15437219.97043  24571297.8834                   24571301.2664
   9400793.10447   7353270.58044                  23345329.1644   23345331.5514
 -13369561.97648 -10387479.96546  20456171.9144                   20456169.6334
   8171820.49147   6397478.92245  21943283.5314                   21943282.6254
   2047128.22147   1631883.47845  22155626.9064                   22155623.9734
  -8968511.29248  -6961273.40845  22011191.8984                   22011190.6564
  20822791.10947  16229028.13944  23856545.2194                   23856544.7734
 -17557876.05748 -13655431.42146  21434819.8914                   21434818.2814
  -4343095.27947  -3361290.73245  22707579.5314                   22707577.6994
 11  8 24 17 34 30.0000000  0  9G17G24G07G13G19G11G23G08G28
  19588149.89946  15298073.56143  24537317.3054                   24537320.4964
   9257104.20246   7241305.28044                  23317986.5864   23317988.0164
 -13468619.86748 -10464667.92746  20437321.8284                   20437319.1764
   8193823.94747   6414624.36845  21947470.7114                   21947469.9304
   2053676.06547   1636985.66445  22156873.4384                   22156869.9454
  -9092653.82748  -7058007.81845  21987568.3524                   21987566.5904
  20862298.03947  16259812.48743  23864062.8134                   23864063.3444
 -17699396.13447 -13765706.79346  21407889.4454                   21407887.9454
  -4450716.33647  -3445151.25345  22687099.6174                   22687098.5594
 11  8 24 17 35  0.0000000  0  9G17G24G07G13G19G11G23G08G28
  19409670.66346  15158998.91043  24503353.3914                   24503357.0744
   9113541.13647   7129437.98243                  23290667.0944   23290667.9024
 -13567362.88848 -10541610.55246  20418531.8594                   20418528.7854
   8216106.86147   6431987.55045  21951711.6024                   21951710.7544
   2060578.39947   1642364.06545  22158186.9384                   22158183.5664
  -9216405.95847  -7154438.01845  21964019.4384                   21964017.5434
  20901823.11046  16290610.98443  23871584.3134                   23871584.4654
 -17840791.84948 -13875885.26546  21380983.0944                   21380981.0824
  -4558223.55647  -3528923.06445  22666641.6174                   22666639.6294
 11  8 24 17 35 30.0000000  0  9G17G24G07G13G19G11G23G08G28
  19231292.13946  15020002.78343  24469408.8674                   24469412.6914
   8970113.73247   7017676.42043                  23263372.7034   23263374.2974
 -13665782.61848 -10618301.25546  20399803.0474                   20399800.4534
   8238673.12447   6449571.56945  21956005.4614                   21956004.9184
   2067839.32747   1648021.91045  22159568.8834                   22159565.1094
  -9339758.19548  -7250556.62845  21940546.1484                   21940544.4804
  20941370.48446  16321426.80542  23879110.2114                   23879110.1094
 -17982053.77248 -13985959.47446  21354101.0554                   21354100.0474
  -4665611.45747  -3612601.92845  22646206.8444                   22646204.3204
 11  8 24 17 36  0.0000000  0  9G17G24G07G13G19G11G23G08G28
  19053014.49146  14881085.27043  24435483.0634                   24435487.5164
   8826823.18146   6906021.53844                  23236105.6484   23236107.8754
 -13763879.07248 -10694740.05146  20381135.7584                   20381133.7114
   8261517.44847   6467372.22245  21960352.8914                   21960352.2114
   2075453.90747   1653955.31945  22161018.0084                   22161014.5664
  -9462710.08748  -7346363.27745  21917148.6884                   21917147.0084
  20980935.06246  16352256.13343  23886639.0164                   23886638.6994
 -18123182.28447 -14095929.73645  21327245.3834                   21327244.3244
  -4772882.75047  -3696189.92045  22625793.4534                   22625791.3954
 11  8 24 17 36 30.0000000  0  9G17G24G07G13G19G11G23G08G28
  18874838.00846  14742246.56443  24401577.0784                   24401580.9344
   8683670.65346   6794474.10543                  23208864.9224   23208866.9614
 -13861652.41948 -10770927.07746  20362530.0474                   20362528.2854
   8284635.04847   6485385.83545  21964751.7584                   21964751.1844
   2083417.55247   1660160.71545  22162533.2974                   22162529.6374
  -9585260.97648  -7441857.44545  21893828.5864                   21893826.7384
  21020512.34646  16383095.27443  23894171.0164                   23894171.7384
 -18264177.20948 -14205795.90646  21300415.1254                   21300413.6374
  -4880040.44347  -3779689.38845  22605401.9924                   22605400.3134
 11  8 24 17 37  0.0000000  0  9G17G24G07G13G19G11G23G08G28
  18696768.41546  14603491.23843  24367692.1724                   24367694.3754
   8540662.76946   6683039.43243                  23181651.2344   23181651.9384
 -13959096.93148 -10846857.87446  20343987.4924                   20343984.6024
   8308026.84347   6503613.11745  21969203.2584                   21969202.1174
   2091731.06447   1666638.75545  22164114.6174                   22164111.5594
  -9707404.55848  -7537034.22645  21870585.3524                   21870583.7304
  21060103.25646  16413944.94543  23901705.3364                   23901705.1644
 -18405032.40248 -14315553.18546  21273610.9304                   21273609.5864
  -4987081.56347  -3863098.03645  22585032.9224                   22585031.0124
 11  8 24 17 37 30.0000000  0  9G17G24G07G13G19G11G23G08G28
  18518801.23146  14464815.61843  24333825.6174                   24333828.4344
   8397796.18047   6571714.92443                  23154465.1094   23154466.5594
 -14056217.06548 -10922535.90046  20325505.8054                   20325503.1994
   8331682.88747   6522046.28545  21973704.4694                   21973704.0554
   2100385.03347   1673382.07345  22165761.9144                   22165758.4184
  -9829145.06848  -7631896.94745  21847418.7504                   21847417.9104
  21099698.06746  16444797.71143  23909239.6334                   23909240.6054
 -18545752.11448 -14425204.89146  21246832.9534                   21246831.1914
  -5094013.82447  -3946421.82945  22564684.5944                   22564682.9264
 11  8 24 17 38  0.0000000  0  9G17G24G07G13G19G11G23G08G28
  18340942.69746  14326224.69543  24299980.8834                   24299983.2704
   8255078.26346   6460506.25744                  23127305.4924   23127308.1994
 -14153007.22348 -10997956.81646  20307087.1024                   20307084.6484
   8355604.15347   6540686.11845  21978256.9454                   21978256.4184
   2109381.08347   1680391.97345  22167473.8984                   22167470.6374
  -9950475.57048  -7726440.16445  21824329.9694                   21824329.1914
  21139298.79246  16475655.08444  23916776.4454                   23916777.5084
 -18686330.10348 -14534746.18046  21220082.2344                   21220080.3444
  -5200833.68847  -4029658.07545  22544356.8524                   22544355.3284
 11  8 24 17 38 30.0000000  0  9G17G24G07G13G19G11G23G08G28
  18163189.80046  14187716.11844  24266154.7114                   24266158.5514
   8112506.93546   6349411.76943                  23100175.1644   23100177.9304
 -14249470.56648 -11073123.06346  20288730.7194                   20288728.2034
   8379783.15547   6559526.78845  21982858.0704                   21982857.6764
   2118711.32347   1687662.23645  22169248.9844                   22169246.6214
 -10071398.40847  -7820665.72045  21801319.9304                   21801318.3404
  21178897.26346  16506510.66744  23924311.6094                   23924313.3954
 -18826769.27448 -14644179.28346  21193357.5864                   21193355.6524
  -5307547.40147  -4112811.58045  22524050.3594                   22524047.9884
 11  8 24 17 39  0.0000000  0  9G17G24G07G13G19G11G23G08G28
  17985550.68047  14049296.18644  24232351.1414                   24232355.6174
   7970091.11847   6238438.47444                  23073074.9844   23073077.2194
 -14345599.15448 -11148028.47146  20270438.2344                   20270436.3134
   8404222.52047   6578570.34345  21987509.0704                   21987509.0164
   2128378.81447   1695195.29545  22171089.0004                   22171085.8914
 -10191905.76148  -7914567.51945  21778387.4774                   21778385.8954
  21218496.41446  16537366.83244  23931847.5234                   23931849.5354
 -18967061.18648 -14753497.64646  21166660.5474                   21166659.1844
  -5414150.11847  -4195878.62945  22503764.2664                   22503762.0124
 11  8 24 17 39 30.0000000  0  9G17G24G07G13G19G11G23G08G28
  19383453.60247  15138571.29344  24498363.7194                   24498367.1844
   9403258.88547   7355192.64244                  23345797.1254   23345798.9694
 -12865967.72948  -9995068.92146  20552002.7504                   20552000.1094
  10004338.36047   7825413.75745  22292000.8914                   22292000.2624
   3713800.29347   2930588.63245  22472784.5554                   22472781.4924
  -8736570.47547  -6780540.00045  22055328.8444                   22055327.6684
  22833512.57646  17795820.61244  24239174.6094                   24239176.5904
 -17531778.96947 -13635095.90946  21439785.4144                   21439784.5944
  -3945218.80347  -3051256.79145  22783292.7894                   22783291.1334
 11  8 24 17 40  0.0000000  0  9G17G24G07G13G19G11G23G08G28
  19206047.17046  15000332.70244  24464604.0784                   24464607.8014
   9261162.36646   7244468.20344                  23318756.7344   23318759.1844
 -12961422.21648 -10069449.05646  20533838.6644                   20533836.0314
  10029288.35447   7844855.17845  22296749.2504                   22296748.7584
   3724132.54347   2938639.69545  22474751.0004                   22474747.1764
  -8856239.72248  -6873788.73545  22032556.5084                   22032554.9144
  22873104.05946  17826670.77243  24246709.7114                   24246711.5744
 -17671771.06048 -13744180.63746  21413145.7814                   21413144.7704
  -4051603.21647  -3134153.72645  22763048.2974                   22763046.9024
 11  8 24 17 40 30.0000000  0  9G17G24G07G13G19G11G23G08G28
  19028768.78246  14862193.84444  24430868.8674                   24430871.9304
   9119238.60446   7133878.32044                  23291750.7894   23291752.4734
 -13056528.40848 -10143557.77746  20515740.2344                   20515737.1254
  10054497.24047   7864498.36645  22301545.9774                   22301545.7384
   3734801.53447   2946953.17145  22476781.2344                   22476778.3164
  -8975477.76848  -6966701.46145  22009865.4064                   22009864.1294
  22912695.94746  17857521.22243  24254244.2344                   24254246.1844
 -17811601.42148 -13853139.35046  21386537.0164                   21386535.6254
  -4157871.23647  -3216959.95845  22742826.2974                   22742824.9024
 11  8 24 17 41  0.0000000  0  9G17G24G07G13G19G11G23G08G28
  18851617.92547  14724154.42844  24397157.9454                   24397161.4024
   8977488.51047   7023423.80644                  23264775.7974   23264777.5514
 -13151287.06448 -10217395.70646  20497708.2504                   20497706.1914
  10079959.59747   7884339.04145  22306391.3134                   22306390.7854
   3745802.03147   2955524.94045  22478874.6484                   22478871.0944
  -9094284.55147  -7059278.14145  21987257.8054                   21987256.2194
  22952283.18046  17888368.08843  24261777.1884                   24261780.7304
 -17951270.32648 -13961972.25346  21359959.2814                   21359957.5704
  -4264026.39447  -3299678.26845  22722625.4774                   22722623.6334
 11  8 24 17 41 30.0000000  0  9G17G24G07G13G19G11G23G08G28
  18674598.60446  14586217.42944  24363472.5084                   24363474.9454
   8835917.00846   6913108.43344                  23237835.6484   23237837.9344
 -13245694.04648 -10290959.59246  20479743.2194                   20479740.6334
  10105674.57347   7904376.57045  22311284.9694                   22311284.8594
   3757133.17747   2964354.35745  22481030.9924                   22481027.6214
  -9212655.79347  -7151515.44045  21964732.5164                   21964730.8134
  22991865.03446  17919210.76043  24269310.0784                   24269313.3094
 -18090773.39248 -14070675.91346  21333412.4924                   21333410.9384
  -4370067.72847  -3382307.83645  22702446.3444                   22702444.5634
 11  8 24 17 42  0.0000000  0  9G17G24G07G13G19G11G23G08G28
  18497716.44046  14448387.32443  24329812.0394                   24329815.7854
   8694530.64647   6802937.32344                  23210930.8984   23210932.9494
 -13339744.28148 -10364245.49346  20461846.1884                   20461843.9804
  10131642.26547   7924611.02945  22316226.4384                   22316226.5274
   3768795.34147   2973441.71945  22483250.0784                   22483246.6294
  -9330585.69848  -7243408.83745  21942291.5164                   21942289.5274
  23031441.92246  17950049.53243  24276841.4454                   24276845.1414
 -18230105.25648 -14179246.18246  21306898.5784                   21306896.6294
  -4475992.65647  -3464846.69845  22682289.7584                   22682287.9224
 11  8 24 17 42 30.0000000  0  9G17G24G07G13G19G11G23G08G28
  18320969.71446  14310662.81143  24296178.3834                   24296181.5124
   8553328.59547   6692909.85044                  23184060.4454   23184062.9064
 -13433439.93548 -10437255.10146  20444016.6094                   20444014.0164
  10157856.02047   7945037.19544  22321214.9614                   22321214.3984
   3780782.10947   2982782.01045  22485530.9064                   22485527.9734
  -9448075.64448  -7334959.40945  21919933.5634                   21919932.0944
  23071007.24446  17980879.36043  24284370.7734                   24284372.8554
 -18369267.23448 -14287684.08346  21280417.1414                   21280415.3674
  -4581805.97247  -3547298.62045  22662153.8674                   22662152.3754
 11  8 24 17 43  0.0000000  0  9G17G24G07G13G19G11G23G08G28
  18144364.88546  14173048.92243  24262571.2734                   24262574.2934
   8412318.63447   6583032.03744                  23157227.8594   23157229.6804
 -13526774.22848 -10509983.11746  20426255.4384                   20426253.3094
  10184317.59747   7965656.48645  22326250.5864                   22326250.2304
   3793095.36447   2992376.70445  22487874.1954                   22487871.3524
  -9565118.61448  -7426161.69245  21897661.2034                   21897659.5204
  23110563.18946  18011701.88043  24291896.6884                   24291900.2154
 -18508252.18547 -14395984.03546  21253969.0394                   21253967.4264
  -4687504.17247  -3629660.83145  22642040.4144                   22642038.2664
 11  8 24 17 43 30.0000000  0  9G17G24G07G13G19G11G23G08G28
  17967901.72946  14035545.31943  24228990.6334                   24228994.9184
   8271501.64147   6473304.56844                  23130431.1484   23130433.1294
 -13619747.68848 -10582429.97346  20408563.2664                   20408560.3524
  10211021.31347   7986464.45145  22331332.3834                   22331332.4534
   3805729.72947   3002221.62845  22490278.3524                   22490275.1844
  -9681714.48248  -7517015.57645  21875473.7974                   21875471.9104
  23150104.61946  18042512.97643  24299421.7424                   24299425.7584
 -18647060.20548 -14504146.10846  21227554.8834                   21227553.3054
  -4793090.23447  -3711935.65745  22621947.4694                   22621945.8524
 11  8 24 17 44  0.0000000  0  9G17G24G07G13G19G11G23G08G28
  17791577.90846  13898150.32343  24195437.9454                   24195441.6604
   8130876.29447   6363726.44744                  23103670.5944   23103672.7234
 -13712363.03948 -10654597.79047  20390939.1724                   20390937.0084
  10237959.59747   8007455.19445  22336458.4924                   22336458.5084
   3818677.93147   3012311.08845  22492742.5004                   22492739.1174
  -9797865.27147  -7607522.66545  21853370.6024                   21853368.7814
  23189624.42246  18073307.35443  24306942.5004                   24306946.8404
 -18785693.15648 -14612171.78646  21201173.7664                   21201171.9384
  -4898569.71247  -3794127.41345  22601875.5474                   22601874.0514
 11  8 24 17 44 30.0000000  0  9G17G24G07G13G19G11G23G08G28
  17615397.94746  13760867.45544  24161911.9304                   24161915.2194
   7990448.00247   6254301.90444                  23076948.1334   23076949.8364
 -13804615.95848 -10726483.17946  20373384.3204                   20373381.9224
  10265132.11647   8028628.46045  22341629.2344                   22341629.4384
   3831939.89947   3022645.04845  22495266.2424                   22495262.6884
  -9913566.28047  -7697679.25745  21831353.7664                   21831352.0664
  23229122.22346  18104084.50643  24314459.5234                   24314462.3444
 -18924146.91148 -14720057.80746  21174826.7584                   21174825.3244
  -5003940.88247  -3876234.78845  22581824.3134                   22581822.6374
 11  8 24 17 45  0.0000000  0  9G17G24G07G13G19G11G23G08G28
  17439361.68046  13623696.50444  24128412.7504                   24128416.3244
   7850217.49847   6145031.44444                  23050263.2504   23050264.5204
 -13896507.14948 -10798086.71046  20355897.7664                   20355895.4734
  10292533.18447   8049979.81244  22346843.6254                   22346843.5354
   3845510.22247   3033219.27245  22497849.4774                   22497845.5394
 -10028817.46048  -7787485.34845  21809421.9844                   21809420.6844
  23268593.09546  18134840.66243  24321970.0784                   24321973.0944
 -19062421.07748 -14827803.90646  21148514.0944                   21148512.5784
  -5109207.18247  -3958260.43545  22561793.0634                   22561790.5944
 11  8 24 17 45 30.0000000  0  9G17G24G07G13G19G11G23G08G28
  17263472.25646  13486640.01843  24094942.1954                   24094945.2544
   7710189.37947   6035918.69744                  23023617.2424   23023618.3524
 -13988033.31848 -10869405.81646  20338480.8054                   20338478.1174
  10320161.36847   8071508.13445  22352101.4224                   22352100.9694
   3859387.69147   3044032.84345  22500489.3054                   22500486.2274
 -10143615.48347  -7876938.32945  21787576.5004                   21787575.2774
  23308035.52646  18165574.68443  24329476.4224                   24329478.9024
 -19200511.96048 -14935407.19046  21122236.3364                   21122234.4844
  -5214368.07247  -4040203.95245  22541781.2584                   22541779.7154
 11  8 24 17 46  0.0000000  0  9G17G24G07G13G19G11G23G08G28
  17087729.34546  13349697.65644  24061499.6724                   24061501.9774
   7570363.60247   5926963.59344                  22997009.0394   22997009.9494
 -14079195.68448 -10940441.43346  20321133.1884                   20321131.1374
  10348010.58247   8093208.69144  22357400.9454                   22357400.9184
   3873566.22546   3055081.01144  22503187.2274                   22503184.2734
 -10257960.60647  -7966038.40245  21765817.1804                   21765815.6334
  23347443.90546  18196282.14643  24336975.7734                   24336978.5634
 -19338420.27348 -15042868.19646  21095993.2664                   21095991.3524
  -5319427.53547  -4122068.42945  22521789.1414                   22521787.1844
 11  8 24 17 46 30.0000000  0  9G17G24G07G13G19G11G23G08G28
  16912131.67346  13212868.45144  24028083.7194                   24028086.4494
   7430740.75747   5818166.66544                  22970439.2814   22970440.9104
 -14169994.90048 -11011194.08247  20303855.0164                   20303852.4844
  10376074.99047   8115076.90545  22362741.4844                   22362741.6334
   3888040.36147   3066359.48544  22505941.9144                   22505938.9804
 -10371853.26647  -8054785.90045  21744144.0394                   21744142.6414
  23386813.01946  18226959.02643  24344467.9224                   24344469.9384
 -19476146.08948 -15150187.00546  21069785.2894                   21069782.9774
  -5424388.97747  -4203856.51645  22501815.1884                   22501814.0234
 11  8 24 17 47  0.0000000  0  9G17G24G07G13G19G11G23G08G28
  16736687.67946  13076159.01044  23994698.0864                   23994700.6454
   7291330.61547   5709535.48444                  22943910.2274   22943911.8054
 -14260422.86448 -11081657.43246  20286647.1024                   20286644.4654
  10404357.84247   8137115.35845  22368123.6174                   22368124.6294
   3902813.92247   3077871.30744  22508753.9454                   22508750.4184
 -10485284.65948  -8143173.97245  21722559.1644                   21722557.0824
  23426146.59946  18257608.19543  24351953.2344                   24351955.9064
 -19613680.68648 -15257356.81446  21043612.8204                   21043611.4654
  -5529247.19447  -4285564.19145  22481861.6954                   22481859.9224
 11  8 24 17 47 30.0000000  0  9G17G24G07G13G19G11G23G08G28
  16561393.98746  12939566.67144  23961341.1884                   23961343.8794
   7152130.00647   5601067.54644                  22917421.3204   22917422.2464
 -14350483.73348 -11151834.74946  20269509.0704                   20269506.8834
  10432850.69747   8159317.42945  22373545.5634                   22373546.1254
   3917878.31247   3089609.73344  22511619.9844                   22511616.7384
 -10598258.39147  -8231205.43645  21701060.8984                   21701058.9534
  23465436.06346  18288222.99243  24359430.2894                   24359433.5944
 -19751027.72548 -15364380.46146  21017476.7584                   21017475.0434
  -5634008.81047  -4367196.56745  22461926.3364                   22461924.0634
 11  8 24 17 48  0.0000000  0  8G17G24G07G13G19G11G08G28
  16386254.33247  12803094.38544  23928013.0784                   23928016.4774
   7013144.03147   5492766.86344                  22890972.5784   22890974.1484
 -14440173.86348 -11221723.18347  20252441.4224                   20252439.1174
  10461551.86947   8181681.83645  22379007.5084                   22379008.2234
   3933232.38847   3101573.91544  22514542.6954                   22514538.1524
 -10710770.46147  -8318877.14845  21679650.6804                   21679648.4224
 -19888182.74948 -15471254.49946  20991376.9694                   20991375.0394
  -5738672.81047  -4448752.93245  22442009.1724                   22442006.9614
 11  8 24 17 48 30.0000000  0  8G17G24G07G13G19G11G08G28
  16211278.11246  12666749.39544  23894716.1094                   23894718.8444
   6874383.29347   5384641.65744                  22864567.8284   22864568.9024
 -14529483.94348 -11291315.46546  20235446.3204                   20235444.0164
  10490466.04047   8204212.20645  22384509.2194                   22384510.3984
   3948880.67247   3113767.35344  22517519.4454                   22517516.9104
 -10822811.55047  -8406181.88245  21658329.6024                   21658328.1484
 -20025136.00648 -15577971.30246  20965315.2814                   20965313.7814
  -5843232.63447  -4530228.07145  22422112.2344                   22422110.4734
 11  8 24 17 49  0.0000000  0  8G17G24G07G13G19G11G08G28
  16036475.27847  12530539.57044  23861451.2814                   23861455.2114
   6735858.83446   5276700.64144                  22838207.3524   22838208.8014
 -14618404.46648 -11360604.19546  20218525.0864                   20218523.2544
  10519597.92947   8226912.26044  22390053.7344                   22390053.8094
   3964828.30646   3126194.01044  22520554.6484                   22520551.7704
 -10934371.13447  -8493111.41545  21637101.0554                   21637098.5984
 -20161877.28947 -15684522.94446  20939294.4774                   20939293.1604
  -5947681.34347  -4611616.65945  22402235.9384                   22402234.2544
 11  8 24 17 49 30.0000000  0  8G17G24G07G13G19G11G08G28
  15861851.07146  12394468.88743  23828222.0164                   23828224.2074
   6597576.65247   5168948.36344                  22811893.0084   22811893.7894
 -14706930.53748 -11429585.56847  20201679.6644                   20201676.8834
  10548947.20747   8249781.67644  22395638.5554                   22395637.8324
   3981075.57146   3138854.14844  22523646.6484                   22523642.7814
 -11045444.15847  -8579661.79945  21615964.1094                   21615962.5664
 -20298401.13848 -15790905.14146  20913314.6724                   20913313.2034
  -6052016.96047  -4692917.10845  22382382.1884                   22382379.9494
 11  8 24 17 50  0.0000000  0  8G17G24G07G13G19G11G08G28
  17262831.72547  13486142.32444  24094819.3984                   24094821.9964
   8034962.90247   6288989.65844                  23085418.5704   23085419.4964
 -13219638.62748 -10270656.82046  20484701.5234                   20484699.1024
  12153928.64747   9500416.42444  22701057.0394                   22701055.9844
   5573037.63846   4379344.00944  22826586.7274                   22826582.5274
  -9580606.16948  -7438229.57045  21894713.5944                   21894711.8484
 -18859281.85648 -14669513.48346  21187169.6414                   21187168.4184
  -4580818.29847  -3546528.52145  22662341.5164                   22662339.8674
 11  8 24 17 50 30.0000000  0  8G17G24G07G13G19G11G08G28
  17088557.48147  13350344.31944  24061655.9144                   24061658.6954
   7897161.25047   6181611.81044                  23059195.7194   23059197.4414
 -13307383.63348 -10339029.58046  20468004.1334                   20468002.1764
  12183690.96547   9523607.67844  22706720.2114                   22706720.1764
   5589862.35946   4392454.15044  22829788.0784                   22829784.6884
  -9690712.68147  -7524026.82845  21873761.1174                   21873758.9654
 -18995376.74347 -14775561.43546  21161272.1644                   21161270.6724
  -4684943.58247  -3627665.09845  22642527.0004                   22642525.5744
 11  8 24 17 51  0.0000000  0  9G17G24G07G26G13G19G11G08G28
  16914450.68246  13214676.83144  24028524.1094                   24028527.3794
   7759594.20847   6074416.79144                  23033017.0164   23033018.9264
 -13394746.12148 -10407104.26047  20451379.9774                   20451377.1374
  23309120.42156  18193970.43052  24344201.5164                   24344201.2544
  12213644.85847   9546948.20544  22712420.6724                   22712420.8484
   5606961.31146   4405777.91144  22833042.2114                   22833039.2974
  -9800342.99647  -7609453.03045  21852898.6334                   21852897.4534
 -19131263.82948 -14881447.46646  21135413.6884                   21135411.8714
  -4788975.17247  -3708728.66845  22622730.7424                   22622728.9844
 11  8 24 17 51 30.0000000  0  9G17G24G07G26G13G19G11G08G28
  16740496.24047  13079128.06044  23995421.6254                   23995424.3874
   7622247.69847   5967393.59944                  23006881.1334   23006883.2934
 -13481741.31548 -10474892.73746  20434825.0784                   20434822.5904
  23148106.625 5                  24313561.641
  12243770.01047   9570422.17544  22718153.6334                   22718154.3914
   5624314.55946   4419299.90544  22836344.3914                   22836340.9264
  -9909512.38648  -7694520.06345  21832124.6254                   21832122.7544
 -19266957.54348 -14987182.81846  21109591.8444                   21109589.9224
  -4892931.15647  -3789733.31045  22602948.2504                   22602946.6564
 11  8 24 17 52  0.0000000  0  9G17G24G07G26G13G19G11G08G28
  16566692.21747  12943696.50444  23962348.2424                   23962350.6054
   7485120.77746   5860541.54944                  22980786.3594   22980788.1914
 -13568371.52648 -10542396.80446  20418340.2114                   20418337.6454
  22987454.420 5                  24282988.672
  12274059.61747   9594024.31945  22723917.1414                   22723918.2464
   5641915.30046   4433014.70044  22839693.3524                   22839690.0664
 -10018222.51747  -7779229.23845  21811437.7114                   21811436.0434
 -19402459.99947 -15092769.13546  21083806.3284                   21083805.3444
  -4996816.37547  -3870682.81745  22583179.5394                   22583177.4614
 11  8 24 17 52 30.0000000  0  9G17G24G07G26G13G19G11G08G28
  16393045.31147  12808387.40044  23929304.8754                   23929306.4264
   7348221.19946   5753866.59444                  22954735.2274   22954737.1214
 -13654630.56748 -10609611.65446  20401925.6644                   20401923.2234
  22827171.213 5                  24252489.398
  12304514.94547   9617755.55744  22729712.8364                   22729713.4534
   5659765.36346   4446923.77844  22843090.8524                   22843087.0274
 -10126466.88047  -7863575.46045  21790839.7424                   21790837.5594
 -19537764.08348 -15198200.88446  21058059.5004                   21058057.8754
  -5100627.23047  -3951574.39145  22563425.3204                   22563423.1804
 11  8 24 17 53  0.0000000  0  9G17G24G07G26G13G19G11G08G28
  16219560.24647  12673204.40244  23896290.8674                   23896293.3484
   7211554.88047   5647373.43944                  22928728.3524   22928730.7814
 -13740513.72448 -10676533.61346  20385582.5394                   20385579.6054
  22667262.46146  17693821.48453  24222058.5704                   24222061.4184
  12335135.52947   9641615.61344  22735539.7114                   22735539.9104
   5677864.19346   4461026.68644  22846534.3524                   22846531.8054
 -10234240.51047  -7947554.91945  21770330.9844                   21770329.2624
 -19672864.24747 -15303473.72846  21032350.3444                   21032349.2624
  -5204362.00247  -4032406.66445  22543685.3364                   22543683.1804
 11  8 24 17 53 30.0000000  0  9G17G24G07G26G13G19G11G08G28
  16046245.08146  12538153.79444  23863309.8204                   23863311.5044
   7075131.00547   5541069.14744                  22902768.2584   22902770.1414
 -13826013.20848 -10743156.58846  20369312.5084                   20369310.4384
  22507737.09746  17569515.98943  24191702.5394                   24191703.5904
  12365924.96547   9665607.21744  22741398.9064                   22741398.8674
   5696215.97646   4475326.70444  22850027.9534                   22850024.0234
 -10341535.13547  -8031161.09745  21749912.9924                   21749911.4574
 -19807751.75048 -15408580.86946  21006682.4534                   21006680.6024
  -5308015.19347  -4113175.35945  22523960.9694                   22523958.7384
 11  8 24 17 54  0.0000000  0  9G17G24G07G26G13G19G11G08G28
  15873100.17046  12403235.87344  23830362.1254                   23830362.8094
   6938950.67147   5434954.67144                  22876853.4614   22876854.8204
 -13911129.33148 -10809480.84946  20353115.2344                   20353112.9804
  22348596.07546  17445510.04843  24161419.1334                   24161419.8054
  12396878.05447   9689726.34144  22747289.1254                   22747289.6334
   5714815.72146   4489819.94844  22853566.3134                   22853563.5274
 -10448350.78047  -8114394.06245  21729587.4064                   21729585.7774
 -19942426.21348 -15513522.01046  20981054.4454                   20981053.1414
  -5411589.57447  -4193882.66845  22504250.8834                   22504248.9844
 11  8 24 17 54 30.0000000  0  9G17G24G07G26G13G19G11G08G28
  15700131.42246  12268455.18844  23797446.7034                   23797447.8484
   6803021.45947   5329035.85544                  22850987.0784   22850988.4024
 -13995855.96348 -10875501.61546  20336992.1254                   20336989.9144
  22189846.46946  17321809.10743  24131210.4534                   24131210.9454
  12427996.28747   9713974.12544  22753211.2584                   22753210.9494
   5733665.02247   4504507.63044  22857153.7504                   22857150.4884
 -10554681.00647  -8197248.78345  21709353.1954                   21709351.0164
 -20076881.10748 -15618292.05646  20955468.5944                   20955466.8404
  -5515081.74547  -4274525.87545  22484557.2424                   22484555.4304
 11  8 24 17 55  0.0000000  0  9G17G24G07G26G13G19G11G08G28
  15527342.46346  12133814.61944  23764565.6644                   23764567.3874
   6667347.39046   5223315.84744                  22825168.8754   22825171.3484
 -14080190.21548 -10941216.61946  20320944.1174                   20320941.8284
  22031492.23646  17198416.24644  24101075.9304                   24101077.4964
  12459277.83747   9738349.19344  22759164.2274                   22759164.8634
   5752762.11747   4519388.44444  22860788.1414                   22860784.1954
 -10660522.35547  -8279722.54645  21689212.1724                   21689210.2664
 -20211112.30348 -15722887.78246  20929925.1954                   20929923.6484
  -5618491.34147  -4355104.75245  22464879.0084                   22464876.9774
 11  8 24 17 55 30.0000000  0  9G17G24G07G26G13G19G11G08G28
  15354733.96346  11999314.70644  23731718.8524                   23731721.2894
   6531930.54147   5117796.31944                  22799400.6644   22799402.0864
 -14164131.65048 -11006625.54247  20304970.4614                   20304968.4924
  21873535.02346  17075332.72043  24071017.8054                   24071018.8094
  12490718.19647   9762848.00044  22765147.0394                   22765147.5044
   5772103.29647   4534459.44444  22864468.3054                   22864465.1644
 -10765874.38747  -8361815.02845  21669164.4064                   21669161.8594
 -20345118.40647 -15827308.12246  20904424.9304                   20904423.0514
  -5721820.24247  -4435620.75845  22445216.3284                   22445214.3984
 11  8 24 17 56  0.0000000  0  9G17G24G07G26G13G19G11G08G28
  15182313.50946  11864961.29844  23698908.2814                   23698910.0514
   6396779.78647   5012484.11044                  22773681.8594   22773683.2704
 -14247672.91148 -11071722.64047  20289073.4924                   20289071.2934
  21715983.05546  16952565.02443  24041037.2274                   24041038.1024
  12522320.27347   9787472.83544  22771160.4144                   22771161.1024
   5791691.30047   4549722.73644  22868195.2034                   22868192.1564
 -10870729.18647  -8443520.05845  21649211.3364                   21649208.8984
 -20478891.44547 -15931546.85346  20878968.7424                   20878966.7814
  -5825063.84747  -4516070.29145  22425569.5704                   22425567.2974
 11  8 24 17 56 30.0000000  0  9G17G24G07G26G13G19G11G08G28
  15010078.45446  11730752.33844  23666133.4064                   23666135.8634
   6261893.45247   4907377.96444                  22748013.5784   22748014.7734
 -14330816.89648 -11136510.17547  20273251.6644                   20273249.2934
  21558834.41246  16830111.57543  24011132.5394                   24011132.7114
  12554076.65647   9812217.86744  22777203.6174                   22777204.5004
   5811519.05847   4565172.90044  22871968.4614                   22871965.4064
 -10975089.58347  -8524839.84245  21629352.2814                   21629350.9184
 -20612433.55547 -16035605.63746  20853556.5234                   20853554.8874
  -5928227.45147  -4596457.49345  22405937.7814                   22405936.3444
 11  8 24 17 57  0.0000000  0  9G17G24G07G26G13G19G11G08G28
  14838027.97346  11596687.22244  23633392.5784                   23633394.9924
   6127271.65646   4802477.92244                  22722396.6804   22722397.7664
 -14413564.87248 -11200989.12747  20257504.9064                   20257503.1054
  21402089.14046  16707972.43343  23981305.0634                   23981305.0784
  12585981.02147   9837078.20644  22783275.0314                   22783275.0514
   5831580.58746   4580805.19144  22875786.8754                   22875783.8014
 -11078956.31947  -8605774.93945  21609586.9614                   21609585.1214
 -20745744.83747 -16139484.55746  20828187.9774                   20828186.6844
  -6031314.62147  -4676785.15645  22386321.1724                   22386319.2854
 11  8 24 17 57 30.0000000  0  9G17G24G07G26G13G19G11G08G28
  14666170.66446  11462772.64344  23600689.2894                   23600692.0394
   5992924.11646   4697791.62744                  22696830.1644   22696831.9184
 -14495908.29048 -11265152.84847  20241835.6884                   20241833.4844
  21245756.30446  16586154.74843  23951555.1484                   23951555.8134
  12618036.99647   9862056.72244  22789375.3834                   22789376.0744
   5851879.83847   4596622.71944  22879649.2034                   22879646.5824
 -11182321.08547  -8686318.89445  21589917.3444                   21589914.8714
 -20878816.47148 -16243176.73446  20802865.4224                   20802863.9844
  -6134319.78347  -4757048.89645  22366719.6644                   22366717.7664
 11  8 24 17 58  0.0000000  0  9G17G24G07G26G13G19G11G08G28
  14494511.91846  11329012.80244  23568023.9924                   23568025.9224
   5858857.44646   4593324.13744                  22671318.6884   22671320.5314
 -14577842.48248 -11328997.68547  20226243.8834                   20226242.0664
  21089842.20146  16464663.21243  23921887.0394                   23921885.7934
  12650245.14947   9887153.78544  22795504.2584                   22795505.2304
   5872417.47946   4612626.03844  22883557.1804                   22883553.7934
 -11285178.39247  -8766467.43045  21570343.9844                   21570341.9224
 -21011642.37547 -16346677.43946  20777589.4064                   20777588.0124
  -6237240.07847  -4837246.51445  22347134.8284                   22347132.6254
 11  8 24 17 58 30.0000000  0  9G17G24G07G26G13G19G11G08G28
  14323051.87146  11195407.75244  23535396.0554                   23535397.2384
   5725072.70946   4489076.38244                  22645860.5004   22645861.6524
 -14659367.80348 -11392523.92646  20210730.2194                   20210727.9104
  20934347.58246  16343498.55643  23892296.1334                   23892296.4534
  12682600.52547   9912365.57044  22801661.3134                   22801662.9804
   5893188.72447   4628811.36844  22887509.9844                   22887506.6524
 -11387528.23947  -8846220.52245  21550867.0784                   21550865.9734
 -21144221.86448 -16449986.13546  20752360.6334                   20752358.9694
  -6340078.48847  -4917380.33645  22327565.4064                   22327563.1724
 11  8 24 17 59  0.0000000  0  9G17G24G07G26G13G19G11G08G28
  14151797.70647  11061963.13644  23502806.8134                   23502808.0164
   5591578.13847   4385054.76044                  22620457.1564   22620457.3954
 -14740476.99748 -11455725.91546  20195296.0474                   20195293.6804
  20779280.35246  16222667.01343  23862788.4144                   23862788.2154
  12715105.40447   9937693.84744  22807846.8524                   22807848.8714
   5914196.49147   4645180.99444  22891507.8364                   22891504.4614
 -11489363.66847  -8925572.79145  21531488.9534                   21531487.1804
 -21276547.24648 -16553096.81746  20727179.6644                   20727178.1134
  -6442830.45247  -4997446.78745  22308012.0004                   22308010.3324
 11  8 24 17 59 30.0000000  0  9G17G24G07G26G13G19G11G08G28
  13980754.45047  10928682.85044  23470258.4144                   23470260.6954
   5458379.95947   4281264.03044                  22595110.5704   22595111.6174
 -14821165.52548 -11518600.10646  20179941.2274                   20179939.1094
  20624646.60846  16102173.17643  23833362.1954                   23833361.6454
  12747760.09847   9963138.86544  22814061.3284                   22814062.0004
   5935441.26646   4661735.29544  22895549.8444                   22895547.5044
 -11590679.43647  -9004520.11145  21512209.1414                   21512207.6054
 -21408612.40148 -16656004.72246  20702048.5164                   20702047.0904
  -6545493.60947  -5077444.04045  22288476.1334                   22288474.0044
 11  8 24 18  0  0.0000000  0  9G17G24G07G26G13G19G11G08G28
  13809920.94047  10795565.98444  23437749.7424                   23437752.5474
   5325478.13047   4177704.24045                  22569819.6254   22569821.4304
 -14901434.90448 -11581147.71047  20164666.5784                   20164663.9654
  20470445.58046  15982016.60843  23804017.9224                   23804018.8134
  12780558.12047   9988695.53644  22820302.8754                   22820303.9224
   5956916.52946   4678469.24544  22899637.0234                   22899633.9654
 -11691477.11747  -9083063.73945  21493027.9694                   21493026.3594
 -21540418.28447 -16758710.60446  20676966.7424                   20676964.8014
  -6648071.95247  -5157375.19545  22268955.9694                   22268954.0394
 11  8 24 18  0 30.0000000  0  9G17G24G07G26G13G19G11G08G28
  15214725.20747  11890218.80844  23705074.7664                   23705077.4414
   6768300.54547   5301981.52144                  22844379.1094   22844380.6374
 -13405860.41748 -10415765.01547  20449265.1414                   20449262.7234
  21892105.48746  17089803.53043  24074551.7584                   24074551.3754
  14388915.80847  11241961.07444  23126363.2734                   23126363.6604
   7554039.80946   5922980.77244  23203558.8834                   23203556.4694
 -10216330.98647  -7933599.19945  21773738.6644                   21773737.0164
 -20096537.20547 -15633608.46746  20951728.2974                   20951726.8324
  -5175142.35747  -4009637.82445  22549245.1644                   22549243.0234
 11  8 24 18  1  0.0000000  0  9G17G24G07G26G13G19G11G08G28
  15044315.01047  11757431.74144  23672647.0474                   23672649.1914
   6635998.50446   5198889.11344                  22819202.5164   22819203.1484
 -13485288.70548 -10477657.21246  20434150.3834                   20434147.9454
  21738775.85746  16970325.91343  24045373.8754                   24045374.0434
  14421989.66947  11267732.71144  23132657.1414                   23132657.2034
   7575967.03946   5940066.87544  23207732.2034                   23207729.1684
 -10316088.93647  -8011332.65445  21754755.5164                   21754753.6914
 -20227818.31347 -15735905.42646  20926746.2114                   20926743.8324
  -5277555.41447  -4089440.19045  22529756.6804                   22529755.2814
 11  8 24 18  1 30.0000000  0  9G17G24G07G26G13G19G11G08G28
  14874118.63547  11624811.30744  23640259.5634                   23640260.8984
   6504000.15647   5096033.31744                  22794084.2274   22794086.0664
 -13564294.83448 -10539220.45247  20419116.0634                   20419113.5904
  21585885.10546  16851190.28243  24016279.2814                   24016280.1804
  14455196.29547  11293607.79244  23138976.0864                   23138976.8484
   7598114.96547   5957324.93544  23211946.9774                   23211944.5204
 -10415325.03247  -8088659.46145  21735871.2504                   21735870.0004
 -20358834.28448 -15837995.79446  20901814.7504                   20901813.1724
  -5379887.76147  -4169179.65145  22510283.0234                   22510281.6644
 11  8 24 18  2  0.0000000  0  9G17G24G07G26G13G19G11G08G28
  14704142.43746  11492362.44844  23607913.8444                   23607914.5904
   6372313.19346   4993420.17244                  22769025.2894   22769026.2774
 -13642872.85948 -10600450.11747  20404162.9384                   20404160.7154
  21433440.32546  16732402.21443  23987270.4534                   23987271.1134
  14488537.37547  11319587.63744  23145321.0084                   23145322.0474
   7620485.87247   5974756.71344  23216204.2034                   23216201.4224
 -10514032.96148  -8165574.72845  21717088.2504                   21717086.6374
 -20489577.66847 -15939873.74846  20876935.0944                   20876933.7344
  -5482135.55847  -4248853.26145  22490826.6024                   22490824.5474
 11  8 24 18  2 30.0000000  0  9G17G24G07G26G13G19G11G08G28
  14534386.55546  11360085.24944  23575610.1644                   23575611.7424
   6240938.46646   4891050.31744                  22744025.0394   22744026.4844
 -13721023.14148 -10661346.47947  20389291.7114                   20389289.5744
  21281442.31446  16613962.24443  23958345.9144                   23958346.2584
  14522007.75347  11345668.24844  23151690.3984                   23151691.7114
   7643074.78746   5992358.42144  23220503.0784                   23220500.1884
 -10612213.15947  -8242078.75845  21698405.0704                   21698403.3634
 -20620048.31447 -16041539.19946  20852107.6804                   20852105.9774
  -5584301.89647  -4328463.37245  22471384.6174                   22471383.1174
 11  8 24 18  3  0.0000000  0  9G17G24G07G26G13G19G11G08G28
  14364852.82346  11227981.21544  23543348.9384                   23543350.7734
   6109878.96947   4788926.08644                  22719085.6484   22719086.7934
 -13798744.03648 -10721908.23247  20374501.6564                   20374499.8014
  21129893.70846  16495872.45843  23929507.3754                   23929506.9024
  14555604.59347  11371847.37443  23158083.4844                   23158085.3094
   7665879.00746   6010127.87643  23224842.7034                   23224839.3634
 -10709863.80947  -8318170.16345  21679822.6414                   21679820.7584
 -20750243.19348 -16142989.75246  20827332.0164                   20827330.5634
  -5686387.19747  -4408010.36145  22451958.4384                   22451956.1914
 11  8 24 18  3 30.0000000  0  9G17G24G07G26G13G19G11G08G28
  14195540.49946  11096049.62044  23511129.7274                   23511132.0784
   5979135.25647   4687047.93344                  22694205.8364   22694206.1414
 -13876036.58548 -10782136.21747  20359793.3984                   20359791.1804
  20978794.33047  16378132.71643  23900754.8594                   23900754.5434
  14589322.07747  11398120.51844  23164500.3134                   23164502.2304
   7688893.52247   6028061.20144  23229221.7344                   23229218.6644
 -10806985.91548  -8393849.71845  21661340.9534                   21661339.1254
 -20880162.26348 -16244225.38546  20802608.9844                   20802607.1804
  -5788394.93347  -4487496.87745  22432547.0944                   22432544.7424
 11  8 24 18  4  0.0000000  0  9G17G24G07G26G13G19G11G08G28
  14026451.27947  10964291.92444  23478953.4454                   23478955.0514
   5848710.12446   4585418.01444                  22669386.8204   22669388.2854
 -13952899.62748 -10842029.51947  20345166.9924                   20345164.6644
  20828146.79847  16260745.03743  23872087.4304                   23872086.4884
  14623157.35347  11424485.45444  23170939.4224                   23170940.7624
   7712115.47346   6046156.15944  23233641.4774                   23233638.0434
 -10903577.85948  -8469116.16045  21642960.1564                   21642958.5044
 -21009803.23348 -16345244.32046  20777939.5314                   20777937.8364
  -5890326.09147  -4566923.72645  22413150.1804                   22413147.8054
 11  8 24 18  4 30.0000000  0  9G17G24G07G26G13G19G11G08G28
  13857591.46947  10832712.99244  23446820.3364                   23446821.9104
   5718610.56947   4484041.79444                  22644629.5704   22644631.1564
 -14029327.36547 -10901583.60947  20330623.3594                   20330621.3874
  20677957.64947  16143714.54043  23843506.7814                   23843507.3984
  14657111.84347  11450943.26544  23177400.6954                   23177402.3164
   7735546.20747   6064413.79444  23238099.6644                   23238096.6374
 -10999634.00148  -8543965.08545  21624680.9144                   21624679.0744
 -21139159.12748 -16446041.11646  20753323.8524                   20753322.3054
  -5992177.13647  -4646288.15645  22393768.5164                   22393766.7384
 11  8 24 18  5  0.0000000  0  9G17G24G07G26G13G19G11G08G28
  13688955.11247  10701308.16245  23414729.4454                   23414731.7854
   5588831.91647   4382915.61344                  22619933.6884   22619935.1214
 -14105326.14147 -10960803.46747  20316161.2814                   20316158.6174
  20528221.77647  16027037.26843  23815013.3284                   23815013.7304
  14691174.31047  11477485.23844  23183882.2344                   23183884.0744
   7759175.02446   6082825.77344  23242596.3204                   23242593.2424
 -11095160.17248  -8618401.06245  21606503.1564                   21606501.1454
 -21268235.31148 -16546619.96546  20728761.4224                   20728759.6764
  -6093956.80247  -4725596.98045  22374400.3834                   22374398.9064
 11  8 24 18  5 30.0000000  0  9G17G24G07G26G13G19G11G08G28
  13520547.58147  10570081.65344  23382682.3984                   23382683.7934
   5459380.37846   4282044.33944                  22595299.2504   22595300.5314
 -14180890.67647 -11019684.93846  20301781.7504                   20301779.2774
  20378944.95047  15910717.69343  23786606.6334                   23786607.5514
  14725345.25847  11504111.70143  23190385.1724                   23190387.5004
   7783002.99146   6101392.97044  23247130.7274                   23247127.1884
 -11190151.63248  -8692420.37145  21588426.7114                   21588425.0554
 -21397025.98547 -16646976.33446  20704253.1094                   20704252.0784
  -6195662.19147  -4804847.92045  22355047.0554                   22355044.6604
 11  8 24 18  6  0.0000000  0  9G17G24G07G26G13G19G11G08G28
  13352368.55147  10439033.17744  23350680.0084                   23350680.7734
   5330257.05247   4181428.81144                  22570728.6094   22570729.0784
 -14256022.48948 -11078229.22346  20287484.5474                   20287482.4304
  20230127.49546  15794756.09543  23758287.5944                   23758288.1254
  14759619.65747  11530818.80244  23196907.6564                   23196909.6174
   7807025.35346   6120111.62644  23251701.5394                   23251698.6174
 -11284608.88848  -8766023.41945  21570452.5084                   21570450.2194
 -21525530.30248 -16747109.56346  20679799.5704                   20679797.8244
  -6297296.11347  -4884043.18945  22335706.2194                   22335704.5354
 11  8 24 18  6 30.0000000  0  9G17G24G07G26G13G19G11G08G28
  13184421.96347  10308165.85144  23318720.3754                   23318721.5784
   5201467.06347   4081073.04244                  22546220.6724   22546221.1884
 -14330717.32448 -11136433.01346  20273270.8284                   20273268.3914
  20081774.41846  15679156.33343  23730056.3134                   23730057.1484
  14793996.98347  11557606.07144  23203449.7974                   23203451.1174
   7831241.74046   6138981.45644  23256309.9064                   23256307.6644
 -11378528.07148  -8839207.19145  21552580.2734                   21552577.8754
 -21653743.68948 -16847016.10546  20655401.4224                   20655400.1374
  -6398856.91847  -4963181.47245  22316380.1094                   22316377.0204
 11  8 24 18  7  0.0000000  0  9G17G24G07G26G13G19G11G08G28
  13016707.86247  10177479.68244  23286805.5314                   23286806.7584
   5073011.50447   3980977.83644                  22521776.4534   22521777.4454
 -14404975.52347 -11194296.56946  20259140.0554                   20259137.8444
  19933886.11446  15563918.73843  23701913.7034                   23701915.6374
  14828472.36747  11584469.76944  23210009.8364                   23210012.0084
   7855647.45846   6157998.80243  23260954.5084                   23260951.8364
 -11471909.48548  -8911971.91445  21534809.9384                   21534808.2424
 -21781665.56848 -16946695.49846  20631058.9924                   20631057.2934
  -6500347.64547  -5042265.14045  22297066.7344                   22297065.1134
 11  8 24 18  7 30.0000000  0  9G17G24G07G26G13G19G11G08G28
  12849226.59847  10046974.91844  23254933.8594                   23254935.9924
   4944891.90747   3881144.43644                  22497395.7664   22497396.4844
 -14478797.58147 -11251820.26546  20245092.1644                   20245089.9534
  19786463.67646  15449044.22543  23673860.6094                   23673861.3594
  14863041.24647  11611406.32244  23216588.8914                   23216590.7384
   7880238.62247   6177160.71444  23265634.0474                   23265631.5554
 -11564753.25048  -8984317.69945  21517142.4454                   21517140.3874
 -21909294.45648 -17046146.57846  20606771.9064                   20606769.6684
  -6601770.55647  -5121295.96845  22277766.6484                   22277764.6174
 11  8 24 18  8  0.0000000  0  9G17G24G07G26G13G19G11G08G28
  12681980.88247   9916653.72544  23223108.3444                   23223110.0204
   4817111.56647   3781575.38244                  22473080.3364   22473080.1954
 -14552180.98248 -11309002.15847  20231127.9064                   20231125.2344
  19639510.01146  15334534.93743  23645896.4774                   23645896.7384
  14897701.19447  11638413.79544  23223184.4614                   23223186.4774
   7905013.06846   6196465.42444  23270348.6954                   23270345.2074
 -11657057.10548  -9056242.76945  21499577.4224                   21499576.0234
 -22036627.46048 -17145367.10546  20582541.3594                   20582539.9964
  -6703125.00947  -5200273.45745  22258479.7344                   22258477.4304
 11  8 24 18  8 30.0000000  0  9G17G24G07G26G13G19G11G08G28
  12514974.43147   9786518.95744  23191327.8204                   23191328.9924
   4689675.44247   3682274.56544                  22448829.0554   22448830.1604
 -14625122.49348 -11365839.72546  20217247.3204                   20217245.4414
  19493029.66446  15220394.43143  23618022.3444                   23618022.3954
  14932451.68447  11665491.84144  23229797.0704                   23229799.4414
   7929969.84147   6215912.20544  23275097.2114                   23275094.8324
 -11748817.76248  -9127744.55545  21482115.9694                   21482114.7034
 -22163659.59148 -17244353.18346  20558367.6884                   20558366.0554
  -6804410.62747  -5279197.31045  22239205.4224                   22239203.5474
 11  8 24 18  9  0.0000000  0  9G17G24G07G26G13G19G11G08G28
  12348202.22047   9656566.73044  23159592.3984                   23159592.9344
   4562579.37347   3583238.72544                  22424643.8364   22424644.9064
 -14697627.90448 -11422337.46247  20203450.0554                   20203448.0274
  19347018.14647  15106619.25543  23590237.4304                   23590237.1604
  14967282.38047  11692632.36444  23236425.4304                   23236427.5704
   7955099.34646   6235493.57144  23279879.3834                   23279876.7704
 -11840040.76748  -9198827.40845  21464757.0704                   21464755.2544
 -22290395.08448 -17343108.12446  20534250.5944                   20534249.0354
  -6905634.96047  -5358073.40545  22219943.0864                   22219940.9414
 11  8 24 18  9 30.0000000  0  9G17G24G07G26G13G19G11G08G28
  12181668.05847   9526800.01144  23127901.5314                   23127902.5594
   4435828.59447   3484471.89644                  22400524.3834   22400524.7584
 -14769693.86948 -11478492.80447  20189736.4384                   20189733.8594
  19201479.99647  14993212.96443  23562541.9774                   23562542.2544
  15002192.76047  11719835.00143  23243068.8914                   23243071.8364
   7980401.55146   6255209.50444  23284694.4844                   23284692.0234
 -11930722.59648  -9269488.57545  21447500.9224                   21447498.5824
 -22416829.41448 -17441628.38546  20510191.3594                   20510189.5124
  -7006796.59847  -5436900.65545  22200692.4694                   22200690.6724
 11  8 24 18 10  0.0000000  0  9G17G24G07G26G13G19G11G08G28
  12015375.59347   9397221.63545  23096257.3284                   23096258.6844
   4309428.17947   3385978.12545                  22376470.6954   22376471.8914
 -14841316.43548 -11534302.59746  20176106.8594                   20176104.9774
  19056420.01047  14880179.22643  23534937.9614                   23534938.3674
  15037182.12247  11747099.16743  23249727.8594                   23249730.6174
   8005875.74346   6275059.48844  23289541.9614                   23289538.9024
 -12020859.81648  -9339725.35645  21430348.5634                   21430346.4534
 -22542957.61848 -17539910.11446  20486189.8204                   20486188.2584
  -7107893.40947  -5515677.37045  22181454.5554                   22181453.1484
 11  8 24 18 10 30.0000000  0  9G17G24G07G26G13G19G11G08G28
  11849326.81147   9267833.10644  23064659.3524                   23064660.4844
   4183380.84447   3287759.47045                  22352484.7194   22352486.3484
 -14912494.54248 -11589766.09346  20162562.2814                   20162560.1884
  18911839.94446  14767519.42943  23507425.5394                   23507425.7624
  15072247.33447  11774422.40944  23256400.2114                   23256403.7974
   8031519.28646   6295041.40544  23294422.1564                   23294419.5124
 -12110451.02948  -9409536.69745  21413299.6724                   21413297.9224
 -22668777.48748 -17637951.55546  20462246.7034                   20462245.2504
  -7208926.74647  -5594404.64545  22162228.3674                   22162226.3674
 11  8 24 18 11  0.0000000  0  9G17G24G07G26G13G19G11G08G28
  13258951.05147  10366241.76844  23332901.8524                   23332903.2384
   5633115.48047   4417422.86345                  22628359.5784   22628360.7344
 -13407803.03248 -10417279.22546  20448895.5084                   20448893.6414
  20343169.09546  15882840.85943  23779798.6174                   23779797.8794
  16682805.91447  13029402.92044  23562880.0084                   23562882.8244
   9632750.33946   7542753.84344  23599126.3524                   23599124.0164
 -10624070.11348  -8251317.78845  21696148.6564                   21696146.6024
 -21218860.45348 -16508146.07946  20738156.9224                   20738155.3634
  -5734472.56847  -4445479.30845  22442807.9924                   22442806.1294
 11  8 24 18 11 30.0000000  0  9G17G24G07G26G13G19G11G08G28
  13093394.33347  10237236.68344  23301396.9924                   23301398.1454
   5507782.03747   4319760.48845                  22604510.2424   22604511.5554
 -13478089.37448 -10472047.82746  20435520.5004                   20435518.3984
  20199555.26846  15770934.01043  23752469.5084                   23752469.6884
  16718012.99747  13056836.77344  23569579.9304                   23569583.1094
   9658723.35946   7562992.45144  23604068.7974                   23604066.1454
 -10712566.16948  -8320275.74645  21679308.0234                   21679305.9344
 -21344056.52248 -16605701.46346  20714333.0004                   20714331.3954
  -5835382.07947  -4524110.08745  22423604.9064                   22423603.3554
 11  8 24 18 12  0.0000000  0  9G17G24G07G26G13G19G11G08G28
  12928088.68147  10108427.21444  23269939.9774                   23269940.9104
   5382812.35447   4222381.57044                  22580728.8914   22580729.6804
 -13547925.13748 -10526465.33846  20422231.6254                   20422229.0944
  20056430.90146  15659408.59843  23725232.6094                   23725233.9144
  16753289.40147  13084324.58444  23576293.1414                   23576295.8714
   9684860.16346   7583358.73343  23609042.1644                   23609040.1334
 -10800510.10448  -8388803.49445  21662573.0004                   21662571.5904
 -21468934.11448 -16703008.68646  20690569.8444                   20690568.4694
  -5936227.88947  -4602691.24745  22404414.9384                   22404412.9414
 11  8 24 18 12 30.0000000  0  9G17G24G07G26G13G19G11G08G28
  12763036.09447   9979814.94245  23238532.0394                   23238532.5784
   5258209.49247   4125288.45445                  22557017.9694   22557018.8714
 -13617308.94048 -10580530.66846  20409027.9774                   20409025.5704
  19913798.38746  15548266.39343  23698091.7894                   23698091.9304
  16788632.31147  13111864.22744  23583018.1094                   23583021.3134
   9711158.08846   7603850.55144  23614046.8984                   23614044.0824
 -10887900.67848  -8456900.01845  21645943.0634                   21645941.1414
 -21593490.47748 -16800065.58946  20666867.6024                   20666865.8094
  -6037010.34547  -4681223.02145  22385237.3674                   22385235.6524
